[[{"header":{"parameterUnit":"m.s-1","parameterCategory":1,"la1":30.6,"la2":28.766,"lo1":-90.7593,"lo2":-88.6598,"dy":0.0162,"dx":0.0183,"nx":116,"ny":114,"refTime":"2023-10-27T06:00:00:Z","depth":0,"parameterNumber":2,"parameterNumberName":"U-component_of_WINDS"},"data":[0.0,0.0,0.0,0.0,0.0,0.0,0.0,0.0,0.0,0.0,0.0,0.0,0.0,0.0,0.0,0.0,0.0,0.0,0.0,0.0,0.0,0.0,0.0,0.0,0.0,0.0,0.0,0.0,0.0,0.0,0.0,0.0,0.0,0.0,0.0,0.0,0.0,0.0,0.0,0.0,0.0,0.0,0.0,0.0,0.0,0.0,0.0,0.0,0.0,0.0,0.0,0.0,0.0,0.0,0.0,0.0,0.0,0.0,0.0,0.0,0.0,0.0,0.0,0.0,0.0,0.0,0.0,0.0,0.0,0.0,0.0,0.0,0.0,0.0,0.0,0.0,0.0,0.0,0.0,0.0,0.0,0.0,0.0,0.0,0.0,0.0,0.0,0.0,0.0,0.0,0.0,0.0,0.0,0.0,0.0,0.0,0.0,0.0,0.0,0.0,0.0,0.0,0.0,0.0,0.0,0.0,0.0,0.0,0.0,0.0,0.0,0.0,0.0,0.0,0.0,0.0,0.0,0.0,0.0,0.0,0.0,0.0,0.0,0.0,0.0,0.0,0.0,0.0,0.0,0.0,0.0,0.0,0.0,0.0,0.0,0.0,0.0,0.0,0.0,0.0,0.0,0.0,0.0,0.0,0.0,0.0,0.0,0.0,0.0,0.0,0.0,0.0,0.0,0.0,0.0,0.0,0.0,0.0,0.0,0.0,0.0,0.0,0.0,0.0,0.0,0.0,0.0,0.0,0.0,0.0,0.0,0.0,0.0,0.0,0.0,0.0,0.0,0.0,0.0,0.0,0.0,0.0,0.0,0.0,0.0,0.0,0.0,0.0,0.0,0.0,0.0,0.0,0.0,0.0,0.0,0.0,0.0,0.0,0.0,0.0,0.0,0.0,0.0,0.0,0.0,0.0,0.0,0.0,0.0,0.0,0.0,0.0,0.0,0.0,0.0,0.0,0.0,0.0,0.0,0.0,0.0,0.0,0.0,0.0,0.0,0.0,0.0,0.0,0.0,0.0,0.0,0.0,0.0,0.0,0.0,0.0,0.0,0.0,0.0,0.0,0.0,0.0,0.0,0.0,0.0,0.0,0.0,0.0,0.0,0.0,0.0,0.0,0.0,0.0,0.0,0.0,0.0,0.0,0.0,0.0,0.0,0.0,0.0,0.0,0.0,0.0,0.0,0.0,0.0,0.0,0.0,0.0,0.0,0.0,0.0,0.0,0.0,0.0,0.0,0.0,0.0,0.0,0.0,0.0,0.0,0.0,0.0,0.0,0.0,0.0,0.0,0.0,0.0,0.0,0.0,0.0,0.0,0.0,0.0,0.0,0.0,0.0,0.0,0.0,0.0,0.0,0.0,0.0,0.0,0.0,0.0,0.0,0.0,0.0,0.0,0.0,0.0,0.0,0.0,0.0,0.0,0.0,0.0,0.0,0.0,0.0,0.0,0.0,0.0,0.0,0.0,0.0,0.0,0.0,0.0,0.0,0.0,0.0,0.0,0.0,0.0,0.0,0.0,0.0,0.0,0.0,0.0,0.0,0.0,0.0,0.0,0.0,0.0,0.0,0.0,0.0,0.0,0.0,0.0,0.0,0.0,0.0,0.0,0.0,0.0,0.0,0.0,0.0,0.0,0.0,0.0,0.0,0.0,0.0,0.0,0.0,0.0,0.0,0.0,0.0,0.0,0.0,0.0,0.0,0.0,0.0,0.0,0.0,0.0,0.0,0.0,0.0,0.0,0.0,0.0,0.0,0.0,0.0,0.0,0.0,0.0,0.0,0.0,0.0,0.0,0.0,0.0,0.0,0.0,0.0,0.0,0.0,0.0,0.0,0.0,0.0,0.0,0.0,0.0,0.0,0.0,0.0,0.0,0.0,0.0,0.0,0.0,0.0,0.0,0.0,0.0,0.0,0.0,0.0,0.0,0.0,0.0,0.0,0.0,0.0,0.0,0.0,0.0,0.0,0.0,0.0,0.0,0.0,0.0,0.0,0.0,0.0,0.0,0.0,0.0,0.0,0.0,0.0,0.0,0.0,0.0,0.0,0.0,0.0,0.0,0.0,0.0,0.0,0.0,0.0,0.0,0.0,0.0,0.0,0.0,0.0,0.0,0.0,0.0,0.0,0.0,0.0,0.0,0.0,0.0,0.0,0.0,0.0,0.0,0.0,0.0,0.0,0.0,0.0,0.0,0.0,0.0,0.0,0.0,0.0,0.0,0.0,0.0,0.0,0.0,0.0,0.0,0.0,0.0,0.0,0.0,0.0,0.0,0.0,0.0,0.0,0.0,0.0,0.0,0.0,0.0,0.0,0.0,0.0,0.0,0.0,0.0,0.0,0.0,0.0,0.0,0.0,0.0,0.0,0.0,0.0,0.0,0.0,0.0,0.0,0.0,0.0,0.0,0.0,0.0,0.0,0.0,0.0,0.0,0.0,0.0,0.0,0.0,0.0,0.0,0.0,0.0,0.0,0.0,0.0,0.0,0.0,0.0,0.0,0.0,0.0,0.0,0.0,0.0,0.0,0.0,0.0,0.0,0.0,0.0,0.0,0.0,0.0,0.0,0.0,0.0,0.0,0.0,0.0,0.0,0.0,0.0,0.0,0.0,0.0,0.0,0.0,0.0,0.0,0.0,0.0,0.0,0.0,0.0,0.0,0.0,0.0,0.0,0.0,0.0,0.0,0.0,0.0,0.0,0.0,0.0,0.0,0.0,0.0,0.0,0.0,0.0,0.0,0.0,0.0,0.0,0.0,0.0,0.0,0.0,0.0,0.0,0.0,0.0,0.0,0.0,0.0,0.0,0.0,0.0,0.0,0.0,0.0,0.0,0.0,0.0,0.0,0.0,0.0,0.0,0.0,0.0,0.0,0.0,0.0,0.0,0.0,0.0,0.0,0.0,0.0,0.0,0.0,0.0,0.0,0.0,0.0,0.0,0.0,0.0,0.0,0.0,0.0,0.0,0.0,0.0,0.0,0.0,0.0,0.0,0.0,0.0,0.0,0.0,0.0,0.0,0.0,0.0,0.0,0.0,0.0,0.0,0.0,0.0,0.0,0.0,0.0,0.0,0.0,0.0,0.0,0.0,0.0,0.0,0.0,0.0,0.0,0.0,0.0,0.0,0.0,0.0,0.0,0.0,0.0,0.0,0.0,0.0,0.0,0.0,0.0,0.0,0.0,0.0,0.0,0.0,0.0,0.0,0.0,0.0,0.0,0.0,0.0,0.0,0.0,0.0,0.0,0.0,0.0,0.0,0.0,0.0,0.0,0.0,0.0,0.0,0.0,0.0,0.0,0.0,0.0,0.0,0.0,0.0,0.0,0.0,0.0,0.0,0.0,0.0,0.0,0.0,0.0,0.0,0.0,0.0,0.0,0.0,0.0,0.0,0.0,0.0,0.0,0.0,0.0,0.0,0.0,0.0,0.0,0.0,0.0,0.0,0.0,0.0,0.0,0.0,0.0,0.0,0.0,0.0,0.0,0.0,0.0,0.0,0.0,0.0,0.0,0.0,0.0,0.0,0.0,0.0,0.0,0.0,0.0,0.0,0.0,0.0,0.0,0.0,0.0,0.0,0.0,0.0,0.0,0.0,0.0,0.0,0.0,0.0,0.0,0.0,0.0,0.0,0.0,0.0,0.0,0.0,0.0,0.0,0.0,0.0,0.0,0.0,0.0,0.0,0.0,0.0,0.0,0.0,0.0,0.0,0.0,0.0,0.0,0.0,0.0,0.0,0.0,0.0,0.0,0.0,0.0,0.0,0.0,0.0,0.0,0.0,0.0,0.0,0.0,0.0,0.0,0.0,0.0,0.0,0.0,0.0,0.0,0.0,0.0,0.0,0.0,0.0,0.0,0.0,0.0,0.0,0.0,0.0,0.0,0.0,0.0,0.0,0.0,0.0,0.0,0.0,0.0,0.0,0.0,0.0,0.0,0.0,0.0,0.0,0.0,0.0,0.0,0.0,0.0,0.0,0.0,0.0,0.0,0.0,0.0,0.0,0.0,0.0,0.0,0.0,0.0,0.0,0.0,0.0,0.0,0.0,0.0,0.0,0.0,0.0,0.0,0.0,0.0,0.0,0.0,0.0,0.0,0.0,0.0,0.0,0.0,0.0,0.0,0.0,0.0,0.0,0.0,0.0,0.0,0.0,0.0,0.0,0.0,0.0,0.0,0.0,0.0,0.0,0.0,0.0,0.0,0.0,0.0,0.0,0.0,0.0,0.0,0.0,0.0,0.0,0.0,0.0,0.0,0.0,0.0,0.0,0.0,0.0,0.0,0.0,0.0,0.0,0.0,0.0,0.0,0.0,0.0,0.0,0.0,0.0,0.0,0.0,0.0,0.0,0.0,0.0,0.0,0.0,0.0,0.0,0.0,0.0,0.0,0.0,0.0,0.0,0.0,0.0,0.0,0.0,0.0,0.0,0.0,0.0,0.0,0.0,0.0,0.0,0.0,0.0,0.0,0.0,0.0,0.0,0.0,0.0,0.0,0.0,0.0,0.0,0.0,0.0,0.0,0.0,0.0,0.0,0.0,0.0,0.0,0.0,0.0,0.0,0.0,0.0,0.0,0.0,0.0,0.0,0.0,0.0,0.0,0.0,0.0,0.0,0.0,0.0,0.0,0.0,0.0,0.0,0.0,0.0,0.0,0.0,0.0,0.0,0.0,0.0,0.0,0.0,0.0,0.0,0.0,0.0,0.0,0.0,0.0,0.0,0.0,0.0,0.0,0.0,0.0,0.0,0.0,0.0,0.0,0.0,0.0,0.0,0.0,0.0,0.0,0.0,0.0,0.0,0.0,0.0,0.0,0.0,0.0,0.0,0.0,0.0,0.0,0.0,0.0,0.0,0.0,0.0,0.0,0.0,0.0,0.0,0.0,0.0,0.0,0.0,0.0,0.0,0.0,0.0,0.0,0.0,0.0,0.0,0.0,0.0,0.0,0.0,0.0,0.0,0.0,0.0,0.0,0.0,0.0,0.0,0.0,0.0,0.0,0.0,0.0,0.0,0.0,0.0,0.0,0.0,0.0,0.0,0.0,0.0,0.0,0.0,0.0,0.0,0.0,0.0,0.0,0.0,0.0,0.0,0.0,0.0,0.0,0.0,0.0,0.0,0.0,0.0,0.0,0.0,0.0,0.0,0.0,0.0,0.0,0.0,0.0,0.0,0.0,0.0,0.0,0.0,0.0,0.0,0.0,0.0,0.0,0.0,0.0,0.0,0.0,0.0,0.0,0.0,0.0,0.0,0.0,0.0,0.0,0.0,0.0,0.0,0.0,0.0,0.0,0.0,0.0,0.0,0.0,0.0,0.0,0.0,0.0,0.0,0.0,0.0,0.0,0.0,0.0,0.0,0.0,0.0,0.0,0.0,0.0,0.0,0.0,0.0,0.0,0.0,0.0,0.0,0.0,0.0,0.0,0.0,0.0,0.0,0.0,0.0,0.0,0.0,0.0,0.0,0.0,0.0,0.0,0.0,0.0,0.0,0.0,0.0,0.0,0.0,0.0,0.0,0.0,0.0,0.0,0.0,0.0,0.0,0.0,0.0,0.0,0.0,0.0,0.0,0.0,0.0,0.0,0.0,0.0,0.0,0.0,0.0,0.0,0.0,0.0,0.0,0.0,0.0,0.0,0.0,0.0,0.0,0.0,0.0,0.0,0.0,0.0,0.0,0.0,0.0,0.0,0.0,0.0,0.0,0.0,0.0,0.0,0.0,0.0,0.0,0.0,0.0,0.0,0.0,0.0,0.0,0.0,0.0,0.0,0.0,0.0,0.0,0.0,0.0,0.0,0.0,0.0,0.0,0.0,0.0,0.0,0.0,0.0,0.0,0.0,0.0,0.0,0.0,0.0,0.0,0.0,0.0,0.0,0.0,0.0,0.0,0.0,0.0,0.0,0.0,0.0,0.0,0.0,0.0,0.0,0.0,0.0,0.0,0.0,0.0,0.0,0.0,0.0,0.0,0.0,0.0,0.0,0.0,0.0,0.0,0.0,0.0,0.0,0.0,0.0,0.0,0.0,0.0,0.0,0.0,0.0,0.0,0.0,0.0,0.0,0.0,0.0,0.0,0.0,0.0,0.0,0.0,0.0,0.0,0.0,0.0,0.0,1.6873,0.0,0.0,0.0,0.0,0.0,0.0,0.0,0.0,0.0,0.0,0.0,0.0,0.0,0.0,0.0,0.0,0.0,0.0,0.0,0.0,0.0,0.0,0.0,0.0,0.0,0.0,0.0,0.0,0.0,0.0,0.0,0.0,0.0,0.0,0.0,0.0,0.0,0.0,3.7819,3.6114,3.4837,3.3972,3.4399,3.4574,3.4549,0.0,0.0,0.0,0.0,0.0,0.0,0.0,0.0,0.0,0.0,0.0,0.0,0.0,0.0,0.0,0.0,0.0,0.0,0.0,0.0,0.0,0.0,0.0,0.0,0.0,0.0,0.0,0.0,0.0,0.0,0.0,0.0,0.0,0.0,0.0,0.0,0.0,0.0,0.0,0.0,0.0,0.0,0.0,0.0,0.0,0.0,0.0,0.0,0.0,0.0,0.0,0.0,0.0,0.0,0.0,0.0,0.0,0.0,0.0,0.0,0.0,0.0,0.0,0.0,0.0,0.0,0.0,0.0,0.0,0.0,0.0,1.6744,0.0,0.0,0.0,0.0,0.0,0.0,0.0,0.0,0.0,0.0,0.0,0.0,0.0,0.0,0.0,0.0,0.0,0.0,0.0,0.0,0.0,0.0,0.0,3.6985,3.7044,3.72,3.6562,3.647,0.0,0.0,0.0,0.0,0.0,0.0,3.8496,3.7006,3.6827,3.8063,3.5447,3.3784,3.3076,3.3076,3.344,3.416,3.5034,0.0,0.0,0.0,0.0,0.0,0.0,0.0,0.0,0.0,0.0,0.0,0.0,0.0,0.0,0.0,0.0,0.0,0.0,0.0,0.0,0.0,0.0,0.0,0.0,0.0,0.0,0.0,0.0,0.0,0.0,0.0,0.0,0.0,0.0,0.0,0.0,0.0,0.0,0.0,0.0,0.0,0.0,0.0,0.0,0.0,0.0,0.0,0.0,0.0,0.0,0.0,0.0,0.0,0.0,0.0,0.0,0.0,0.0,0.0,0.0,0.0,0.0,0.0,1.5101,1.4891,1.6186,1.5279,1.4038,1.2673,1.3271,1.3418,1.3465,0.0,0.0,0.0,0.0,0.0,0.0,0.0,0.0,0.0,0.0,0.0,0.0,0.0,0.0,0.0,0.0,0.0,0.0,0.0,0.0,0.0,0.0,3.6119,3.6455,3.7225,3.718,3.7164,3.7283,0.0,0.0,0.0,0.0,0.0,3.8578,3.7629,3.6875,3.6324,3.3721,3.2333,3.2174,3.2159,3.2178,3.2208,3.3138,3.3988,3.4622,0.0,0.0,0.0,0.0,0.0,0.0,0.0,0.0,0.0,0.0,0.0,0.0,0.0,0.0,0.0,0.0,0.0,0.0,0.0,0.0,0.0,0.0,0.0,0.0,0.0,0.0,0.0,0.0,0.0,0.0,0.0,0.0,0.0,0.0,0.0,0.0,0.0,0.0,0.0,0.0,0.0,2.2435,2.154,0.0,0.0,0.0,0.0,0.0,0.0,0.0,0.0,0.0,0.0,0.0,0.0,0.0,0.0,1.7549,1.519,1.4117,1.4291,1.2164,1.131,1.1549,1.0952,1.0586,1.0422,1.0116,0.0,1.2992,1.2437,0.0,0.0,0.0,0.0,0.0,0.0,0.0,0.0,0.0,0.0,0.0,0.0,0.0,0.0,0.0,0.0,0.0,0.0,0.0,0.0,0.0,3.5681,3.5958,3.5853,3.5392,3.572,3.72,3.7204,0.0,0.0,0.0,3.8764,3.9252,3.7503,3.5657,3.3812,3.3106,3.227,3.1268,3.1224,3.1148,3.1041,3.1477,3.2458,3.372,3.2956,0.0,0.0,0.0,0.0,0.0,0.0,0.0,0.0,0.0,0.0,0.0,0.0,0.0,0.0,0.0,0.0,0.0,0.0,0.0,0.0,0.0,0.0,0.0,0.0,0.0,0.0,0.0,0.0,0.0,0.0,0.0,0.0,0.0,0.0,0.0,0.0,0.0,0.0,0.0,2.4418,2.3251,2.2795,2.2971,2.3255,0.0,0.0,0.0,0.0,0.0,0.0,0.0,0.0,0.0,1.5697,1.544,1.4762,1.3526,1.2365,1.1844,1.1879,1.0654,1.0136,1.0214,0.9542,0.9487,0.9905,0.9298,0.9914,1.1427,1.2016,1.4028,1.6825,0.0,0.0,0.0,0.0,0.0,1.8774,0.0,0.0,0.0,0.0,0.0,0.0,0.0,0.0,0.0,0.0,0.0,0.0,3.4833,3.509,3.5152,3.4742,3.4111,3.4554,3.6504,3.6023,3.6141,3.7226,3.7656,3.7964,3.8155,3.6082,3.4041,3.2095,3.2467,3.1952,3.0668,3.0618,3.0521,3.0367,3.0249,3.1166,3.2773,3.2038,3.1695,3.1529,0.0,0.0,0.0,0.0,0.0,0.0,0.0,0.0,0.0,0.0,0.0,0.0,0.0,0.0,0.0,0.0,0.0,0.0,0.0,0.0,0.0,0.0,0.0,0.0,0.0,0.0,0.0,0.0,0.0,0.0,0.0,0.0,0.0,0.0,0.0,0.0,0.0,2.3921,2.2898,2.3019,2.1947,2.159,0.0,0.0,0.0,0.0,0.0,0.0,1.5931,1.6425,1.5669,1.3277,1.309,1.2351,1.0935,1.0817,1.0766,1.0779,1.0439,1.0309,1.0399,0.9676,0.9678,1.0197,0.9528,0.9679,1.047,1.1706,1.3074,1.4503,1.5808,1.7047,1.7975,1.7127,1.6859,1.652,0.0,0.0,0.0,0.0,0.0,0.0,0.0,0.0,0.0,0.0,0.0,3.4799,3.4701,3.3996,3.3854,3.4632,3.4664,3.4686,3.4814,3.4784,3.4445,3.3692,3.5248,3.5368,3.3754,3.2792,3.2226,3.2104,3.1242,3.0743,3.0604,3.0604,3.0481,3.0286,2.9641,3.0259,3.1729,3.1069,3.0729,3.0668,3.0657,0.0,0.0,0.0,0.0,0.0,0.0,0.0,0.0,0.0,0.0,0.0,0.0,0.0,0.0,0.0,0.0,0.0,0.0,0.0,0.0,0.0,0.0,0.0,0.0,0.0,0.0,0.0,0.0,0.0,0.0,0.0,0.0,0.0,0.0,0.0,0.0,0.0,0.0,1.9543,1.7467,0.0,0.0,0.0,0.0,1.8244,1.829,1.7239,1.4813,1.4908,1.4151,1.2238,1.1736,1.1802,1.2386,1.1953,1.175,1.1831,1.1804,1.1777,1.179,1.1309,1.1085,1.1118,1.0613,1.0694,1.107,1.0222,1.1725,1.4531,1.4138,1.6198,1.9022,1.582,1.5047,1.5096,0.0,0.0,0.0,0.0,0.0,0.0,0.0,0.0,3.5878,3.5664,3.5096,3.4277,3.3141,3.2745,3.2487,3.2264,3.2226,3.266,3.3785,3.3867,3.4452,3.5791,3.5942,3.5179,3.3435,3.3042,3.2349,3.1271,3.0878,3.0671,3.0593,3.0604,3.0462,3.0216,3.0173,3.0076,2.9913,2.9289,2.9295,2.9601,2.8554,2.8082,0.0,0.0,0.0,0.0,0.0,0.0,0.0,0.0,0.0,0.0,0.0,0.0,0.0,0.0,0.0,0.0,0.0,0.0,0.0,0.0,0.0,0.0,0.0,0.0,0.0,0.0,0.0,0.0,0.0,0.0,0.0,0.0,0.0,0.0,0.0,0.0,0.0,1.9419,1.7288,0.0,0.0,1.7065,1.6157,1.5852,1.529,1.4262,1.2623,1.3135,1.3029,1.1992,1.1806,1.1835,1.2058,1.1898,1.1825,1.1837,1.1787,1.183,1.188,1.1369,1.1415,1.1882,1.1465,1.1687,1.2289,1.1601,1.1841,1.2634,1.2124,1.2687,1.355,1.1844,1.1694,1.2073,0.0,0.0,0.0,0.0,0.0,0.0,0.0,0.0,3.5777,3.5206,3.4636,3.3701,3.2264,3.1848,3.1457,3.0905,3.0825,3.1283,3.2453,3.3066,3.4155,3.5847,3.5407,3.4589,3.3437,3.2782,3.1902,3.0798,3.0761,3.0691,3.063,3.0602,3.0492,3.0304,3.0192,2.9757,2.9017,2.807,2.7904,2.8193,2.7127,2.6668,2.6626,0.0,0.0,0.0,0.0,0.0,0.0,0.0,0.0,0.0,0.0,0.0,0.0,0.0,0.0,0.0,0.0,0.0,0.0,0.0,0.0,0.0,0.0,0.0,0.0,0.0,0.0,0.0,0.0,0.0,0.0,0.0,0.0,0.0,0.0,0.0,1.8181,1.928,1.7026,1.6039,1.776,1.6465,1.5256,1.4645,1.3839,1.2946,1.1922,1.2257,1.2409,1.2312,1.234,1.2429,1.2646,1.2691,1.2691,1.2646,1.2646,1.2691,1.2691,1.2143,1.2204,1.2682,1.2233,1.2395,1.2901,1.2647,1.2434,1.2188,1.1311,1.1076,1.108,1.0074,1.0054,1.0417,0.0,0.0,0.0,0.0,0.0,0.0,0.0,3.644,3.5906,3.5876,3.4417,3.3002,3.2089,3.1249,3.0762,3.0767,3.0795,3.0839,3.0879,3.2461,3.3398,3.3398,3.3396,3.3377,3.332,3.1658,3.0808,3.0798,3.0803,3.0778,3.0703,3.0634,3.056,3.0477,2.9683,2.9291,2.9098,2.7544,2.6743,2.6523,2.6616,2.563,2.4384,0.0,0.0,0.0,0.0,0.0,0.0,0.0,0.0,0.0,0.0,0.0,0.0,0.0,0.0,0.0,0.0,0.0,0.0,0.0,0.0,0.0,0.0,0.0,0.0,0.0,0.0,0.0,0.0,0.0,0.0,0.0,0.0,0.0,2.0428,1.8313,1.7205,1.8654,1.626,1.5182,1.6955,1.6236,1.5426,1.4858,1.4265,1.3638,1.2903,1.2416,1.2461,1.3129,1.3246,1.361,1.43,1.4433,1.4428,1.4297,1.446,1.4465,1.4287,1.38,1.3565,1.3506,1.2981,1.2807,1.2878,1.3097,1.3381,1.3464,1.1815,1.1672,1.2238,1.0839,1.0354,1.0283,0.0,0.0,0.0,0.0,0.0,0.0,3.531,3.5715,3.5302,3.3422,3.2758,3.1656,2.957,2.9687,2.9921,2.9922,3.0507,3.1389,3.2616,3.3126,3.3406,3.3398,3.3398,3.2812,3.153,3.1042,3.079,3.0806,3.0798,3.0774,3.0704,3.0687,3.0603,3.0496,3.0369,2.9932,2.9249,2.8858,2.7905,2.6599,2.6041,2.5902,2.6112,0.0,0.0,0.0,0.0,0.0,0.0,0.0,0.0,0.0,0.0,0.0,0.0,0.0,0.0,0.0,0.0,0.0,0.0,0.0,0.0,0.0,0.0,0.0,0.0,0.0,0.0,0.0,0.0,0.0,0.0,0.0,0.0,1.7876,1.8262,1.6915,1.5799,1.5494,1.4896,1.465,1.5067,1.5119,1.5069,1.4879,1.5219,1.5081,1.436,1.4865,1.4874,1.4137,1.4653,1.4791,1.4465,1.4479,1.444,1.4292,1.4831,1.4865,1.4465,1.4911,1.4865,1.4419,1.3931,1.3931,1.4241,1.3506,1.3588,1.406,1.2716,1.2271,1.2263,1.1215,1.057,1.0181,0.0,0.0,0.0,0.0,0.0,0.0,3.5139,3.5662,3.5053,3.2439,3.21,3.1132,2.8572,2.8746,2.9196,2.957,3.0712,3.196,3.3308,3.4057,3.4134,3.3437,3.3398,3.2597,3.0875,3.0804,3.0788,3.0767,3.0786,3.0774,3.0702,3.0708,3.0679,3.0623,3.0674,3.0205,2.9392,2.9435,2.8408,2.6732,2.6269,2.5919,2.5764,2.6598,2.7036,2.7231,2.7436,2.8164,2.9054,2.8974,0.0,0.0,0.0,0.0,0.0,0.0,0.0,0.0,0.0,0.0,0.0,0.0,0.0,0.0,0.0,0.0,0.0,0.0,0.0,0.0,0.0,0.0,0.0,0.0,1.7996,1.6616,1.6514,1.5649,1.478,1.4184,1.4701,1.5103,1.5006,1.5475,1.5636,1.5336,1.5701,1.5597,1.4875,1.5397,1.5501,1.4977,1.5385,1.5527,1.531,1.5435,1.5337,1.498,1.5509,1.5458,1.4897,1.5366,1.5371,0.0,1.4666,1.4768,1.5086,1.4681,1.4917,0.0,0.0,0.0,0.0,0.0,1.1457,1.1104,0.0,0.0,0.0,0.0,0.0,0.0,3.563,3.5935,3.5069,3.244,3.2022,3.1032,2.8564,2.8309,2.8686,2.9648,3.1262,3.2664,3.3614,3.4896,3.494,3.3469,3.3221,3.2421,3.0919,3.0833,3.0769,3.0703,3.0759,3.0767,3.0696,3.0702,3.0742,3.0801,3.074,3.03,2.9643,2.9645,2.8645,2.7052,2.7145,2.6019,2.4455,2.6135,2.6311,2.5895,2.738,2.8075,2.8286,2.8211,0.0,0.0,0.0,0.0,0.0,0.0,0.0,0.0,0.0,0.0,0.0,0.0,0.0,0.0,0.0,0.0,0.0,0.0,0.0,0.0,0.0,0.0,0.0,0.0,1.6917,1.5631,1.5407,1.4846,1.4404,1.4261,1.5276,1.5978,1.5932,1.6556,1.666,1.6006,1.5929,1.5642,1.4968,0.0,0.0,0.0,0.0,1.5981,1.6292,1.6633,1.6474,1.5872,1.6265,1.6107,1.5464,1.564,1.5604,1.5429,1.5491,1.5591,1.5827,1.6362,1.6851,1.7063,1.4722,1.3934,1.3978,1.3299,1.2964,0.0,0.0,0.0,0.0,0.0,0.0,0.0,3.4898,3.5549,3.5053,3.2446,3.1537,3.041,2.8515,2.83,2.8906,3.044,3.2146,3.3782,3.5318,3.4456,3.3751,3.3411,3.2096,3.1211,3.0821,3.0818,3.0779,3.0701,3.0716,3.0712,3.07,3.0696,3.0735,3.0804,3.0784,3.0699,3.0547,3.0546,2.9549,2.8005,2.8592,2.7414,2.5364,2.5761,2.5834,2.5732,2.6006,2.7015,2.8204,2.8152,2.8502,2.9263,3.0715,3.0571,0.0,0.0,0.0,0.0,0.0,0.0,0.0,0.0,0.0,0.0,0.0,0.0,0.0,0.0,0.0,0.0,0.0,0.0,0.0,1.8625,1.703,1.5921,1.5872,1.5945,1.5763,1.5157,1.5487,1.5727,1.5591,1.6094,1.6402,1.6247,1.6672,1.6823,1.6478,1.6672,0.0,1.6166,1.6379,1.6266,1.5767,1.5931,1.5898,1.5692,0.0,0.0,1.5927,1.7139,1.7363,1.6908,1.7125,1.7553,1.8027,1.7728,1.7939,1.8357,1.7036,1.6458,1.6271,1.5598,1.536,1.5283,0.0,0.0,0.0,0.0,0.0,0.0,3.5271,3.5718,3.523,3.3044,3.2407,3.1495,2.9732,2.9542,3.0048,3.1298,3.2994,3.4355,3.5178,3.408,3.3035,3.2189,3.1348,3.0849,3.0751,3.0745,3.0691,3.0592,3.0664,3.0665,3.0591,3.0659,3.072,3.075,3.079,3.0788,3.0752,3.0755,2.9977,2.8786,2.9149,2.8294,2.6757,2.6353,2.5969,2.5652,2.5618,2.6085,2.6723,2.663,2.6792,2.7362,2.9186,2.9286,2.9421,0.0,0.0,0.0,0.0,0.0,0.0,0.0,0.0,0.0,0.0,0.0,0.0,0.0,0.0,2.2737,0.0,0.0,1.9207,1.7722,1.6785,1.6219,1.6194,1.625,1.6181,1.5905,1.5929,1.5941,1.5997,1.6009,1.6126,1.6272,1.6422,1.6504,1.6561,1.6693,1.6905,1.7194,1.6947,1.7152,1.7786,1.761,1.7531,1.7655,1.8166,1.8171,1.7718,1.8571,1.8776,1.8449,1.8692,1.9091,1.9595,1.988,2.0315,2.0825,2.041,1.9414,1.8244,1.8122,1.8022,1.7913,0.0,0.0,0.0,0.0,0.0,0.0,0.0,3.5999,3.5435,3.3858,3.348,3.2853,3.1445,3.1122,3.1475,3.263,3.3725,3.4419,3.4567,3.3526,3.2303,3.095,3.0879,3.0813,3.0695,3.0704,3.0635,3.0527,3.0623,3.0626,3.051,3.0622,3.0665,3.0664,3.0725,3.0711,3.0659,3.0652,3.0127,2.9259,2.9431,2.888,2.788,2.7168,2.6431,2.579,2.5582,2.5383,2.5191,2.5046,2.4884,2.5104,2.7123,2.7837,2.8738,3.2604,3.2828,0.0,0.0,0.0,0.0,0.0,0.0,0.0,0.0,0.0,2.4457,2.1952,2.1709,2.1341,1.9244,1.9159,1.8738,1.676,1.6374,1.6298,1.6372,1.6296,1.6275,1.6473,1.6355,1.6286,1.6485,1.6149,1.6069,1.6296,1.6254,1.633,1.6629,1.6729,1.7316,1.8443,1.7983,1.8468,2.0118,1.9885,1.9927,2.023,2.0401,2.0344,2.0076,2.0401,2.0513,2.0494,2.0881,2.1227,2.1595,2.2525,2.3193,2.3606,2.3833,2.2716,2.0907,2.0789,2.0623,2.0457,0.0,0.0,0.0,0.0,0.0,0.0,0.0,0.0,3.5656,3.4675,3.3824,3.3237,3.3044,3.2283,3.2724,3.5078,3.4154,3.3751,3.4462,3.2416,3.1065,3.0817,3.0807,3.0773,3.0701,3.0707,3.0665,3.0598,3.0608,3.0597,3.0586,3.0604,3.0591,3.0529,3.0517,3.0529,3.0516,3.0524,2.9976,2.9187,2.9901,2.9212,2.7715,2.764,2.7171,2.6447,2.5495,2.5069,2.4915,2.4651,2.4399,2.4413,2.5735,2.7246,2.8934,3.1092,3.2714,3.397,3.4843,3.1842,2.7929,2.5853,2.4447,2.2678,0.0,0.0,2.1289,1.8508,1.8755,1.8865,1.7161,1.7057,1.7063,1.6414,1.5929,1.574,1.6175,1.6245,1.6435,1.6901,1.6604,1.6405,1.6491,1.6456,1.6451,1.6465,1.7149,1.7792,1.8313,1.8673,1.9142,1.9768,1.9984,2.0283,2.0598,2.1356,2.1815,2.2116,2.2231,2.236,2.2449,2.3172,2.3531,2.3562,2.4642,2.5287,2.5569,2.5818,2.5964,2.6047,2.6346,2.6339,2.5795,2.3537,2.2672,2.2644,0.0,0.0,0.0,0.0,0.0,0.0,0.0,0.0,0.0,3.5391,3.5003,3.4727,3.47,3.4303,3.4476,3.5562,3.4206,3.3425,3.3715,3.1921,3.0817,3.075,3.0734,3.0714,3.0645,3.0646,3.0607,3.0548,3.0579,3.0559,3.0491,3.0549,3.0549,3.0442,3.0491,3.0443,3.034,3.0372,3.0128,2.9774,3.0113,2.9819,2.9053,2.8063,2.8076,2.8433,2.7103,2.6495,0.0,2.601,2.5991,2.6282,2.7095,2.7765,2.8963,3.2638,3.2905,3.1478,2.9121,2.7762,2.627,0.0,2.1797,2.0717,1.9572,1.9916,1.9823,1.7603,1.7489,1.7678,1.7346,1.7329,1.7284,0.0,1.6826,1.6774,1.702,1.7321,1.7849,1.8655,1.8851,1.8589,1.7721,1.7902,1.8162,1.8345,1.8615,1.9068,1.9857,2.0168,2.0798,2.1898,2.1764,2.213,2.3011,2.3084,2.3427,2.4063,2.4149,2.4276,2.4499,2.5047,2.5439,2.5737,2.6451,2.6851,2.7015,2.7169,2.7238,2.7284,2.7392,2.7402,2.7264,2.6014,2.5481,2.5367,0.0,0.0,0.0,0.0,0.0,0.0,0.0,0.0,0.0,0.0,3.5788,3.5727,3.5637,3.5596,3.5554,3.5519,3.4523,3.3683,3.3154,3.2057,3.1202,3.0645,3.0625,3.0623,3.0577,3.0576,3.0557,3.053,3.055,3.051,3.0367,3.0462,3.0439,3.0273,3.0337,3.0271,3.015,3.0216,3.0228,3.0171,3.0176,3.0147,2.9999,2.8807,2.9017,2.9722,2.8152,2.7717,2.788,2.7578,2.7672,2.7995,2.8482,2.8874,2.993,3.375,3.3609,3.1336,2.7146,2.5924,0.0,2.1777,1.9641,1.8539,1.9117,1.8967,1.8312,1.6905,1.6679,1.6868,1.7309,1.7339,1.7368,1.7388,1.729,1.7351,1.7739,1.8164,1.8813,1.9903,2.0792,2.0854,1.9781,1.9672,1.9749,2.0074,2.0159,2.0603,2.1602,2.1979,2.2726,2.3846,2.3741,2.4175,2.5297,2.5106,2.5479,2.6282,2.6251,2.6396,2.6725,2.7052,2.7465,2.7907,2.8146,2.8378,2.8559,2.8698,2.8779,2.8803,2.8641,2.8617,2.8576,2.8275,2.7769,2.7221,0.0,0.0,0.0,0.0,0.0,0.0,0.0,0.0,0.0,0.0,0.0,0.0,0.0,3.5483,3.5445,3.5311,3.5402,3.4706,3.3014,3.2987,3.225,3.0488,3.0469,3.0521,3.0499,3.0499,3.053,3.0598,3.053,3.0441,3.0306,3.0309,3.0163,2.9927,2.9984,3.0007,3.0003,3.0087,3.0098,3.0094,3.0106,3.0029,2.9912,3.0009,2.9883,2.951,2.7884,2.8131,2.9213,2.901,2.8854,2.8815,2.9083,3.0552,3.2337,3.3214,3.4957,3.5893,3.2538,2.8722,2.4912,2.1614,1.8164,1.5542,1.5714,1.6123,1.6325,1.5753,1.5966,1.625,1.64,1.6364,1.6526,1.7103,1.6852,1.6874,1.7838,1.8265,1.8902,2.0074,2.1713,2.2721,0.0,2.151,2.0858,2.1046,2.1778,2.2676,2.3656,2.4511,2.5086,2.52,2.5929,2.647,2.6913,2.7567,2.8192,2.8804,2.8639,2.8858,2.9297,2.9568,2.9947,3.0366,3.0408,3.0575,3.0918,3.1044,3.1083,3.1083,3.0714,3.0633,3.0551,3.0251,2.9046,2.7573,0.0,0.0,0.0,0.0,0.0,0.0,0.0,0.0,0.0,0.0,0.0,0.0,0.0,0.0,0.0,0.0,3.4879,3.463,3.4552,3.3111,3.2188,3.2061,3.1006,3.0433,3.0433,3.0383,3.0394,3.0466,3.0499,3.0386,3.0171,3.026,3.0136,2.9851,2.9899,2.9921,2.9857,2.994,2.9975,2.9975,2.9969,3.0311,3.0774,3.0131,3.0903,3.2145,0.0,3.0866,3.111,3.0787,3.0877,3.1177,3.1144,3.147,3.2236,3.395,3.4279,3.339,3.0166,2.6359,2.2485,1.9219,1.6938,1.5474,1.5531,1.6035,1.6475,1.6633,1.8595,2.0395,2.0724,2.0784,2.0876,2.1059,1.9462,1.8495,1.9371,1.9952,2.0906,2.2789,2.3803,0.0,0.0,0.0,0.0,2.3641,2.3937,2.4503,2.5345,2.5824,2.6411,2.7154,2.7557,2.7936,2.8271,2.8482,2.8839,2.9312,2.9476,2.9678,2.9947,3.0179,3.0419,3.0721,3.0807,3.0986,3.1179,3.1213,3.1213,3.1257,3.1078,3.1015,3.1015,3.0895,3.0416,2.9781,0.0,0.0,0.0,0.0,0.0,0.0,0.0,0.0,0.0,0.0,0.0,0.0,0.0,0.0,0.0,0.0,0.0,3.499,3.4908,3.3997,3.3415,3.33,3.2564,3.2129,3.2075,3.2043,3.2196,3.2549,3.168,3.1322,3.1397,3.0529,2.9992,2.9769,2.9786,2.977,2.9755,3.0177,3.0532,3.08,3.0812,3.1341,3.2008,3.1393,3.2147,0.0,3.3161,3.2972,3.2821,3.2538,3.2651,3.2929,3.2939,3.3136,3.3415,3.3907,3.3529,3.2055,2.7881,2.4611,2.164,1.8546,1.6732,1.5882,1.6332,1.6539,1.6784,1.7353,1.9972,2.2344,2.2832,2.2936,2.3328,2.4497,2.2353,2.0904,2.1888,2.2706,2.3537,2.45,2.5447,2.6167,0.0,0.0,0.0,2.5461,2.5614,2.6103,2.6952,2.7218,2.7677,2.8427,2.8638,2.8858,2.9155,2.9147,2.9345,2.9738,3.0145,3.0368,3.0475,3.0666,3.0838,3.0965,3.1134,3.1291,3.1393,3.1406,3.1445,3.1487,3.1329,3.1325,3.1325,3.1247,3.1151,3.1015,0.0,0.0,0.0,0.0,0.0,0.0,0.0,0.0,0.0,0.0,0.0,0.0,0.0,0.0,0.0,0.0,0.0,0.0,3.4235,3.5567,3.5739,3.4197,3.4878,3.5226,3.5102,3.5086,3.5465,3.6262,3.3898,3.3083,3.3737,3.1191,2.9975,2.9887,2.9795,2.9739,2.9795,3.0822,3.1686,3.2389,3.2465,3.2882,3.3507,3.356,3.3479,3.3458,3.4149,3.4295,3.418,3.418,3.3925,3.3709,3.4051,3.4997,3.5438,3.2859,3.2538,3.1799,2.606,2.3752,2.2275,1.9517,1.7574,1.6633,1.7867,1.7547,1.7257,1.8044,2.0296,2.2391,0.0,0.0,2.3911,2.706,2.5089,2.3659,2.4867,2.6022,2.627,0.0,0.0,0.0,0.0,0.0,0.0,2.6553,0.0,2.739,2.8427,2.8649,2.8821,2.9152,2.9146,2.9339,2.9761,2.9613,2.9774,3.0209,3.069,3.0892,3.0909,3.1123,3.1252,3.1334,3.144,3.1555,3.1617,3.1746,3.18,3.18,3.1593,3.1517,3.1479,3.1308,3.123,3.123,0.0,0.0,0.0,0.0,0.0,0.0,0.0,0.0,0.0,0.0,0.0,0.0,0.0,0.0,0.0,0.0,0.0,0.0,3.5859,3.5615,3.5577,3.5859,3.5318,3.5037,3.5092,3.5001,3.4774,3.4391,3.4444,3.4181,3.3638,3.3063,3.2688,3.2506,3.1938,3.1692,3.1693,3.1973,3.218,3.2314,3.2295,3.2807,3.3564,3.3421,3.3713,3.4204,3.4298,3.4096,3.3817,3.3781,3.2802,3.142,3.0122,3.0448,3.1086,2.9904,2.8763,2.7392,2.5203,2.263,2.0377,1.9293,1.8435,1.8012,1.8627,1.883,1.9532,2.1776,2.4669,2.741,0.0,0.0,0.0,2.8077,2.4634,0.0,2.3142,2.3884,0.0,2.5394,0.0,2.6329,2.679,2.7243,0.0,0.0,2.774,2.8334,2.8639,2.879,2.908,2.9611,2.952,2.9761,3.0266,3.0369,3.0339,3.0285,3.0858,3.1094,3.0965,3.1291,3.1462,3.1542,3.1559,3.1634,3.1746,3.18,3.18,3.18,3.1726,3.1726,3.1726,3.1688,3.1651,3.1651,0.0,0.0,0.0,0.0,0.0,0.0,0.0,0.0,0.0,0.0,0.0,0.0,0.0,0.0,0.0,0.0,0.0,0.0,0.0,3.6025,3.6349,3.6881,3.7014,3.6936,3.6594,3.6856,3.6587,3.5757,3.5551,3.5211,3.4718,3.3673,3.3143,3.3052,3.2543,3.2298,3.2298,3.2713,3.3053,0.0,0.0,3.3828,3.4504,3.3944,3.3973,3.4339,3.4447,3.3844,3.2835,3.1706,3.0854,3.0071,2.8929,2.9187,2.9617,2.7987,2.6882,2.5723,2.3565,2.1703,2.027,1.9809,1.9282,1.9339,2.1121,2.1547,2.23,2.5185,2.8211,0.0,3.21,0.0,0.0,0.0,0.0,0.0,2.4274,2.5266,2.5841,0.0,2.6176,0.0,2.6917,2.7289,2.7494,0.0,2.8181,2.8623,2.8693,2.9131,2.9581,2.9955,2.9989,3.0203,3.0567,3.0697,3.0774,3.0711,3.1016,3.1218,3.123,3.1462,3.1559,3.1617,0.0,3.1746,3.18,3.18,3.18,3.18,3.18,3.18,3.18,3.1579,3.1542,3.1559,0.0,0.0,0.0,0.0,0.0,0.0,0.0,0.0,0.0,0.0,0.0,0.0,0.0,0.0,0.0,0.0,0.0,0.0,0.0,0.0,3.737,3.739,3.8977,3.9425,3.8524,3.9184,3.9025,3.8056,3.6738,3.6109,3.6141,3.3923,3.2919,3.2971,3.2676,3.2523,3.2503,3.3335,3.4031,3.463,3.4735,3.5111,3.549,0.0,3.417,3.4074,3.4363,3.3509,3.1827,2.9277,2.8683,2.8888,2.8553,2.8941,2.8984,2.6396,2.5726,2.5084,2.1801,2.1012,2.1009,2.0704,2.0178,2.0686,2.4129,2.4473,2.4995,2.8398,0.0,3.2706,3.3052,3.0891,2.9729,3.1756,0.0,2.5944,2.6218,2.7513,2.7754,2.5993,2.6679,2.7233,2.7158,2.7494,2.774,2.7771,2.8348,2.8679,2.8766,2.9496,3.0008,3.0248,3.0435,3.0606,3.0752,3.0897,3.1038,3.123,3.123,3.1346,3.1517,3.1521,3.1579,3.1617,0.0,0.0,3.18,3.18,3.18,3.1819,3.18,3.18,3.1709,3.1278,3.1162,3.1179,0.0,0.0,0.0,0.0,0.0,0.0,0.0,0.0,0.0,0.0,3.3704,3.3842,0.0,0.0,0.0,0.0,0.0,0.0,0.0,0.0,0.0,3.739,3.8863,3.9303,3.8524,3.8545,3.7821,3.6343,3.6757,3.6672,3.6119,3.5722,3.5514,3.5456,3.4794,3.4434,3.4337,3.4508,3.4622,3.4679,3.4653,3.4607,3.4539,3.429,0.0,0.0,3.3468,3.3177,3.2493,2.9546,2.7726,2.6451,2.503,2.4687,2.4552,2.3509,2.3023,2.2526,2.1379,2.1098,2.1098,2.117,2.1185,2.2,2.4888,2.5137,0.0,0.0,3.2422,3.3259,3.5452,3.3651,3.1364,2.9816,0.0,0.0,0.0,0.0,2.5783,0.0,0.0,0.0,0.0,0.0,0.0,0.0,0.0,0.0,2.9139,2.9263,2.9675,3.0415,3.0701,3.0938,3.1083,3.1134,3.1213,3.1257,3.1466,3.1521,3.1479,3.1257,3.1411,3.1746,0.0,0.0,3.18,3.18,3.1819,3.1875,3.1819,3.1709,3.1521,3.1334,3.1083,3.0868,0.0,0.0,0.0,0.0,0.0,0.0,0.0,3.2177,3.2608,3.3796,3.4282,3.4535,3.4571,3.5262,3.5721,0.0,0.0,0.0,0.0,0.0,0.0,0.0,3.7694,3.7953,3.7152,3.7479,3.6878,3.5227,0.0,3.601,3.527,3.5296,3.5317,3.5299,3.4944,3.4774,3.4737,3.4655,3.4615,3.4542,3.4475,3.4298,3.4083,3.3934,0.0,0.0,3.3196,3.3055,3.2997,3.0725,2.8241,2.5804,2.4119,2.357,2.3422,2.2775,2.2548,2.2226,2.0995,2.0998,2.1298,2.0983,2.1236,2.2621,2.6564,0.0,0.0,0.0,3.4599,3.4891,3.6174,3.4411,0.0,3.1043,0.0,0.0,0.0,0.0,0.0,0.0,0.0,0.0,0.0,0.0,0.0,0.0,0.0,0.0,3.0077,3.0822,3.1506,3.2085,3.2244,3.2369,3.253,3.2128,3.2008,3.2124,3.1598,3.1389,3.1483,3.1044,3.1004,3.1257,3.1162,0.0,3.1634,3.1765,3.1875,3.1894,3.1929,3.1746,3.1389,3.114,3.0845,3.0518,0.0,0.0,0.0,0.0,0.0,0.0,0.0,3.242,3.3039,3.4037,3.4674,3.502,3.5039,3.5723,3.6178,0.0,0.0,0.0,0.0,0.0,0.0,0.0,0.0,0.0,3.5916,0.0,0.0,3.4561,3.5105,0.0,0.0,0.0,0.0,0.0,3.4538,3.4579,3.46,3.4494,3.4433,0.0,0.0,3.4101,0.0,0.0,0.0,0.0,0.0,3.3406,3.3802,3.2048,2.9772,2.7322,2.5576,2.4507,2.3891,2.3304,2.3173,2.2782,2.0898,2.0904,2.134,2.0896,2.1222,2.2979,2.8045,2.9035,0.0,3.5163,3.6222,3.6249,3.6217,3.4805,3.3431,0.0,3.047,2.8529,0.0,0.0,0.0,0.0,0.0,0.0,0.0,0.0,0.0,0.0,0.0,0.0,3.1121,3.2386,3.3246,3.3482,3.3541,3.3584,3.3634,3.2995,3.2719,3.2781,3.1867,3.1472,3.1494,3.0957,3.0734,3.0788,3.0885,0.0,0.0,3.16,3.1657,3.1711,3.1912,3.1617,3.11,3.0925,3.0559,3.0123,0.0,0.0,0.0,0.0,0.0,0.0,0.0,3.3165,3.3249,3.4786,3.5054,3.5058,3.4926,3.5645,3.6116,0.0,0.0,0.0,0.0,0.0,0.0,0.0,0.0,0.0,0.0,0.0,0.0,3.4427,3.434,0.0,0.0,0.0,0.0,0.0,0.0,3.4379,3.4349,3.4326,0.0,0.0,0.0,0.0,0.0,0.0,0.0,0.0,0.0,3.454,3.5273,3.3093,3.2513,3.2267,3.0243,2.7705,2.5448,2.514,0.0,0.0,2.1372,2.0811,2.0988,2.1572,2.1753,2.3131,2.8292,0.0,2.9833,3.4955,3.6101,3.6104,3.5884,3.6,3.5314,3.2758,3.2671,3.181,2.8494,0.0,0.0,0.0,0.0,0.0,0.0,0.0,0.0,0.0,0.0,0.0,0.0,3.2652,3.3156,3.3222,3.3285,3.3261,3.3091,3.3007,3.2811,3.2542,3.2415,3.2154,3.1683,3.1194,3.0919,3.0804,0.0,0.0,0.0,3.0885,3.0965,3.1123,3.1428,3.114,3.0601,3.0885,3.0535,2.9805,0.0,0.0,0.0,0.0,0.0,0.0,3.3738,3.3261,3.3271,3.4901,3.5075,3.5001,3.4908,3.5586,3.6015,3.5993,0.0,0.0,0.0,0.0,0.0,0.0,0.0,0.0,0.0,0.0,3.4712,3.4269,3.4152,0.0,0.0,0.0,0.0,0.0,0.0,3.4162,3.424,3.4106,0.0,0.0,0.0,0.0,0.0,0.0,0.0,0.0,0.0,0.0,3.5284,3.4311,3.3406,3.2739,3.3367,3.1712,2.9021,2.6236,2.5083,2.408,2.1121,2.0283,2.031,2.0713,2.2019,2.4214,2.8,0.0,3.1655,3.5001,3.5836,3.5865,3.5591,3.5928,3.5786,3.438,3.4076,3.3487,3.2045,0.0,0.0,0.0,0.0,0.0,0.0,0.0,0.0,0.0,0.0,0.0,0.0,3.342,3.367,3.3806,3.3985,3.4097,3.4064,3.3706,3.3411,3.3243,3.2648,3.1982,3.1396,3.0907,3.049,3.013,0.0,0.0,0.0,3.0845,3.0965,3.1021,3.1179,3.0656,2.9806,2.9928,2.9338,2.8446,0.0,0.0,0.0,0.0,0.0,3.1713,3.37,3.3261,3.3271,3.4864,3.502,3.4983,3.4908,3.5359,3.5656,3.5614,3.643,0.0,0.0,0.0,0.0,0.0,0.0,0.0,0.0,0.0,3.4269,3.4141,3.4049,3.3963,0.0,0.0,3.3925,3.3962,0.0,0.0,0.0,0.0,0.0,0.0,0.0,0.0,0.0,0.0,0.0,0.0,0.0,0.0,0.0,0.0,0.0,3.3523,3.5077,3.4438,3.2386,2.8559,2.6723,2.5163,2.202,2.0577,2.004,2.0224,2.2272,2.5014,0.0,0.0,3.2702,3.4973,3.5548,3.5562,3.5307,3.5634,3.5814,3.5418,3.5231,3.4997,3.4673,3.2966,0.0,0.0,0.0,0.0,0.0,0.0,0.0,0.0,0.0,0.0,0.0,3.3425,3.3827,3.4284,3.4513,3.4627,3.4593,3.4114,3.3804,3.3661,3.2885,3.2077,3.1232,3.0987,3.0396,2.9697,0.0,0.0,0.0,3.0344,3.0366,3.0349,3.0314,2.9692,2.8854,2.9213,2.8739,2.7962,0.0,0.0,0.0,0.0,0.0,0.0,3.3605,3.3261,3.3236,3.4792,3.5001,3.4964,3.4907,3.4906,3.4906,3.4906,3.5663,0.0,0.0,0.0,0.0,0.0,0.0,0.0,0.0,0.0,3.4141,3.3987,3.3921,3.3862,3.3788,3.3807,3.3844,3.3907,0.0,0.0,0.0,0.0,0.0,0.0,0.0,0.0,0.0,0.0,0.0,0.0,0.0,0.0,0.0,0.0,0.0,0.0,0.0,3.5275,3.5088,3.2731,2.9943,2.7124,2.4638,2.2192,2.0372,2.0422,2.249,2.5295,0.0,3.0038,3.2217,3.4796,3.5311,3.5228,3.4947,3.5304,3.5537,3.5321,3.6289,3.6697,3.5538,3.5489,0.0,0.0,0.0,0.0,0.0,0.0,0.0,0.0,0.0,0.0,0.0,3.2423,3.3208,3.4487,3.4574,3.4428,3.4101,3.4084,3.3832,3.3293,3.3277,3.2602,3.1388,3.1517,3.0909,0.0,0.0,0.0,0.0,2.914,2.8832,2.8809,2.852,2.8162,2.7843,2.8999,2.9157,2.8773,0.0,0.0,0.0,0.0,0.0,0.0,0.0,3.3296,3.3625,3.4127,3.466,3.4983,3.4908,3.4908,3.4889,3.4851,3.5115,0.0,0.0,0.0,0.0,0.0,0.0,0.0,0.0,0.0,3.4078,3.3987,3.3921,3.388,3.3862,3.377,3.3752,3.3752,3.3529,3.3487,0.0,0.0,0.0,0.0,0.0,0.0,0.0,0.0,0.0,0.0,0.0,0.0,0.0,0.0,0.0,0.0,0.0,0.0,0.0,3.327,3.1687,2.9769,2.7228,2.5467,2.4379,2.4455,2.6564,2.8826,2.9706,3.2201,3.4497,3.5153,3.5345,3.5333,3.5077,3.5171,3.5318,3.5618,3.6267,3.6885,0.0,0.0,0.0,0.0,0.0,0.0,0.0,0.0,0.0,0.0,0.0,0.0,0.0,3.2422,3.281,3.3171,3.3555,3.367,3.3555,3.3555,3.345,3.3309,3.3309,3.2871,3.2019,3.1757,0.0,0.0,0.0,0.0,0.0,2.9022,2.9022,2.9448,2.8216,2.8037,2.8352,2.7535,2.7163,2.6992,0.0,0.0,0.0,0.0,0.0,0.0,0.0,3.3018,3.3422,3.3657,3.4434,3.4908,3.4773,3.4793,3.4794,3.4718,3.4773,0.0,0.0,0.0,0.0,0.0,0.0,0.0,3.4166,3.4128,3.4069,3.4012,3.3954,3.4083,3.4312,3.3915,3.3872,3.4087,3.3491,3.3268,0.0,0.0,0.0,0.0,0.0,0.0,3.2949,0.0,0.0,0.0,0.0,0.0,0.0,0.0,0.0,0.0,0.0,0.0,0.0,0.0,3.2365,3.138,2.9011,2.718,2.5965,2.6031,2.8311,0.0,3.0259,3.2971,3.5419,3.4968,3.5144,3.5291,3.506,3.5008,3.5118,3.534,3.6241,3.6834,0.0,0.0,0.0,0.0,0.0,0.0,0.0,0.0,0.0,0.0,0.0,0.0,0.0,0.0,3.2578,3.2578,3.3024,3.3193,3.3193,3.3277,3.3309,3.3309,3.3309,3.2945,3.2285,3.1804,0.0,0.0,0.0,0.0,0.0,2.9022,2.9006,2.934,2.8033,2.7695,2.7817,2.704,2.6542,2.627,0.0,0.0,0.0,0.0,0.0,0.0,0.0,3.2545,3.2762,3.3355,3.4225,3.4716,3.4532,3.4615,3.466,3.4605,0.0,0.0,0.0,0.0,0.0,0.0,0.0,0.0,3.4104,3.4104,3.4055,3.3999,3.4,3.4314,3.4883,3.4115,3.4076,3.4636,3.3562,3.3073,3.3041,0.0,0.0,0.0,0.0,0.0,0.0,0.0,0.0,0.0,0.0,0.0,0.0,0.0,0.0,0.0,0.0,0.0,0.0,0.0,0.0,0.0,0.0,2.7819,2.6046,2.6061,2.8471,3.0623,2.9959,3.2725,0.0,3.4372,3.4686,3.5063,3.4899,3.4881,3.4839,3.4733,3.6117,0.0,0.0,0.0,0.0,0.0,0.0,0.0,0.0,0.0,0.0,0.0,0.0,0.0,0.0,0.0,3.2616,3.2616,3.2926,3.3077,3.3077,3.3208,3.3309,3.3309,3.3309,3.2945,3.2301,3.1688,0.0,0.0,0.0,0.0,0.0,2.9032,2.8773,2.8773,2.7858,2.7171,2.6704,2.7235,2.6928,2.6382,0.0,0.0,0.0,0.0,0.0,0.0,0.0,0.0,0.0,0.0,3.3278,3.3972,3.4527,3.4597,3.4578,0.0,0.0,0.0,0.0,0.0,0.0,0.0,0.0,0.0,3.403,3.3969,3.3901,3.3844,3.3845,3.3876,3.3907,3.3538,3.3396,3.3467,3.2955,3.2733,3.27,3.2521,0.0,0.0,0.0,0.0,0.0,0.0,0.0,0.0,3.1678,3.1456,0.0,0.0,0.0,0.0,0.0,0.0,0.0,0.0,3.0511,3.0615,2.9918,0.0,3.1364,3.1506,3.2144,3.2696,0.0,3.3624,3.4651,3.4276,3.4655,3.4987,3.4655,3.4504,3.4568,3.4963,3.5801,0.0,0.0,0.0,0.0,0.0,0.0,0.0,0.0,0.0,0.0,0.0,0.0,0.0,0.0,0.0,3.2624,3.261,3.2834,3.2973,3.2973,3.3071,3.314,3.3143,3.3272,3.2945,3.2285,3.1803,0.0,0.0,0.0,0.0,2.9821,2.8414,2.8585,2.9372,2.6752,2.6679,2.7911,2.6222,2.5879,2.6174,0.0,0.0,0.0,0.0,0.0,0.0,0.0,0.0,0.0,0.0,0.0,3.4073,3.4339,3.4423,0.0,0.0,0.0,0.0,0.0,0.0,0.0,0.0,0.0,3.3986,3.3906,3.3832,3.3773,3.3715,3.368,3.3744,3.3907,3.3382,3.3248,3.3405,3.2741,3.2426,3.2388,3.2354,3.2213,3.2107,3.197,0.0,0.0,0.0,0.0,0.0,3.1099,3.0817,0.0,3.0599,3.0551,3.0452,0.0,0.0,0.0,0.0,2.9531,2.9605,2.9502,3.0831,3.226,3.2309,3.2529,3.2664,3.2454,3.2992,3.3512,3.336,3.384,3.43,3.4252,3.3501,3.3403,3.4836,3.4291,0.0,0.0,0.0,0.0,0.0,0.0,0.0,0.0,0.0,0.0,0.0,0.0,0.0,0.0,0.0,3.2539,3.2501,3.2672,3.2866,3.2996,3.314,3.3208,3.3165,3.3256,3.2945,3.2301,3.1704,0.0,0.0,0.0,0.0,2.9722,2.8817,2.9005,2.9592,2.7496,2.7173,2.779,2.649,2.6068,2.6075,0.0,0.0,0.0,0.0,0.0,0.0,0.0,0.0,0.0,0.0,0.0,0.0,0.0,0.0,0.0,0.0,0.0,0.0,0.0,0.0,0.0,0.0,3.388,3.3844,3.3733,3.3607,3.3524,3.3442,3.3406,3.3602,3.4021,3.3316,3.3184,3.3494,3.2634,3.2214,3.2109,3.2159,3.2083,3.1886,3.1854,0.0,0.0,0.0,0.0,0.0,0.0,0.0,0.0,3.0234,3.0156,3.0006,2.9798,0.0,0.0,0.0,0.0,0.0,2.9077,2.9796,3.0548,3.0943,3.1511,3.1851,3.1447,3.1924,3.2425,3.2256,3.2869,3.3405,3.3275,3.2415,0.0,0.0,0.0,0.0,0.0,0.0,0.0,0.0,0.0,0.0,0.0,0.0,0.0,0.0,0.0,0.0,0.0,0.0,0.0,3.2453,3.2578,3.278,3.3093,3.3208,3.3256,3.3256,3.3309,3.2882,3.2092,3.1492,3.0845,0.0,0.0,0.0,2.9637,2.9451,2.9467,2.9572,2.8666,2.7912,2.7349,2.7254,2.6757,2.6235,0.0,0.0,0.0,0.0,0.0,0.0,0.0,0.0,0.0,0.0,0.0,0.0,0.0,0.0,0.0,0.0,0.0,0.0,0.0,0.0,0.0,3.3103,3.3295,3.3386,3.3368,3.3069,3.2898,3.276,3.2791,3.2809,3.2787,3.2528,3.2403,3.2347,3.2189,3.2125,3.2091,3.2109,3.2003,3.1797,3.1647,0.0,0.0,0.0,0.0,0.0,0.0,0.0,0.0,2.9805,2.9633,2.9435,2.9264,0.0,0.0,0.0,0.0,0.0,2.9221,2.8243,2.7735,3.0527,3.1693,3.2157,3.2062,3.2434,3.2611,3.1935,3.2885,3.308,3.0556,3.2059,3.3239,0.0,0.0,0.0,0.0,0.0,0.0,0.0,0.0,0.0,0.0,0.0,0.0,0.0,0.0,0.0,0.0,0.0,0.0,3.2578,3.2773,3.2935,3.3081,3.315,3.315,3.315,3.3256,3.2629,3.1381,3.1255,3.056,0.0,0.0,2.9412,2.947,2.883,2.8942,2.939,2.7976,2.7683,2.8065,2.7347,2.6977,2.6832,0.0,0.0,0.0,0.0,0.0,0.0,0.0,0.0,0.0,0.0,0.0,0.0,0.0,0.0,0.0,0.0,0.0,0.0,0.0,0.0,3.3012,3.2855,3.2802,3.282,3.2909,3.2786,3.2546,3.2283,3.2301,3.2161,3.1917,3.179,3.1748,3.1783,3.1699,3.172,3.1841,3.1826,3.164,3.137,0.0,0.0,0.0,0.0,0.0,0.0,0.0,0.0,0.0,0.0,2.9182,2.9046,2.8794,0.0,0.0,0.0,0.0,0.0,2.8519,2.803,2.7587,2.7936,2.7623,2.7214,2.7372,2.7512,2.8026,2.9346,3.0339,3.0763,0.0,0.0,0.0,0.0,0.0,0.0,0.0,0.0,0.0,0.0,0.0,0.0,0.0,0.0,0.0,0.0,0.0,0.0,0.0,0.0,0.0,0.0,3.216,3.2384,3.2812,3.2951,3.3043,3.3203,3.3256,3.2771,3.1776,3.1397,3.0654,2.9768,0.0,2.9275,2.9335,2.8955,2.9003,2.9255,2.806,2.7782,2.8034,2.757,2.7651,2.7981,0.0,0.0,0.0,0.0,0.0,0.0,0.0,0.0,0.0,0.0,0.0,0.0,0.0,0.0,0.0,0.0,0.0,0.0,0.0,3.2701,3.2676,3.2641,3.2342,3.2308,3.2518,3.2414,3.2167,3.1888,3.1823,3.1641,3.1363,3.1257,3.1274,3.1432,3.128,3.1292,3.1448,3.1389,3.1173,3.0866,0.0,0.0,0.0,0.0,0.0,0.0,0.0,0.0,0.0,0.0,0.0,0.0,0.0,0.0,0.0,2.8235,2.8137,2.8118,2.8037,2.7801,2.7243,2.5921,2.5094,2.438,2.3455,2.381,2.4801,2.6587,2.7486,0.0,0.0,0.0,0.0,0.0,0.0,0.0,0.0,0.0,0.0,0.0,0.0,0.0,0.0,0.0,0.0,0.0,0.0,0.0,0.0,0.0,0.0,0.0,3.1446,3.1694,3.2222,3.2554,3.2886,3.3256,3.3256,3.2877,3.2183,3.1647,3.0937,3.0101,2.9564,2.9279,2.9198,2.9121,2.9121,2.912,2.837,2.8121,2.8091,2.8029,2.8311,2.8842,0.0,0.0,0.0,0.0,0.0,0.0,0.0,0.0,0.0,0.0,0.0,0.0,0.0,0.0,0.0,0.0,0.0,0.0,0.0,3.2433,3.2342,3.215,3.1992,3.2063,3.2308,3.1817,3.1573,3.1556,3.1348,3.1224,3.1208,3.1208,3.1208,3.1208,3.0941,3.0899,3.1022,3.0775,3.0626,3.0535,3.0284,0.0,0.0,0.0,0.0,0.0,0.0,0.0,0.0,0.0,0.0,0.0,0.0,0.0,2.8186,2.8186,2.8039,2.7976,2.8544,2.6805,2.504,2.6147,2.8094,2.8626,2.4189,2.5469,2.6976,2.4993,2.5254,0.0,0.0,0.0,0.0,0.0,0.0,0.0,0.0,0.0,0.0,0.0,0.0,0.0,0.0,0.0,0.0,0.0,0.0,0.0,0.0,0.0,0.0,0.0,0.0,3.1083,3.1115,3.1742,3.2437,3.3096,3.3096,3.2719,3.2013,3.1966,3.1228,3.0003,2.994,2.9532,2.892,2.8904,2.8889,2.8842,2.8732,2.8732,2.8716,2.8716,2.8764,2.8952,0.0,0.0,0.0,0.0,0.0,0.0,0.0,0.0,0.0,0.0,0.0,0.0,0.0,0.0,0.0,0.0,0.0,0.0,0.0,3.2106,3.2039,3.1934,3.1669,3.1566,3.1599,3.1544,3.1331,3.0998,3.0792,3.0724,3.0681,3.052,3.053,3.0625,3.0405,3.0399,3.0559,3.0425,3.0179,2.9924,2.9793,2.9483,0.0,0.0,0.0,0.0,0.0,0.0,0.0,0.0,2.8589,2.8444,2.8381,2.8235,2.8054,2.7989,2.789,2.7941,2.8516,2.6605,2.4808,2.6189,2.7229,2.6722,2.1952,2.2197,2.3554,2.4066,2.3864,0.0,0.0,0.0,0.0,0.0,0.0,0.0,0.0,0.0,0.0,0.0,0.0,0.0,0.0,0.0,0.0,0.0,0.0,0.0,0.0,0.0,0.0,0.0,0.0,3.02,3.0618,3.0866,3.1399,3.2189,3.2748,3.281,3.2529,3.2165,3.173,3.1228,3.082,3.0474,3.0174,3.0141,2.9793,2.9387,2.8966,2.8747,2.8684,2.8747,2.9092,2.9515,0.0,0.0,0.0,0.0,0.0,0.0,0.0,0.0,0.0,0.0,0.0,0.0,0.0,0.0,0.0,0.0,0.0,0.0,3.186,3.1847,3.1795,3.1802,3.1472,3.1242,3.1106,3.1172,3.1058,3.065,3.0405,3.0277,3.032,3.0011,2.9946,3.0113,2.9874,2.9858,3.0054,2.9913,2.9694,2.9348,2.9335,2.9152,0.0,0.0,0.0,0.0,0.0,0.0,0.0,0.0,2.8381,2.825,2.8137,2.8054,2.7905,2.784,2.733,2.6857,2.721,2.5945,2.4604,2.5108,2.5702,2.5009,2.0519,2.0689,2.1907,2.2343,2.2705,2.3609,2.5868,0.0,0.0,0.0,0.0,0.0,0.0,0.0,0.0,0.0,0.0,0.0,0.0,0.0,0.0,0.0,0.0,0.0,0.0,0.0,0.0,0.0,0.0,2.9419,2.9882,3.0048,3.0423,3.099,3.1958,3.2571,3.2757,3.2367,3.206,3.1842,3.1388,3.1076,3.0873,3.0772,3.0332,2.963,2.9149,2.8774,2.8541,2.8684,2.9152,2.9759,0.0,0.0,0.0,0.0,0.0,0.0,0.0,0.0,0.0,0.0,0.0,0.0,0.0,0.0,0.0,0.0,0.0,0.0,3.183,3.169,3.1627,3.1783,3.1458,3.1124,3.0787,3.0731,3.0606,3.0488,3.0147,3.0071,3.0201,2.9798,2.9677,2.9793,2.9425,2.938,2.947,2.9213,2.9013,2.8904,2.8904,2.8842,2.8794,0.0,0.0,0.0,0.0,0.0,0.0,0.0,2.8299,2.8348,2.8069,2.7905,2.7806,2.779,2.6243,2.4529,2.4543,2.4529,2.4171,2.2867,2.3983,2.4381,2.0389,2.1858,2.3058,1.9621,2.1631,2.4277,2.5163,0.0,0.0,0.0,0.0,0.0,0.0,0.0,0.0,0.0,0.0,0.0,0.0,0.0,0.0,0.0,0.0,0.0,0.0,0.0,0.0,0.0,0.0,0.0,2.8794,2.9304,2.958,2.9611,3.0788,3.179,3.2578,3.2594,3.2222,3.1641,3.1641,3.1254,3.0634,3.0618,3.013,2.9427,2.9427,2.9012,2.8411,2.8541,2.9022,2.9754,0.0,0.0,0.0,0.0,0.0,0.0,0.0,0.0,0.0,0.0,0.0,0.0,0.0,0.0,0.0,0.0,0.0,0.0,3.0888,3.0368,3.0207,3.0584,3.0286,3.0261,3.0573,3.019,3.0054,3.0168,3.0065,2.9962,2.9847,2.9531,2.9335,2.9289,2.9106,2.9044,2.9044,2.9013,2.8967,2.8904,2.8858,2.8779,2.8684,0.0,0.0,0.0,0.0,0.0,0.0,0.0,0.0,0.0,2.789,2.8071,2.8255,2.7825,2.752,2.7474,2.7983,2.528,0.0,2.5433,0.0,0.0,2.0097,2.0542,2.0665,1.9187,2.2091,2.4878,2.4879,0.0,0.0,0.0,0.0,0.0,0.0,0.0,0.0,0.0,0.0,0.0,0.0,0.0,0.0,0.0,0.0,0.0,0.0,0.0,0.0,0.0,0.0,0.0,2.8508,2.8693,2.8984,2.9462,3.0289,3.1059,3.1759,3.2362,3.247,3.2284,3.2284,3.2176,3.1944,3.1396,3.1019,3.0705,2.9867,2.9422,2.9252,2.9399,2.9884,3.0554,0.0,0.0,0.0,0.0,0.0,0.0,0.0,0.0,0.0,0.0,3.3009,3.2645,0.0,0.0,0.0,0.0,0.0,0.0,0.0,2.9431,2.9357,2.9971,2.9665,2.9766,3.0297,2.9814,2.9605,2.9621,2.9605,2.9515,2.9441,2.9167,2.8998,2.8951,2.8842,2.8795,2.8842,2.8873,2.8826,2.87,2.8636,2.8556,2.8348,0.0,0.0,0.0,0.0,0.0,0.0,0.0,0.0,0.0,2.774,2.7961,2.7935,2.6755,2.6674,2.6727,2.552,2.3364,0.0,2.2477,2.1055,1.9459,1.9315,0.0,0.0,0.0,0.0,2.4077,0.0,0.0,0.0,0.0,0.0,0.0,0.0,0.0,0.0,0.0,0.0,0.0,0.0,0.0,0.0,0.0,0.0,0.0,0.0,0.0,0.0,0.0,0.0,0.0,2.8411,2.8411,2.8611,2.9027,2.9704,3.0228,3.0643,3.1913,3.2523,3.2523,3.2523,3.2523,3.2492,3.2021,3.1628,3.1305,3.0608,3.013,2.9913,3.0014,3.0483,3.1104,0.0,0.0,0.0,0.0,0.0,0.0,0.0,0.0,0.0,0.0,3.2546,3.2196,0.0,0.0,0.0,0.0,0.0,0.0,0.0,2.8657,2.8814,2.9605,2.9497,2.9601,2.9957,2.9572,2.9257,2.9029,2.8967,2.8951,2.9044,2.8748,2.8636,2.8747,2.8636,2.859,2.8701,2.8748,2.8513,2.8179,2.8225,2.811,2.7815,2.7825,0.0,0.0,0.0,0.0,0.0,0.0,0.0,0.0,2.7625,2.767,2.7282,2.536,2.4665,2.3794,2.0128,2.0171,2.0373,1.6728,1.7492,0.0,1.83,1.8681,1.9528,2.0606,0.0,0.0,0.0,0.0,0.0,0.0,0.0,0.0,0.0,0.0,0.0,0.0,0.0,0.0,0.0,0.0,0.0,0.0,0.0,0.0,0.0,0.0,0.0,0.0,0.0,0.0,2.8411,2.8411,2.8411,0.0,2.9089,2.9412,2.9489,3.1428,3.2336,3.2398,3.2398,3.2398,3.2398,3.2398,3.2028,3.1474,3.1413,3.1028,3.052,3.0452,3.0837,3.1397,0.0,0.0,0.0,0.0,0.0,0.0,0.0,0.0,0.0,0.0,0.0,0.0,0.0,0.0,0.0,0.0,0.0,0.0,0.0,2.7169,2.725,2.825,2.9197,2.968,2.9556,2.9212,2.8889,2.8622,2.8811,2.8826,2.8716,2.8621,2.8477,2.8332,2.8284,2.8088,2.7705,2.758,2.7164,2.6565,2.6957,2.6928,2.6693,2.748,2.779,0.0,0.0,0.0,0.0,0.0,0.0,0.0,2.7625,2.7949,2.8181,2.7246,2.615,2.5091,2.4245,2.1627,0.0,1.9078,1.8187,1.7616,1.8848,1.9222,1.9596,2.0403,0.0,0.0,0.0,0.0,0.0,0.0,0.0,0.0,0.0,0.0,0.0,0.0,0.0,0.0,0.0,0.0,0.0,0.0,0.0,0.0,0.0,0.0,0.0,0.0,0.0,2.8411,2.8411,2.8411,2.8411,0.0,2.9089,2.9412,2.9458,3.0936,3.189,3.2398,3.2398,3.2398,3.2398,3.2398,3.2305,3.2121,3.1597,3.1305,3.1182,3.1091,3.1075,3.111,0.0,0.0,0.0,0.0,0.0,0.0,0.0,0.0,0.0,0.0,0.0,0.0,0.0,0.0,0.0,0.0,0.0,0.0,0.0,0.0,2.7077,2.834,2.9144,2.9496,2.9241,2.8716,2.8446,2.835,2.835,2.8365,2.8299,2.8235,2.8137,2.7989,2.8103,2.7659,2.694,2.7052,2.6516,2.5615,2.5848,2.579,2.5654,2.6155,2.6614,2.6946,2.7175,0.0,0.0,0.0,0.0,0.0,0.0,0.0,2.7906,2.6878,2.6703,2.6207,2.3395,2.1494,0.0,1.8903,0.0,1.7269,1.9328,1.9687,1.9879,0.0,0.0,0.0,0.0,0.0,0.0,0.0,0.0,0.0,0.0,0.0,0.0,0.0,0.0,0.0,0.0,0.0,0.0,0.0,0.0,0.0,0.0,0.0,0.0,0.0,2.8411,2.8411,2.8411,2.8411,2.8411,2.8411,2.8765,2.9104,2.9443,3.0458,3.1289,3.1905,3.1905,3.1925,3.1992,3.1992,3.1751,3.1477,3.1091,3.0941,3.0998,3.1084,3.1099,3.1144,0.0,0.0,0.0,0.0,0.0,0.0,0.0,0.0,0.0,0.0,0.0,0.0,0.0,0.0,0.0,0.0,0.0,0.0,0.0,0.0,0.0,2.8705,2.9045,2.9106,2.8889,2.8268,2.8005,2.8039,2.784,2.7806,2.7855,2.779,2.774,2.769,2.7685,2.715,2.6198,2.6402,2.5792,2.4707,2.4794,2.4742,2.4641,2.4742,2.5301,2.6051,2.6194,2.6708,2.7395,2.756,0.0,0.0,0.0,0.0,2.7458,2.6375,2.6808,2.663,2.1933,2.132,2.1217,1.7954,1.7112,0.0,1.9907,2.0183,0.0,0.0,0.0,0.0,0.0,0.0,0.0,0.0,0.0,0.0,0.0,0.0,0.0,0.0,0.0,0.0,0.0,0.0,0.0,0.0,0.0,0.0,0.0,0.0,2.8411,2.8411,2.8411,2.8411,2.8411,2.8411,2.8411,2.8411,2.8411,2.8704,2.9258,2.9812,3.0551,3.1382,3.1275,3.1329,3.148,3.1364,3.0999,3.0524,3.0524,3.045,3.045,3.0703,3.094,3.1116,0.0,0.0,0.0,0.0,0.0,0.0,0.0,0.0,0.0,0.0,2.9357,2.916,0.0,0.0,0.0,0.0,0.0,0.0,0.0,0.0,0.0,2.8093,2.8669,2.8668,2.7974,2.8005,2.7806,2.7321,2.7386,2.7386,2.7335,2.7524,2.7473,2.7255,2.6692,2.6022,2.5342,2.4749,2.39,2.3057,2.3525,2.3612,2.3635,2.4471,2.5039,2.5368,2.5497,2.5946,2.651,2.6722,2.7061,0.0,0.0,0.0,2.8011,2.8284,2.6797,2.5068,2.5298,0.0,2.0256,0.0,1.813,1.8965,0.0,0.0,0.0,0.0,0.0,0.0,0.0,0.0,0.0,0.0,0.0,0.0,0.0,0.0,0.0,0.0,0.0,0.0,0.0,0.0,0.0,0.0,0.0,0.0,0.0,2.8411,2.8411,2.8411,2.8411,2.8411,2.8411,2.8411,2.8411,2.8411,2.8411,2.8458,2.855,2.8642,2.9673,3.1382,3.084,3.0923,3.1422,3.0881,3.0584,3.0524,3.0524,3.0375,3.0225,3.0133,3.0329,3.0584,0.0,0.0,0.0,0.0,0.0,0.0,0.0,0.0,0.0,0.0,0.0,2.8053,0.0,0.0,0.0,0.0,0.0,0.0,0.0,0.0,0.0,2.7936,2.8373,2.8396,2.7905,2.7379,2.7215,2.7423,2.6544,2.6409,2.6893,2.663,2.6762,2.7167,2.6821,2.5965,2.4805,2.4481,2.3488,2.2231,2.2621,2.2035,2.1143,2.2932,2.3263,2.2879,2.4225,2.5435,2.6475,2.6669,2.7184,2.7806,2.8039,0.0,0.0,0.0,2.7986,2.6877,2.5336,2.2538,1.9732,0.0,1.8754,1.9552,2.1049,0.0,0.0,0.0,0.0,0.0,0.0,0.0,0.0,0.0,0.0,0.0,0.0,0.0,0.0,0.0,0.0,0.0,0.0,0.0,0.0,0.0,0.0,0.0,2.8363,2.8411,2.8411,2.8411,2.8411,2.8411,2.8411,2.8411,2.8411,2.8411,2.8073,2.791,2.791,2.758,2.8686,3.0791,3.0157,3.0283,3.0881,3.0194,2.9718,2.9435,2.9435,2.9359,2.9282,2.9345,2.9484,2.9685,0.0,0.0,0.0,0.0,0.0,0.0,0.0,0.0,0.0,0.0,0.0,0.0,0.0,0.0,0.0,0.0,0.0,0.0,0.0,0.0,0.0,0.0,2.7952,2.8033,2.7855,2.7096,2.6892,2.722,2.6007,2.5824,2.6541,2.5959,2.6177,2.7063,2.6784,2.5843,2.4476,2.4255,2.3413,2.211,2.1623,2.0486,1.9307,2.0651,2.0641,2.0168,2.2582,2.4346,0.0,0.0,0.0,0.0,2.8137,2.8088,0.0,0.0,0.0,2.8662,0.0,0.0,2.1301,1.9915,2.007,2.082,0.0,0.0,0.0,0.0,0.0,0.0,0.0,0.0,0.0,0.0,0.0,0.0,0.0,0.0,0.0,0.0,0.0,0.0,0.0,0.0,0.0,0.0,0.0,0.0,2.8348,2.8411,2.8411,2.8411,2.8411,2.8411,2.8411,2.8411,2.8299,2.8186,2.773,2.7414,2.7297,2.6886,2.7779,2.9667,2.9183,2.9332,2.9992,2.9462,2.8994,2.8573,2.836,2.8292,2.8265,2.8166,2.8384,2.8711,0.0,0.0,0.0,0.0,0.0,0.0,0.0,0.0,0.0,0.0,0.0,0.0,2.6989,2.6227,2.5632,2.5702,2.5637,2.5718,0.0,0.0,0.0,0.0,0.0,0.0,2.7437,2.7494,2.713,2.6267,2.6293,2.6308,2.6203,2.6073,2.6229,2.6707,2.5972,2.525,2.444,2.37,2.3271,2.2916,2.032,1.9256,1.9117,1.7611,1.714,1.7675,2.0513,0.0,0.0,0.0,0.0,0.0,0.0,0.0,2.7926,0.0,0.0,0.0,0.0,2.6068,0.0,2.2824,2.2698,0.0,0.0,0.0,0.0,0.0,0.0,0.0,0.0,0.0,0.0,0.0,0.0,0.0,0.0,0.0,0.0,0.0,0.0,0.0,0.0,0.0,0.0,0.0,0.0,0.0,2.8348,2.8411,2.8411,2.8411,2.8411,2.8411,2.8411,2.8411,2.8122,2.7565,2.7515,2.7246,2.673,2.673,2.7094,2.7817,2.7755,2.8116,2.8806,2.8724,2.8651,2.8532,2.7632,2.734,2.7337,2.6538,2.6845,2.7727,0.0,0.0,0.0,0.0,0.0,0.0,0.0,0.0,0.0,0.0,0.0,0.0,0.0,2.5799,2.5578,2.5502,2.5294,2.5156,2.5242,0.0,0.0,0.0,0.0,0.0,2.7524,2.7056,2.6515,2.5893,2.5126,2.4664,2.4436,2.4241,2.4297,2.4609,2.5105,2.5128,2.4638,2.3362,2.2817,2.2537,1.9927,1.8189,1.7263,1.866,1.7594,0.0,0.0,0.0,0.0,0.0,0.0,0.0,0.0,0.0,0.0,0.0,0.0,0.0,0.0,0.0,0.0,2.4797,2.43,2.4231,0.0,0.0,0.0,0.0,0.0,0.0,0.0,0.0,0.0,0.0,0.0,0.0,0.0,0.0,0.0,0.0,0.0,0.0,0.0,0.0,0.0,0.0,0.0,0.0,2.8348,2.8411,2.8411,2.8411,2.8411,2.8186,2.7845,2.7845,2.753,2.699,2.6654,2.6336,2.619,2.5797,2.5758,2.5995,2.6133,2.6795,2.7806,2.7523,2.7323,2.7095,2.6756,2.68,2.691,2.6326,2.6303,2.6654,0.0,0.0,0.0,0.0,0.0,0.0,0.0,0.0,0.0,2.5783,0.0,0.0,0.0,0.0,2.5355,2.5224,2.4895,2.4639,2.4533,2.4718,2.5118,2.5787,0.0,0.0,2.7327,2.6503,2.5762,2.5128,2.4129,2.349,2.322,2.3069,2.3234,2.3724,2.4156,2.4535,2.4819,2.3751,2.334,2.305,1.9592,1.7993,1.7701,1.8288,0.0,0.0,0.0,0.0,0.0,0.0,0.0,0.0,0.0,0.0,0.0,0.0,0.0,0.0,2.6848,0.0,0.0,0.0,0.0,2.6107,0.0,0.0,0.0,0.0,0.0,0.0,0.0,0.0,0.0,0.0,0.0,0.0,0.0,0.0,0.0,0.0,0.0,0.0,0.0,0.0,0.0,0.0,0.0,0.0,2.8073,2.8299,2.8299,2.8122,2.791,2.7645,2.7261,2.7246,2.6953,2.6443,2.6096,2.5784,2.5564,2.5174,2.4948,2.4848,2.5052,2.5711,2.6622,2.6519,2.6382,2.6158,2.5836,2.5892,2.6136,2.5485,2.5354,2.5576,0.0,0.0,0.0,0.0,0.0,0.0,0.0,0.0,2.6294,2.5707,0.0,0.0,0.0,0.0,0.0,2.4815,2.4508,2.4234,2.4024,2.3882,2.4341,2.5525,2.5221,0.0,2.6842,2.5943,2.4938,2.3955,2.3414,2.2958,2.2622,2.2622,2.3271,2.4297,2.3104,2.346,2.4952,2.4752,2.4805,2.4521,0.0,1.8566,2.0397,0.0,0.0,0.0,1.8483,1.8759,0.0,1.9055,0.0,0.0,0.0,0.0,0.0,0.0,0.0,0.0,0.0,0.0,0.0,0.0,0.0,0.0,2.6655,0.0,0.0,0.0,0.0,0.0,0.0,0.0,0.0,0.0,0.0,0.0,0.0,0.0,0.0,0.0,0.0,0.0,0.0,0.0,0.0,0.0,0.0,2.7464,2.7464,2.8024,2.8073,2.7515,2.699,2.6678,2.6678,2.6678,2.639,2.5893,2.5893,2.5564,2.5005,2.5005,2.4821,2.4509,2.4509,2.4829,2.5342,2.5709,2.5834,2.5707,2.4839,2.4693,2.487,2.3953,2.3914,2.4387,0.0,0.0,0.0,0.0,0.0,2.8013,2.7396,2.7189,2.6894,0.0,0.0,0.0,2.6253,2.5527,2.5013,2.4815,2.441,2.4135,2.4024,2.3668,2.3866,2.4821,2.4955,2.5458,2.6394,2.6263,2.5275,2.3341,2.333,2.2454,2.0744,2.1232,2.1847,2.243,2.211,2.265,2.3733,2.2738,2.2977,2.3519,1.7968,1.6602,0.0,0.0,0.0,0.0,0.0,1.7275,1.8873,0.0,2.0563,2.495,0.0,0.0,0.0,0.0,0.0,0.0,2.6862,0.0,0.0,0.0,0.0,0.0,2.8843,2.6917,0.0,0.0,0.0,0.0,0.0,0.0,0.0,0.0,0.0,0.0,0.0,0.0,0.0,0.0,0.0,0.0,0.0,0.0,0.0,0.0,2.6244,2.6496,2.6886,2.7108,2.7108,2.6938,2.6782,2.6534,2.615,2.6136,2.5825,2.523,2.523,2.5174,2.5005,2.5005,2.4821,2.4509,2.4292,2.4164,2.4144,2.4491,2.4437,2.4197,2.3983,2.4025,2.4295,2.3798,2.3658,2.385,0.0,0.0,0.0,2.9321,2.8987,2.8478,2.7719,2.7651,2.7498,0.0,0.0,0.0,2.6236,2.5491,2.4885,2.4482,2.4078,2.3824,2.3839,2.3538,2.3748,2.4552,2.4725,2.5174,2.5879,2.5554,2.4623,2.2924,2.255,2.1537,1.9926,2.0308,2.0822,2.1433,2.1199,2.1746,2.2817,2.1475,0.0,0.0,1.8227,0.0,0.0,1.4986,1.3752,0.0,0.0,0.0,1.7221,1.4662,1.7824,0.0,0.0,0.0,0.0,0.0,0.0,0.0,0.0,2.727,0.0,0.0,0.0,0.0,2.8396,2.6902,0.0,0.0,0.0,0.0,0.0,0.0,0.0,0.0,0.0,0.0,0.0,0.0,0.0,0.0,0.0,0.0,0.0,0.0,0.0,0.0,2.5784,2.6136,2.6678,2.6481,2.639,2.639,2.6108,2.5851,2.5508,2.5508,2.5342,2.5005,2.5005,2.5005,2.5005,2.5005,2.4765,2.435,2.4176,2.3839,2.3378,2.3603,2.3543,2.3378,2.3378,2.3556,2.3793,2.3497,2.3437,2.356,0.0,0.0,2.9091,2.9075,2.9012,2.876,2.8189,2.8123,2.7989,0.0,2.7291,2.6867,2.5956,2.5367,2.4741,2.4106,2.3728,2.3494,2.3551,2.3451,2.3718,2.4403,2.4461,2.4662,2.5242,2.4352,2.3458,2.2603,2.1532,2.061,1.9899,1.9823,2.0231,2.095,2.0399,2.0875,2.1966,0.0,0.0,2.3582,1.9171,1.8711,0.0,0.0,1.4732,0.0,1.4241,1.4215,1.479,1.2072,1.411,0.0,0.0,0.0,0.0,0.0,2.5837,0.0,0.0,0.0,0.0,0.0,0.0,0.0,2.6928,2.6567,2.5993,0.0,0.0,0.0,0.0,0.0,0.0,0.0,0.0,0.0,0.0,0.0,0.0,0.0,0.0,0.0,0.0,0.0,2.5005,2.5005,2.5508,2.6028,2.6467,2.6082,2.5784,2.5784,2.5286,2.5005,2.4935,2.4935,2.4935,2.4935,2.4935,2.4948,2.5005,2.4948,2.465,2.4131,2.4073,2.3662,2.3078,2.3078,2.3078,2.3078,2.3078,2.321,2.3343,2.3138,2.3198,2.333,0.0,2.8842,2.8873,2.892,2.848,2.8072,2.7947,2.805,2.7958,2.7547,2.7486,2.7271,2.6888,2.5771,2.4908,2.4537,2.3763,2.3363,2.3363,2.3008,2.3022,2.3541,2.3497,2.3512,2.3547,2.3781,2.3336,2.213,2.1644,2.1041,2.0341,1.9972,1.9977,2.0194,1.9964,2.013,2.0656,0.0,0.0,1.9824,1.8431,0.0,1.7154,1.4018,1.2052,1.0905,1.0771,1.2054,1.4047,0.0,1.6953,1.8096,0.0,0.0,0.0,0.0,0.0,0.0,0.0,0.0,0.0,0.0,0.0,0.0,2.903,2.782,2.6772,0.0,0.0,0.0,0.0,0.0,0.0,0.0,0.0,0.0,0.0,0.0,0.0,0.0,0.0,0.0,0.0,0.0,2.5005,2.5005,2.5118,2.5216,2.5328,2.5216,2.5174,2.5174,2.5061,2.4878,2.458,2.458,2.458,2.458,2.458,2.4765,2.5005,2.4694,2.4408,2.4073,2.3793,2.3497,2.3078,2.3078,2.3078,2.3078,2.3078,2.3138,2.3138,2.3138,2.3138,2.3138,2.8299,2.8396,2.8477,2.8365,2.8216,2.8093,2.7873,2.7999,2.8093,2.7873,2.7666,2.7273,2.6572,2.5565,2.4773,2.4248,2.3554,2.3083,2.3083,2.2814,2.2768,2.2979,2.3108,2.3203,2.3298,2.3474,2.3191,2.2502,2.1675,2.1039,2.0611,1.997,1.9359,1.8773,1.9411,1.9442,1.9114,0.0,2.0213,2.0027,1.791,0.0,1.4435,1.175,1.011,0.921,0.9594,1.0721,1.2391,1.472,1.6767,0.0,0.0,2.1161,2.2937,0.0,2.397,2.3586,0.0,0.0,0.0,2.7209,0.0,0.0,0.0,2.7228,2.6643,2.64,0.0,0.0,0.0,0.0,0.0,0.0,0.0,0.0,0.0,0.0,0.0,0.0,0.0,0.0,0.0,0.0,2.5005,2.5005,2.5005,2.5005,2.5005,2.4821,2.4821,2.5005,2.4765,2.4708,2.4765,2.4523,2.4452,2.4509,2.435,2.4408,2.4536,2.435,2.4118,2.3852,2.3675,2.3378,2.3078,2.3078,2.3078,2.3078,2.3078,2.3138,2.3271,2.3138,2.3138,2.3271,2.7625,2.7825,2.7925,2.7675,2.791,2.8057,2.7675,2.781,2.7959,2.791,2.7309,2.6491,2.5596,2.4497,2.3646,2.3062,2.2409,2.2207,2.2594,2.247,2.2362,2.2395,2.274,2.2857,2.2677,2.272,2.2782,2.2716,2.1481,2.0878,2.0749,2.002,1.9069,1.817,1.8833,1.8915,1.8498,0.0,0.0,2.0155,0.0,1.5219,1.3777,1.1149,0.9854,0.9566,0.953,0.997,1.0884,1.2647,0.0,1.8581,1.8467,2.0604,0.0,0.0,0.0,0.0,0.0,0.0,0.0,0.0,0.0,2.6904,0.0,0.0,0.0,2.5378,0.0,0.0,0.0,0.0,0.0,0.0,0.0,0.0,0.0,0.0,0.0,0.0,0.0,0.0,0.0,0.0,2.5326,2.5005,2.5256,2.5269,2.5005,2.4637,2.458,2.4878,2.4465,2.4408,2.4721,2.435,2.4234,2.435,2.4131,2.4015,2.4131,2.4015,2.3852,2.3628,2.3497,2.3318,2.3078,2.3078,2.3078,2.3078,2.3078,2.3198,2.333,2.3138,2.3198,2.333,2.7071,2.7174,2.7174,2.7019,2.7122,2.7174,2.7019,2.7144,2.7129,2.6886,2.5286,2.4068,2.396,2.1849,2.0373,2.0204,1.9457,0.0,2.135,0.0,2.1211,2.1261,2.1968,2.1555,1.9708,2.0767,2.1431,2.1693,2.0932,2.0759,2.112,2.0195,1.9957,2.0246,1.8371,1.8719,2.0532,0.0,1.7164,0.0,1.5584,1.6574,0.0,1.572,1.3474,1.1397,1.0021,0.997,1.1002,0.0,1.5242,1.7086,0.0,2.104,2.0379,0.0,0.0,0.0,0.0,0.0,0.0,0.0,2.7046,0.0,0.0,0.0,2.6821,2.693,0.0,0.0,0.0,0.0,0.0,0.0,0.0,0.0,0.0,0.0,0.0,0.0,0.0,0.0,0.0,0.0,0.0,2.5102,2.612,2.6218,2.5075,2.4478,2.4292,2.458,2.4292,2.4015,2.3734,2.3688,2.3675,2.3675,2.3675,2.3793,2.4073,2.3793,2.3628,2.3556,2.3318,2.3138,2.3078,2.3078,2.3078,2.3078,2.3078,2.3138,2.3138,2.3138,2.3138,2.3138,2.6351,2.651,2.6549,2.6229,2.6443,2.6481,2.6094,2.6446,2.6546,2.592,2.555,2.5271,2.4989,0.0,0.0,0.0,0.0,1.9638,0.0,0.0,2.0936,2.2389,2.2704,0.0,2.1549,2.1632,2.1737,2.1868,2.0926,2.0561,2.0784,2.0473,1.9949,1.925,1.8328,0.0,1.7926,0.0,1.6533,0.0,0.0,0.0,0.0,1.3731,1.1354,1.0443,0.9938,1.011,1.0778,0.0,1.4751,0.0,0.0,0.0,0.0,0.0,0.0,0.0,0.0,0.0,0.0,0.0,0.0,0.0,0.0,0.0,2.6919,0.0,0.0,0.0,0.0,0.0,0.0,0.0,0.0,0.0,0.0,0.0,0.0,0.0,0.0,0.0,0.0,0.0,0.0,0.0,0.0,2.571,2.4997,2.451,2.4294,2.4247,2.3897,2.3734,2.3897,2.3628,2.3509,2.3628,2.3378,2.3378,2.3484,2.3378,2.3318,2.3318,2.3138,2.3078,2.3078,2.3078,2.3078,2.3078,2.3078,2.3078,2.3078,2.3078,2.3078,2.3078,2.5619,2.577,2.5811,2.5384,2.5646,2.5742,2.53,2.5672,2.5795,2.5188,0.0,0.0,2.5109,2.314,0.0,0.0,1.8612,1.779,0.0,0.0,1.9713,0.0,0.0,0.0,0.0,0.0,2.2026,2.2147,2.1188,2.0789,2.1019,2.0966,2.0453,1.9424,1.8748,1.7856,1.6839,0.0,1.5879,1.676,1.5453,1.5578,1.6004,1.1825,1.0008,0.9652,0.9919,1.0238,1.0708,1.1404,1.4469,0.0,1.4908,0.0,0.0,0.0,0.0,0.0,2.6581,0.0,0.0,0.0,0.0,0.0,0.0,0.0,0.0,0.0,0.0,0.0,0.0,0.0,0.0,0.0,0.0,0.0,0.0,0.0,0.0,0.0,0.0,0.0,0.0,0.0,0.0,0.0,2.5774,2.5494,2.4922,2.4523,2.4282,2.4203,2.3799,2.3662,2.3839,2.3497,2.339,2.3437,2.3198,2.3078,2.3078,2.3078,2.3078,2.3078,2.3078,2.3078,2.3078,2.3078,2.3078,2.3078,2.3078,2.3078,2.3078,2.3078,2.3078,2.3103,2.4892,2.4948,2.4878,2.4408,2.4593,2.4835,2.4835,0.0,0.0,0.0,0.0,0.0,0.0,0.0,0.0,0.0,0.0,1.2645,1.4617,0.0,1.683,0.0,0.0,2.0961,0.0,0.0,2.1757,2.2309,2.1744,2.1732,2.2246,2.1875,2.197,2.2362,1.9936,1.9175,1.9471,1.6769,1.4848,1.3593,1.3005,1.1804,1.0461,0.0,1.1609,0.9983,0.9983,0.0,0.0,1.3501,1.4509,0.0,0.0,0.0,0.0,0.0,0.0,0.0,0.0,0.0,0.0,2.7521,0.0,0.0,0.0,0.0,2.6638,0.0,0.0,0.0,0.0,0.0,0.0,2.8857,0.0,0.0,0.0,0.0,0.0,0.0,0.0,0.0,0.0,0.0,0.0,2.7097,2.6722,2.6084,2.497,2.4351,2.4103,2.4374,2.4153,2.3703,2.3138,2.3138,2.3138,2.3138,2.3138,2.3078,2.3078,2.3078,2.3078,2.3078,2.3078,2.3078,2.3078,2.3078,2.3078,2.3078,2.3078,2.3078,2.3078,2.3078,2.3078,2.3153,2.4478,2.4434,2.439,2.4292,0.0,0.0,0.0,2.5076,0.0,0.0,0.0,0.0,0.0,0.0,1.5752,0.0,0.0,1.2875,1.3942,1.5888,0.0,0.0,0.0,2.2268,0.0,0.0,0.0,0.0,2.17,2.1581,2.1769,2.2128,2.2433,2.2655,2.0641,1.9144,0.0,0.0,0.0,0.0,0.0,1.2903,1.2476,0.0,0.0,1.0047,1.0301,1.0498,0.0,1.1631,1.3076,1.441,1.3916,1.5834,1.8226,1.7822,1.8695,0.0,0.0,0.0,2.1607,2.5346,0.0,0.0,0.0,0.0,0.0,0.0,0.0,0.0,0.0,0.0,2.8167,2.8767,2.9339,0.0,0.0,0.0,0.0,0.0,0.0,0.0,0.0,0.0,0.0,2.7171,2.5878,2.4883,0.0,2.4116,2.389,2.3548,2.3427,2.3339,2.3078,2.3078,2.3078,2.3078,2.3078,2.3078,2.3078,2.3078,2.3078,2.3078,2.3078,2.3078,2.3078,2.3078,2.3078,2.3078,2.3078,2.2811,2.2494,2.2944,2.3078,2.3215,2.4332,2.4203,0.0,0.0,0.0,0.0,0.0,0.0,0.0,0.0,2.1457,0.0,1.8239,0.0,1.4836,0.0,1.2488,1.2059,1.3159,1.4595,0.0,1.6233,1.9512,0.0,0.0,0.0,0.0,0.0,0.0,2.2198,2.2255,2.2738,2.3032,2.3148,2.1823,1.967,1.6991,0.0,1.3968,0.0,0.0,1.2805,0.0,0.0,1.1283,1.1445,0.0,1.0751,1.0751,1.0688,1.1772,1.2893,1.1284,1.3457,1.6218,1.4917,1.6038,1.8071,1.9527,1.9166,0.0,2.2833,2.2521,0.0,2.5218,0.0,0.0,0.0,0.0,0.0,0.0,0.0,0.0,2.7586,2.8152,2.9295,0.0,3.2237,0.0,0.0,0.0,0.0,0.0,0.0,2.8006,2.7055,2.5668,2.4632,0.0,0.0,2.3828,2.3452,2.3439,2.3339,2.3078,2.3078,2.3078,2.3078,2.3078,2.3078,2.3078,2.3078,2.3078,2.3078,2.3078,2.3078,2.3065,2.2811,2.275,2.2689,2.2506,2.2125,2.1803,2.2494,2.2997,2.3442,0.0,0.0,0.0,0.0,2.4642,0.0,0.0,0.0,2.4743,0.0,2.1187,1.9883,1.7999,1.4764,1.287,1.3235,1.0826,0.0,1.2172,1.2711,0.0,0.0,1.533,1.5464,1.3459,0.0,0.0,0.0,0.0,2.3475,2.3667,2.3641,2.37,2.3891,2.3416,0.0,1.7134,1.702,1.4586,1.0855,1.133,1.1593,1.1708,1.1938,0.0,1.402,1.1921,1.1171,1.1108,1.0911,1.0848,1.0848,1.0848,1.0982,1.129,1.2081,1.2428,1.3133,1.6017,1.7388,1.8409,2.0228,0.0,0.0,0.0,0.0,2.4163,0.0,0.0,0.0,0.0,0.0,0.0,2.5515,2.7046,2.8836,0.0,0.0,0.0,0.0,0.0,0.0,0.0,3.1062,2.9709,2.6849,2.6082,2.5196,0.0,0.0,2.4041,2.3954,2.3954,2.369,2.3078,2.3078,2.3078,2.3078,2.3078,2.3078,2.3078,2.3078,2.3065,2.3065,2.3065,2.3005,2.2944,2.2359,2.2113,2.199,2.1376,2.106,2.1123,2.1803,2.2787,2.3713,2.4099,2.4393,2.4753,0.0,2.48,2.5333,0.0,0.0,0.0,0.0,1.7332,1.4488,1.2538,1.1051,1.0302,1.0496,0.9893,0.0,0.0,0.0,0.0,1.1403,1.4809,1.5785,1.3689,1.778,0.0,2.0535,0.0,0.0,2.4182,2.3953,2.3878,2.408,2.4232,2.1753,1.7521,1.774,1.5333,1.1337,1.1616,1.279,0.0,0.0,1.3616,1.5029,1.2609,1.1745,1.1745,1.1538,1.1471,1.1477,1.1611,1.1812,1.2078,1.2615,1.263,1.283,1.3967,1.4673,1.5671,1.8262,1.9041,1.9782,0.0,0.0,0.0,0.0,0.0,0.0,0.0,0.0,0.0,0.0,0.0,0.0,0.0,0.0,0.0,0.0,0.0,0.0,3.2748,3.0593,2.8677,2.7698,2.6315,0.0,0.0,0.0,0.0,2.3364,2.3364,2.3288,2.3078,2.3078,2.3078,2.3078,2.3078,2.3078,2.3065,2.2555,2.2359,2.2359,2.2359,2.2063,2.1628,2.2149,2.2013,2.1565,2.1388,2.0996,2.0613,2.1187,2.2004,2.2942,2.4331,0.0,0.0,2.5592,0.0,0.0,2.4988,0.0,0.0,1.9587,1.6941,0.0,1.2277,1.0547,0.9594,0.9658,0.9786,0.0,0.0,0.0,0.0,1.1896,1.3247,1.3468,1.2256,1.5452,0.0,1.8973,0.0,0.0,2.4029,2.3974,2.3949,2.4138,2.4507,2.2714,1.9232,1.7765,1.5743,1.3433,1.2639,0.0,0.0,1.3284,1.3716,1.4576,1.3127,1.2491,1.2187,1.1908,1.1983,1.2051,1.2044,1.2255,1.2601,1.2811,1.2876,1.2818,1.2979,1.3593,1.4572,1.5918,1.6739,1.7816,2.0184,2.0673,2.0556,0.0,0.0,0.0,0.0,0.0,0.0,0.0,0.0,0.0,0.0,0.0,0.0,0.0,2.9582,0.0,3.199,2.9455,2.774,2.7897,0.0,0.0,0.0,0.0,0.0,2.4551,2.4088,2.3753,2.3514,2.3514,2.3389,2.3078,2.3078,2.2944,2.2616,2.2384,2.2002,2.1678,2.1803,2.1616,2.1262,2.1526,2.14,2.1008,2.0752,2.0366,2.0053,2.0366,2.124,2.2275,0.0,0.0,0.0,0.0,0.0,0.0,0.0,2.343,0.0,1.8771,0.0,1.6158,1.3982,1.1518,0.9989,0.9932,0.0,1.1009,1.253,1.1347,1.1333,1.3058,1.1347,1.0371,1.0371,1.2382,0.0,0.0,0.0,0.0,2.3731,2.3857,2.4047,2.4256,2.4606,0.0,0.0,1.7311,1.5734,1.5375,1.37,1.3031,1.3104,1.3389,1.3492,1.3492,1.3492,1.3133,1.265,1.2308,1.2445,1.2726,1.2377,1.2658,1.3074,1.3074,1.318,1.314,1.2848,1.3636,1.4418,1.39,1.4753,1.6148,1.7945,1.8363,1.8419,1.879,1.9968,2.014,0.0,0.0,0.0,0.0,0.0,0.0,0.0,0.0,0.0,0.0,0.0,0.0,0.0,2.8166,2.7131,0.0,0.0,0.0,0.0,0.0,0.0,2.5985,2.5243,0.0,2.4117,0.0,2.3753,2.3251,2.3115,2.275,2.2101,2.2211,2.1839,2.0996,2.1302,2.1376,2.1135,2.0764,2.0571,2.0442,1.9868,1.9671,1.9615,1.9679,2.0649,2.1757,0.0,0.0,0.0,0.0,0.0,2.1163,1.942,1.755,1.6141,1.579,1.3324,1.161,1.139,1.0735,1.0301,1.0434,1.0498,0.0,0.0,0.0,0.0,1.1115,1.0771,1.0561,1.0561,1.2602,1.4935,0.0,0.0,0.0,2.4246,2.4157,2.4374,2.4831,2.4922,0.0,1.9046,1.6768,0.0,1.3134,1.3023,1.317,1.3418,1.3477,1.3492,1.3492,1.3492,1.3498,1.3546,1.3323,1.3395,1.3618,1.3667,1.381,1.3961,1.4245,1.4112,1.3876,1.3744,1.4155,1.4604,1.4409,1.5018,1.5856,1.6415,1.654,1.6608,1.6857,1.7183,1.7688,1.8453,0.0,0.0,0.0,0.0,0.0,0.0,0.0,0.0,0.0,0.0,0.0,0.0,0.0,0.0,0.0,0.0,0.0,0.0,0.0,0.0,0.0,0.0,0.0,0.0,0.0,2.3954,2.3841,2.3364,2.275,2.2113,2.1765,2.1198,2.056,2.0688,2.0442,1.9987,2.0571,2.0506,1.9998,2.0009,1.9944,1.9921,2.0253,2.0816,2.1371,0.0,0.0,0.0,0.0,0.0,0.0,0.0,1.4463,0.0,1.4726,1.3523,1.2629,1.2833,1.1523,1.0657,1.0575,1.0624,1.0624,1.0624,1.0624,1.0624,1.0624,1.0624,0.0,1.0624,1.1663,1.389,1.7292,0.0,0.0,2.3965,2.4007,2.4367,2.4962,0.0,2.2744,0.0,0.0,0.0,1.4727,1.3663,1.3353,1.3492,1.3492,1.3572,1.3645,1.3645,1.3863,1.4072,1.3637,1.379,1.4145,1.4137,1.4201,1.4418,1.4569,1.4522,1.4409,1.4563,1.499,1.5386,1.5486,1.6046,1.6527,1.6581,1.653,1.6516,1.6587,1.6534,1.6992,1.8701,2.0428,0.0,0.0,0.0,0.0,0.0,0.0,0.0,0.0,0.0,0.0,0.0,0.0,0.0,0.0,0.0,0.0,0.0,0.0,0.0,0.0,0.0,0.0,0.0,0.0,0.0,2.3464,2.2887,2.2051,2.1037,2.1008,2.056,1.9857,2.0194,2.014,1.9802,2.0259,2.0259,2.0009,2.0074,2.0161,2.0277,2.0639,2.1112,2.1657,0.0,2.5413,0.0,0.0,1.9844,0.0,1.5449,1.3001,1.2032,1.3794,1.403,1.403,1.403,1.226,1.0969,1.0681,1.0719,1.0692,1.0624,1.0624,1.0624,1.0624,1.0624,1.0624,1.0688,1.0744,1.2633,0.0,0.0,0.0,0.0,2.3577,0.0,0.0,0.0,0.0,0.0,0.0,1.6289,1.6076,1.4175,1.3564,1.371,1.3572,1.3717,1.3935,1.3863,1.4072,1.4353,1.3855,1.4,1.4425,1.4274,1.4425,1.4569,1.4569,1.4569,1.4712,1.5179,1.5657,1.6136,1.6584,1.702,1.7317,1.7143,1.7001,1.6878,1.6833,1.6608,1.6945,1.8532,1.9634,0.0,0.0,0.0,0.0,0.0,0.0,0.0,0.0,0.0,0.0,0.0,0.0,0.0,0.0,0.0,0.0,0.0,0.0,0.0,0.0,0.0,2.6389,2.5937,0.0,2.3847,0.0,2.2238,2.1239,2.0096,2.0442,2.0118,1.9417,1.9878,2.0009,1.9933,2.0074,2.014,2.0238,2.0238,2.0465,2.0751,2.1054,2.1496,2.2074,0.0,0.0,0.0,0.0,0.0,0.0,0.0,1.3001,1.1498,1.1655,1.1724,1.1724,1.1724,1.1478,1.1269,1.0982,1.0955,1.0842,1.0645,1.0624,1.0624,1.0624,1.0624,1.0744,1.1059,1.087,1.2117,0.0,0.0,0.0,0.0,0.0,0.0,0.0,0.0,0.0,0.0,1.6017,1.5133,1.3598,1.331,1.363,1.4289,1.3935,1.4008,1.4289,1.4137,1.4209,1.4353,1.4353,1.4425,1.4569,1.4569,1.4569,1.4569,1.4569,1.4569,1.4776,1.5508,1.5928,1.6381,1.7069,1.7366,1.7461,1.7482,1.7296,1.7102,1.7007,1.6759,1.6924,1.8135,1.7481,1.7305,0.0,0.0,0.0,0.0,0.0,0.0,0.0,0.0,0.0,0.0,2.1731,0.0,0.0,0.0,0.0,0.0,0.0,0.0,2.6583,0.0,2.6926,2.6876,2.4193,0.0,2.2659,2.1647,2.0805,2.0096,2.0442,2.0248,1.9605,1.9944,2.0074,2.0074,2.0074,2.027,2.0525,2.0525,2.0816,2.129,2.17,2.2071,2.2306,0.0,0.0,0.0,0.0,0.0,0.0,0.0,1.2806,1.2244,1.1951,1.1797,1.169,1.169,1.183,1.1784,1.1485,1.1427,1.14,1.1346,1.1227,1.1185,1.1185,1.1185,1.1185,1.1247,1.1247,1.2297,0.0,0.0,0.0,0.0,0.0,0.0,0.0,0.0,1.7444,1.512,1.4316,1.3681,1.3093,1.3295,1.3564,1.3855,1.3928,1.4145,1.4353,1.4281,1.4353,1.4497,1.4497,1.4569,1.4569,1.4569,1.4569,1.4569,1.4569,1.4569,1.4776,1.5401,1.5704,1.6067,1.7235,1.7598,1.7665,1.7802,1.7869,1.7799,1.7339,1.7018,1.69,1.6937,1.7323,1.7573,0.0,0.0,0.0,0.0,0.0,0.0,0.0,0.0,0.0,0.0,0.0,2.1104,0.0,0.0,0.0,0.0,0.0,0.0,2.5577,0.0,2.5182,2.511,2.3398,2.24,2.1989,2.0952,2.0172,1.9518,1.9857,2.0084,2.0243,2.031,2.0471,2.0672,2.0672,2.0711,2.0882,2.0952,2.1161,2.1456,2.201,2.2258,2.2381,1.7959,0.0,1.7152,0.0,1.4911,1.4483,1.2767,1.2746,1.29,1.2526,1.2342,1.2141,1.2141,1.2285,1.231,1.193,1.1988,1.1952,1.186,1.1754,1.1636,1.1573,1.1549,0.0,1.1373,1.1498,1.2142,1.3509,1.6148,0.0,0.0,0.0,0.0,0.0,1.6336,1.5495,1.4519,1.3149,1.2899,1.3339,1.3419,1.3637,1.3928,1.4137,1.4353,1.4577,1.4497,1.4497,1.4569,1.4569,1.4569,1.4569,1.4569,1.4569,1.4569,1.4569,1.4569,1.4705,1.5401,1.5613,1.5956,1.7423,1.7774,1.7833,1.8203,1.8328,1.8196,1.7557,1.7246,1.6859,1.6224,1.7038,1.7438,1.6347,0.0,0.0,0.0,0.0,0.0,0.0,0.0,1.8156,1.7835,0.0,0.0,0.0,0.0,0.0,0.0,0.0,0.0,0.0,0.0,0.0,0.0,2.2545,2.1661,2.1258,2.0299,1.9594,1.9142,1.9539,2.0004,2.059,2.059,2.0722,2.103,2.103,2.1105,2.1222,2.1364,2.1581,2.1829,2.2291,2.2507,2.2628,1.6049,1.5934,1.5551,1.3309,1.3127,1.3127,1.29,1.3046,1.3119,1.29,1.2893,1.282,1.2592,1.2746,1.2767,1.2537,1.2509,1.2375,1.1997,1.1881,1.171,0.0,0.0,1.1373,1.156,1.1373,1.149,1.1809,0.0,0.0,1.4639,0.0,1.7706,1.58,1.6078,1.5151,1.3382,1.2707,1.3184,1.4281,1.3484,1.3848,1.4864,1.4505,1.4577,1.4864,1.4641,1.4569,1.4569,1.4569,1.4569,1.4569,1.4569,1.4569,1.4569,1.4569,1.4569,1.4776,1.5551,1.5833,1.6175,1.7619,1.7833,1.791,1.8596,1.8529,1.814,1.7527,1.7288,1.6957,1.6255,1.6115,1.6098,1.5944,0.0,0.0,0.0,0.0,0.0,0.0,1.7994,1.7948,1.7461,0.0,0.0,0.0,0.0,0.0,0.0,0.0,0.0,2.3382,2.3536,0.0,2.4302,2.1479,2.0136,2.041,1.9646,1.9285,1.9285,1.9736,2.0126,2.059,2.059,2.0722,2.103,2.103,2.1286,2.169,2.169,2.2124,2.2692,2.2692,2.2841,2.3001,1.3447,1.3587,1.3492,1.2833,1.2973,1.3119,1.29,1.3193,1.3273,1.2973,1.3119,1.32,1.3046,1.3046,1.3084,0.0,1.2991,1.2972,0.0,1.2691,1.2468,1.2173,1.2126,1.197,1.1747,1.1677,1.1622,1.1685,0.0,0.0,0.0,1.6876,1.6157,1.4004,1.4148,1.381,1.3258,1.3013,1.3252,1.3783,1.3775,1.4065,1.4353,1.4497,1.4569,1.4713,1.4641,1.4569,1.4569,1.4569,1.4569,1.4569,1.4569,1.4569,1.4569,1.4569,1.4569,1.4641,1.4776,1.5196,1.5816,1.6775,1.7267,1.7687,1.8405,1.8347,1.8016,1.777,1.7526,1.717,1.6602,1.6269,1.6076,1.6059,1.5782,0.0,0.0,0.0,0.0,0.0,0.0,1.6181,0.0,1.5968,0.0,0.0,0.0,0.0,0.0,0.0,0.0,0.0,2.2031,0.0,2.2112,2.0709,2.0195,2.0623,1.9646,1.9274,1.9473,1.9615,2.0108,2.0877,2.0877,2.11,2.1532,2.167,2.1829,2.203,2.2243,2.2424,2.2553,2.2777,2.2852,2.2852,1.2866,1.3092,1.3325,1.3325,1.355,1.37,1.3558,1.3783,1.3857,1.355,1.3599,1.3601,1.3527,1.3418,0.0,1.3346,1.3381,1.3413,1.3413,1.3239,1.2961,1.2676,1.2615,1.245,1.2055,0.0,0.0,1.1919,1.3754,1.4909,1.5371,1.5613,1.4969,1.3715,1.3635,1.3666,1.3768,1.3521,1.3637,1.4,1.4065,1.4201,1.4425,1.4569,1.4569,1.4569,1.4569,1.4569,1.4569,1.4569,1.4569,1.4569,1.4569,1.4569,1.4569,1.4569,1.4569,1.4569,1.4497,1.5054,1.5816,1.6558,1.7129,1.756,1.8134,1.8144,1.7997,1.7979,1.774,1.748,1.7105,1.6674,1.6321,1.6215,1.5753,1.5362,1.5313,0.0,0.0,0.0,0.0,0.0,0.0,1.6163,0.0,0.0,0.0,0.0,0.0,0.0,0.0,2.0981,2.0648,0.0,2.0855,2.0174,2.0165,2.0694,1.9839,1.9539,1.9813,1.9813,2.0194,2.103,2.103,2.1334,2.1807,2.2035,2.2101,2.2252,2.2553,2.2703,2.2628,2.2852,2.2852,2.2852,1.3909,1.423,0.0,0.0,1.4621,0.0,1.455,1.4621,1.4621,1.455,1.4209,1.4004,1.3989,1.3711,1.3521,1.3492,0.0,0.0,0.0,1.3356,1.3249,1.3009,1.2861,1.2751,1.2519,1.2519,1.2519,1.2519,1.2848,1.3184,1.3536,1.3836,1.4248,1.4588,1.4429,1.4455,1.4617,1.4059,1.4225,1.4872,1.4353,1.4425,1.4872,1.4713,1.4569,1.4569,1.4569,1.4569,1.4569,1.4569,1.4569,1.4569,1.4569,1.4569,1.4569,1.4569,1.4569,1.4569,1.4569,1.5196,1.6035,1.6835,1.7276,1.7588,1.794,1.8008,1.8008,1.8008,1.8008,1.7948,1.7668,1.7179,1.6631,1.6375,1.5861,1.5449,1.542,0.0,0.0,0.0,0.0,0.0,0.0,1.7629,1.7085,0.0,0.0,0.0,0.0,0.0,2.0281,1.8643,1.9433,2.0073,2.0379,1.9849,1.9906,2.06,2.0154,1.9944,2.0085,2.0085,2.0407,2.103,2.103,2.1334,2.1807,2.2025,2.2252,2.2478,2.2628,2.2852,2.3001,2.2777,2.2852,2.3001,0.0,0.0,1.4472,1.4472,1.455,1.4543,1.4472,1.455,1.4543,1.4472,1.4399,1.426,1.4011,1.3916,1.377,1.3514,1.3492,1.3492,1.3492,1.3498,1.3344,1.3023,1.3005,1.2775,1.2526,1.2519,1.2519,1.2519,1.2848,1.3301,1.3872,1.4103,1.4403,1.4831,1.4483,1.4381,1.4494,1.4313,1.4425,1.4864,1.4792,1.4792,1.4872,1.4713,1.4569,1.4569,1.4569,1.4569,1.4569,1.4569,1.4569,1.4569,1.4569,1.4569,1.4569,1.4569,1.4569,1.4569,1.4569,1.548,1.6464,1.6664,1.7432,1.8134,1.8347,1.8212,1.8076,1.8347,1.8212,1.8046,1.814,1.7642,1.7145,1.6891,1.6323,1.5791,1.5459,1.541,0.0,0.0,1.5946,1.5946,1.5946,1.5946,1.6461,0.0,0.0,0.0,0.0,2.053,2.0491,1.8844,1.9073,1.9474,2.0101,1.9479,1.9389,1.9599,1.9777,1.9933,1.9944,1.9944,2.0328,2.103,2.103,2.1406,2.2025,2.2252,2.2478,2.2628,2.2852,2.2927,2.3001,2.2927,2.2927,2.3001,1.4911,1.4911,1.4911,1.4911,1.4911,1.4911,1.4911,1.4911,1.4911,1.4911,1.4779,1.4618,1.4435,1.4157,1.3909,1.3733,1.3579,1.3492,1.3492,1.3492,1.3418,1.3243,1.3228,1.3148,1.2972,1.2965,1.2965,1.2965,1.3294,1.3712,1.414,1.4364,1.4617,1.4929,1.4638,1.4561,1.4613,1.4566,1.4784,1.5015,1.5105,1.517,1.5267,1.5128,1.5022,1.4887,1.4887,1.4784,1.4569,1.4569,1.4569,1.4641,1.4713,1.4641,1.4641,1.4713,1.4641,1.4641,1.4927,1.5771,1.6742,1.7295,1.8056,1.8674,1.8549,1.8347,1.8279,1.8482,1.8347,1.8279,1.8472,1.8045,1.7611,1.7426,1.7636,1.7347,1.591,1.6494,0.0,1.5508,1.541,1.541,1.541,1.5586,1.6188,1.7295,0.0,0.0,1.8865,1.9442,1.9402,1.8633,1.8914,1.9133,1.9402,1.9305,1.9349,1.9417,1.9736,1.9933,2.0009,2.0009,2.0407,2.1171,2.1171,2.1551,2.2252,2.2478,2.2628,2.2703,2.2927,2.3001,2.3001,2.2927,2.2927,2.3001,1.5431,1.5431,1.5431,1.5431,1.5431,1.5431,1.5431,1.5431,1.5431,1.5514,1.5271,1.5072,1.5109,1.4606,1.4312,1.4208,1.394,1.3689,1.3499,1.3564,1.3637,1.3492,1.3564,1.3564,1.3492,1.3564,1.3637,1.3637,1.3918,1.4163,1.4366,1.4591,1.4796,1.4973,1.4862,1.4813,1.4844,1.492,1.5113,1.5322,1.5487,1.5609,1.5716,1.5715,1.5499,1.5253,1.5205,1.4982,1.4712,1.4585,1.4569,1.4641,1.4864,1.4864,1.4713,1.4935,1.4864,1.4856,1.5355,1.6123,1.7019,1.8202,1.8808,1.9008,1.8684,1.8549,1.8549,1.8549,1.8549,1.8549,1.8741,1.8294,1.8021,1.8335,1.8976,1.8819,1.687,0.0,1.7809,1.5762,1.5508,1.5508,1.5508,1.5908,1.6191,1.6321,1.6963,1.7412,0.0,1.7812,1.8105,1.8264,1.8765,1.8914,1.8705,1.9182,1.9536,1.9605,1.9802,1.9933,2.0085,2.0085,2.0541,2.1312,2.1312,2.1768,2.2478,2.2628,2.2703,2.2777,2.2927,2.3001,2.3001,2.2777,2.2852,2.3001,1.5431,1.5431,1.5431,1.5431,1.5431,1.5431,1.5431,1.5431,1.5514,1.5922,1.5959,1.5896,1.5999,1.5873,1.5646,1.5056,1.4954,1.451,1.3587,1.4065,1.4137,1.3499,1.3848,1.3848,1.3499,1.3848,1.4065,1.4281,1.4343,1.444,1.4568,1.4479,1.4591,1.4847,1.4652,1.4822,1.5173,1.5331,1.5625,1.591,1.5891,1.5915,1.5915,1.5734,1.5642,1.5562,1.5284,1.5149,1.5054,1.4744,1.4569,1.4641,1.5062,1.5133,1.5133,1.5363,1.5355,1.5355,1.5497,1.6403,1.7442,1.8269,1.8674,1.8875,1.9152,1.8952,1.8741,1.8741,1.8617,1.8482,1.8549,1.8355,1.8675,2.0103,1.8901,1.8107,1.8946,0.0,1.6397,1.6037,1.5957,1.5957,1.5957,1.6367,1.6777,1.7148,1.7305,1.7539,1.79,1.7978,1.8037,1.8037,1.8105,1.832,1.8514,1.9055,1.9414,1.9605,1.9802,1.9933,2.0085,2.0085,2.0541,2.1312,2.1312,2.184,2.2628,2.2703,2.2777,2.2927,2.3001,2.3001,2.3001,2.2927,2.3001,2.3001,1.5431,1.5431,1.5514,1.5763,1.5763,1.5839,1.6079,1.6079,1.6162,1.6409,1.6409,1.6429,1.6508,1.6317,1.6071,1.5745,1.5767,1.5434,1.4502,1.4527,1.4425,1.4137,1.4281,1.4281,1.4065,1.4281,1.4425,1.4497,1.4497,1.4678,1.5083,1.4933,1.5043,1.5435,1.5268,1.5292,1.5451,1.567,1.5843,1.6013,1.6207,1.6288,1.6304,1.6253,1.6126,1.5944,1.5785,1.561,1.5396,1.5054,1.4935,1.4976,1.4992,1.5133,1.5204,1.5426,1.5912,1.6394,1.6394,1.7295,1.8395,1.8741,1.8875,1.9008,1.9142,1.9075,1.8942,1.8942,1.8808,1.8674,1.8808,1.8674,1.8798,1.9607,1.9704,0.0,0.0,1.847,1.7947,1.6599,1.6426,1.6426,1.6426,1.6826,1.7223,1.7484,1.7654,1.787,1.8269,1.8212,1.8212,1.8279,1.8076,1.8144,1.8482,1.8751,1.9152,1.9605,1.9671,2.0008,2.0533,2.0533,2.0989,2.1832,2.1832,2.2223,2.2852,2.2852,2.2927,2.3001,2.3001,2.3001,2.3001,2.3001,2.3001,2.3001,1.5673,1.5673,1.5839,1.617,1.6252,1.6335,1.6648,1.673,1.673,1.682,1.6902,1.6894,1.6894,1.6726,1.6532,1.6365,1.6419,1.6177,1.5525,1.5177,1.4888,1.4649,1.4569,1.4641,1.4641,1.4713,1.4713,1.4713,1.4792,1.5041,1.5536,1.5402,1.5511,1.592,1.5758,1.5721,1.5801,1.5963,1.6089,1.6194,1.6468,1.6581,1.6533,1.6635,1.6563,1.6317,1.6238,1.6031,1.5745,1.5411,1.5319,1.5282,1.5218,1.535,1.5488,1.57,1.6394,1.7148,1.7079,1.8037,1.8998,1.9198,1.9274,1.9274,1.9274,1.9198,1.9142,1.9008,1.8808,1.8741,1.8875,1.8808,1.8838,1.9312,0.0,0.0,0.0,1.9264,1.9084,1.7081,1.6885,1.6885,1.6885,1.7275,1.7586,1.7698,1.788,1.8144,1.8414,1.8337,1.8454,1.87,1.8397,1.8397,1.8904,1.8904,1.9225,2.0002,2.0002,2.0396,2.1035,2.1035,2.1505,2.2313,2.2313,2.2575,2.3001,2.3001,2.3001,2.3001,2.3001,2.3001,2.3001,2.3001,2.3001,2.3001,1.6492,1.6566,1.6656,1.6648,1.6656,1.6656,1.673,1.673,1.6902,1.731,1.731,1.7383,1.7619,1.7594,1.7354,1.6776,1.6719,1.6641,1.6218,1.6177,1.5707,1.4673,1.4569,1.4713,1.4864,1.507,1.5133,1.5133,1.547,1.5577,1.5462,1.5643,1.5658,1.575,1.5682,1.5856,1.6166,1.6166,1.6357,1.6659,1.6683,1.6698,1.6698,1.673,1.6714,1.6651,1.6325,1.619,1.6111,1.5761,1.5654,1.5749,1.6083,1.6197,1.6272,1.6473,1.6959,1.7373,1.7148,1.7823,1.8777,1.9594,1.9868,1.9868,1.9868,1.9539,1.9152,1.8617,1.8549,1.8482,1.8405,1.8337,1.8977,2.0919,0.0,0.0,2.0709,1.9152,1.77,1.7409,1.7334,1.7334,1.7334,1.7715,1.7959,1.7959,1.7988,1.8076,1.8269,1.8337,1.8662,1.943,1.8965,1.9147,1.9981,1.9981,2.0408,2.1204,2.1204,2.1296,2.1538,2.1538,2.1822,2.2313,2.2313,2.2575,2.3001,2.3001,2.3001,2.3001,2.3001,2.3001,2.3001,2.3001,2.3001,2.3001,1.6656,1.673,1.6812,1.7066,1.7147,1.7229,1.7473,1.7546,1.7546,1.7716,1.7797,1.7789,1.787,1.7781,1.7641,1.7418,1.7257,1.702,1.6657,1.6632,1.6333,1.5699,1.5741,1.5889,1.5964,1.603,1.6104,1.6104,1.6105,1.6135,1.6264,1.6256,1.6363,1.6565,1.6413,1.6404,1.6532,1.6532,1.6611,1.673,1.673,1.673,1.673,1.673,1.673,1.6714,1.6579,1.6532,1.6476,1.6126,1.6231,1.647,1.6305,1.6495,1.6723,1.6754,1.6899,1.7107,1.7226,1.8104,1.9044,1.933,1.9671,1.9868,1.9868,1.9802,1.9605,1.9274,1.9008,1.8808,1.8674,1.8405,1.858,1.9452,0.0,1.8657,1.9328,1.8603,1.7955,1.7773,1.7773,1.7773,1.7773,1.792,1.8076,1.8212,1.8076,1.8212,1.8607,1.9141,1.9572,1.9965,2.0218,2.0434,2.0534,2.0593,2.0898,2.1312,2.1312,2.1534,2.204,2.204,2.2291,2.2739,2.2739,2.2837,2.3001,2.3001,2.3001,2.3001,2.3001,2.3001,2.3001,2.3001,2.3001,2.3045,1.6976,1.7057,1.7221,1.7554,1.7554,1.7716,1.7959,1.804,1.804,1.804,1.804,1.7959,1.787,1.7781,1.77,1.7619,1.7473,1.7284,1.702,1.7004,1.6797,1.6403,1.6531,1.6598,1.6531,1.6531,1.6446,1.6446,1.6349,1.6452,1.6681,1.6644,1.675,1.6976,1.6812,1.673,1.673,1.673,1.673,1.673,1.673,1.673,1.673,1.673,1.673,1.673,1.6902,1.6902,1.6862,1.6613,1.6858,1.7189,1.6611,1.6657,1.6879,1.6999,1.6951,1.6924,1.7213,1.8037,1.8977,1.9121,1.9594,1.9998,1.9868,1.9802,1.9671,1.9341,1.9075,1.8875,1.8741,1.8549,1.8405,1.8482,1.8482,1.8482,1.8337,1.8269,1.8212,1.8008,1.8008,1.8008,1.8008,1.8008,1.8076,1.8212,1.8144,1.8339,1.8887,1.9785,2.0386,2.0614,2.1203,2.1521,2.1517,2.1439,2.1582,2.1815,2.1815,2.206,2.2531,2.2531,2.2706,2.3001,2.3001,2.3001,2.3001,2.3001,2.3001,2.3001,2.3001,2.3001,2.3001,2.3001,2.3099,2.3274,1.7619,1.787,1.804,1.804,1.804,1.804,1.804,1.804,1.804,1.804,1.804,1.7951,1.77,1.77,1.7619,1.7392,1.7392,1.7392,1.7392,1.7392,1.715,1.664,1.6607,1.6539,1.6327,1.6327,1.6242,1.6005,1.6361,1.6539,1.6468,1.666,1.673,1.673,1.673,1.673,1.673,1.673,1.673,1.673,1.673,1.6738,1.6738,1.6738,1.6738,1.6738,1.7229,1.7392,1.7392,1.7392,1.7704,1.7934,1.7066,1.6815,1.6833,1.7124,1.7072,1.691,1.6878,1.7451,1.824,1.9044,1.9857,2.027,1.9736,1.9605,1.9407,1.8684,1.8482,1.8482,1.8482,1.8482,1.8482,1.8482,1.8482,1.8482,1.8337,1.8269,1.8212,1.8008,1.8008,1.8008,1.8008,1.8008,1.8008,1.8008,1.8212,1.8536,1.9203,2.0193,2.0925,2.1387,2.1773,2.2364,2.299,2.2553,2.2553,2.3001,2.3001,2.3001,2.3001,2.3001,2.3001,2.3001,2.3001,2.3001,2.3001,2.3001,2.3001,2.3001,2.3001,2.3001,2.3001,2.3001,2.3307,2.3733,1.787,1.7951,1.804,1.804,1.804,1.804,1.804,1.804,1.804,1.804,1.804,1.7959,1.7951,1.7781,1.77,1.7627,1.7473,1.7392,1.7392,1.7392,1.7374,1.738,1.7363,1.7301,1.707,1.707,1.699,1.6733,1.6685,1.666,1.666,1.6683,1.673,1.673,1.673,1.673,1.673,1.673,1.673,1.6738,1.7066,1.7229,1.7229,1.7465,1.7627,1.7627,1.7797,1.7797,1.7797,1.7797,1.8132,1.847,1.8255,1.8018,1.7849,1.7674,1.7483,1.7317,1.7119,1.7661,1.8161,1.7988,1.8921,1.9802,1.9649,1.9857,2.0064,1.9715,1.932,1.8931,1.8549,1.8279,1.8212,1.8347,1.8337,1.8405,1.8405,1.8414,1.8405,1.8212,1.8202,1.8144,1.8008,1.8008,1.8008,1.8008,1.8419,1.9054,1.987,2.0741,2.1406,2.1835,2.2377,2.2785,2.3001,2.2859,2.2859,2.3001,2.3001,2.3001,2.3001,2.3001,2.3001,2.3001,2.3001,2.3001,2.3001,2.3001,2.3001,2.3001,2.3001,2.3001,2.3001,2.3001,2.3307,2.3733,1.8017,1.798,1.804,1.804,1.804,1.804,1.804,1.804,1.804,1.804,1.804,1.804,1.804,1.787,1.7781,1.7781,1.7708,1.7635,1.7635,1.7554,1.7627,1.7789,1.77,1.7619,1.7392,1.731,1.7147,1.6976,1.6812,1.673,1.673,1.673,1.673,1.673,1.673,1.673,1.673,1.673,1.673,1.673,1.6984,1.7229,1.74,1.7635,1.7878,1.804,1.8201,1.8282,1.8282,1.8282,1.8362,1.8487,1.8644,1.8406,1.8092,1.7858,1.7667,1.748,1.7322,1.7653,1.7907,1.7414,1.8686,1.9891,1.9546,2.0126,2.0555,2.0085,1.9715,1.932,1.9008,1.8674,1.8472,1.8472,1.8472,1.8482,1.8482,1.8482,1.8482,1.8414,1.8337,1.8269,1.8144,1.8154,1.8399,1.8725,1.9404,2.0053,2.0628,2.1502,2.2124,2.2271,2.2774,2.3001,2.3001,2.3001,2.3001,2.3001,2.3001,2.3001,2.3001,2.3001,2.3001,2.3001,2.3001,2.3001,2.3001,2.3001,2.3001,2.3001,2.3001,2.3001,2.3001,2.3001,2.3307,2.3733,1.7945,1.7994,1.7993,1.7959,1.7951,1.787,1.7951,1.7878,1.7789,1.7959,1.7951,1.787,1.7951,1.804,1.804,1.804,1.804,1.7951,1.7951,1.7781,1.7781,1.7959,1.7789,1.7546,1.7392,1.7221,1.6976,1.673,1.673,1.673,1.673,1.673,1.673,1.673,1.673,1.673,1.673,1.673,1.673,1.673,1.6738,1.6984,1.7392,1.7473,1.7716,1.8121,1.854,1.8692,1.878,1.87,1.8442,1.8121,1.8531,1.8282,1.7794,1.7865,1.7674,1.7432,1.7564,1.7552,1.7476,1.7308,1.8905,2.0308,1.9464,2.0191,2.0818,2.0095,1.9801,1.9592,1.955,1.9274,1.9008,1.8808,1.8808,1.8741,1.8549,1.8549,1.8559,1.86,1.8464,1.8417,1.8378,1.8606,1.909,1.9907,2.0667,2.1208,2.146,2.2391,2.2852,2.2703,2.2927,2.3001,2.3001,2.3001,2.3001,2.3001,2.3001,2.3001,2.3001,2.3001,2.3001,2.3001,2.3001,2.3001,2.3001,2.3001,2.3001,2.3001,2.3001,2.3001,2.3001,2.3001,2.3307,2.3733,1.7994,1.8037,1.8044,1.7831,1.7359,1.7196,1.787,1.6878,1.6468,1.7789,1.7367,1.7196,1.7951,1.804,1.804,1.804,1.804,1.7951,1.7781,1.7546,1.7473,1.7554,1.7473,1.7383,1.7139,1.731,1.7147,1.673,1.673,1.673,1.673,1.673,1.673,1.673,1.673,1.673,1.673,1.673,1.673,1.6738,1.7066,1.731,1.7392,1.7716,1.8121,1.8531,1.87,1.8931,1.9152,1.9002,1.8843,1.8763,1.8692,1.8531,1.8264,1.8257,1.8072,1.7894,1.7897,1.7871,1.7871,1.7871,1.8713,1.9526,1.9505,1.9829,2.0271,2.039,2.009,1.9567,1.9081,1.8808,1.8684,1.8808,1.8808,1.8808,1.8942,1.8942,1.9075,1.9229,1.9142,1.9064,1.9322,1.9513,1.9815,2.033,2.0841,2.1438,2.2158,2.2414,2.2628,2.2927,2.3001,2.3001,2.3001,2.3001,2.3001,2.3001,2.3001,2.3001,2.3001,2.3001,2.3001,2.3001,2.3001,2.3001,2.3001,2.3001,2.3001,2.3001,2.3001,2.3001,2.3001,2.3001,2.3307,2.3787,1.8238,1.8402,1.8473,1.8271,1.758,1.7127,1.7639,1.6412,1.5726,1.6632,1.6706,1.6862,1.7367,1.7789,1.804,1.804,1.804,1.7951,1.787,1.7554,1.7473,1.7546,1.7383,1.7221,1.7139,1.7221,1.7057,1.673,1.673,1.673,1.673,1.673,1.673,1.673,1.673,1.673,1.673,1.673,1.673,1.6738,1.7147,1.7473,1.7716,1.804,1.8523,1.9002,1.9002,1.9152,1.9301,1.9073,1.9002,1.8922,1.8692,1.8442,1.8353,1.8282,1.8121,1.804,1.804,1.804,1.804,1.804,1.8353,1.8743,1.9099,1.9909,2.0596,2.07,2.0706,2.0573,2.0191,1.9865,1.9717,1.9844,1.9854,1.9854,1.9844,1.9785,1.9799,2.0048,1.9808,1.9849,2.0295,2.0471,2.0728,2.1244,2.1744,2.2222,2.2692,2.2852,2.3001,2.315,2.3075,2.3001,2.3001,2.3001,2.3001,2.3001,2.3001,2.3001,2.3001,2.3001,2.3001,2.3001,2.3001,2.3001,2.3001,2.3001,2.3001,2.3001,2.3001,2.3001,2.3023,2.3263,2.3667,2.4093,1.8409,1.8426,1.846,1.8395,1.7525,1.6893,1.6986,1.5893,1.5218,1.5723,1.63,1.679,1.7129,1.7753,1.8134,1.8134,1.8074,1.7951,1.7878,1.7635,1.7465,1.7538,1.7294,1.7163,1.7147,1.7147,1.7064,1.6826,1.6826,1.6857,1.6913,1.6913,1.6913,1.6913,1.6913,1.6913,1.7004,1.7004,1.6964,1.6908,1.7229,1.7523,1.7951,1.8193,1.8674,1.9231,1.9231,1.9222,1.9222,1.8993,1.8922,1.8834,1.8434,1.8353,1.8282,1.804,1.804,1.804,1.804,1.804,1.804,1.804,1.804,1.8106,1.8542,1.9905,2.1062,2.0862,2.1246,2.1609,2.1522,2.128,2.1058,2.1058,2.1058,2.1047,2.0917,2.0705,2.0665,2.0881,2.0699,2.0762,2.1291,2.1407,2.1702,2.222,2.2777,2.3075,2.3075,2.3298,2.3446,2.3224,2.3075,2.3001,2.3001,2.3001,2.3001,2.3001,2.3001,2.3001,2.3001,2.3001,2.3001,2.3001,2.3001,2.3001,2.3001,2.3001,2.3045,2.3121,2.3121,2.3121,2.324,2.3558,2.3952,2.4259,1.7644,1.7349,1.7206,1.6911,1.5772,1.513,1.5913,1.4741,1.4639,1.7093,1.6809,1.6983,1.8667,1.8633,1.8511,1.8511,1.822,1.7878,1.7473,1.7627,1.7375,1.6894,1.7147,1.7294,1.7283,1.7443,1.7443,1.7207,1.7207,1.735,1.7628,1.7628,1.7628,1.7628,1.7628,1.7816,1.7997,1.7997,1.7896,1.7854,1.8029,1.7994,1.7781,1.7951,1.8362,1.8772,1.8772,1.8922,1.8993,1.8594,1.8523,1.8434,1.8121,1.8031,1.804,1.8031,1.804,1.804,1.804,1.804,1.804,1.804,1.804,1.8023,1.8123,1.9289,2.0409,2.0703,2.1293,2.1549,2.1133,2.1199,2.1269,2.1269,2.1409,2.1538,2.1468,2.1339,2.1349,2.1757,2.1819,2.1868,2.1931,2.2307,2.2638,2.2841,2.315,2.3224,2.3224,2.315,2.3075,2.3075,2.3001,2.3001,2.3001,2.3001,2.3001,2.3001,2.3001,2.3001,2.3001,2.3001,2.3001,2.3001,2.3001,2.3001,2.3001,2.3001,2.3252,2.3635,2.3635,2.3711,2.3819,2.3679,2.3516,2.3477,1.7896,1.7651,1.7583,1.7432,1.5805,1.4702,1.5053,1.3944,1.3495,1.4731,1.5623,1.6426,1.7319,1.8316,1.8828,1.8447,1.8286,1.7935,1.7408,1.7383,1.7302,1.7183,1.729,1.7451,1.7548,1.7634,1.773,1.785,1.7652,1.7628,1.7771,1.7771,1.7771,1.7771,1.7771,1.7953,1.8238,1.8238,1.8218,1.8294,1.8431,1.8411,1.8404,1.8521,1.8683,1.8851,1.8772,1.8772,1.8772,1.8523,1.8442,1.8353,1.8121,1.804,1.804,1.804,1.804,1.804,1.804,1.8121,1.8201,1.8201,1.8201,1.8282,1.8371,1.952,2.0613,2.0797,2.168,2.2399,2.2473,2.2429,2.2429,2.2573,2.2645,2.2645,2.2429,2.2212,2.1996,2.1914,2.2125,2.2176,2.1959,2.2327,2.2628,2.2852,2.3224,2.3446,2.3298,2.3298,2.3001,2.2381,2.2767,2.2767,2.2306,2.2767,2.3001,2.3001,2.3001,2.3001,2.3001,2.3001,2.3001,2.3001,2.3001,2.3001,2.3001,2.3001,2.3121,2.3329,2.3329,2.3493,2.3788,2.372,2.3819,2.3974]},{"header":{"parameterUnit":"m.s-1","parameterCategory":1,"la1":30.6,"la2":28.766,"lo1":-90.7593,"lo2":-88.6598,"dy":0.0162,"dx":0.0183,"nx":116,"ny":114,"refTime":"2023-10-27T06:00:00:Z","depth":0,"parameterNumber":3,"parameterNumberName":"V-component_of_WINDS"},"data":[0.0,0.0,0.0,0.0,0.0,0.0,0.0,0.0,0.0,0.0,0.0,0.0,0.0,0.0,0.0,0.0,0.0,0.0,0.0,0.0,0.0,0.0,0.0,0.0,0.0,0.0,0.0,0.0,0.0,0.0,0.0,0.0,0.0,0.0,0.0,0.0,0.0,0.0,0.0,0.0,0.0,0.0,0.0,0.0,0.0,0.0,0.0,0.0,0.0,0.0,0.0,0.0,0.0,0.0,0.0,0.0,0.0,0.0,0.0,0.0,0.0,0.0,0.0,0.0,0.0,0.0,0.0,0.0,0.0,0.0,0.0,0.0,0.0,0.0,0.0,0.0,0.0,0.0,0.0,0.0,0.0,0.0,0.0,0.0,0.0,0.0,0.0,0.0,0.0,0.0,0.0,0.0,0.0,0.0,0.0,0.0,0.0,0.0,0.0,0.0,0.0,0.0,0.0,0.0,0.0,0.0,0.0,0.0,0.0,0.0,0.0,0.0,0.0,0.0,0.0,0.0,0.0,0.0,0.0,0.0,0.0,0.0,0.0,0.0,0.0,0.0,0.0,0.0,0.0,0.0,0.0,0.0,0.0,0.0,0.0,0.0,0.0,0.0,0.0,0.0,0.0,0.0,0.0,0.0,0.0,0.0,0.0,0.0,0.0,0.0,0.0,0.0,0.0,0.0,0.0,0.0,0.0,0.0,0.0,0.0,0.0,0.0,0.0,0.0,0.0,0.0,0.0,0.0,0.0,0.0,0.0,0.0,0.0,0.0,0.0,0.0,0.0,0.0,0.0,0.0,0.0,0.0,0.0,0.0,0.0,0.0,0.0,0.0,0.0,0.0,0.0,0.0,0.0,0.0,0.0,0.0,0.0,0.0,0.0,0.0,0.0,0.0,0.0,0.0,0.0,0.0,0.0,0.0,0.0,0.0,0.0,0.0,0.0,0.0,0.0,0.0,0.0,0.0,0.0,0.0,0.0,0.0,0.0,0.0,0.0,0.0,0.0,0.0,0.0,0.0,0.0,0.0,0.0,0.0,0.0,0.0,0.0,0.0,0.0,0.0,0.0,0.0,0.0,0.0,0.0,0.0,0.0,0.0,0.0,0.0,0.0,0.0,0.0,0.0,0.0,0.0,0.0,0.0,0.0,0.0,0.0,0.0,0.0,0.0,0.0,0.0,0.0,0.0,0.0,0.0,0.0,0.0,0.0,0.0,0.0,0.0,0.0,0.0,0.0,0.0,0.0,0.0,0.0,0.0,0.0,0.0,0.0,0.0,0.0,0.0,0.0,0.0,0.0,0.0,0.0,0.0,0.0,0.0,0.0,0.0,0.0,0.0,0.0,0.0,0.0,0.0,0.0,0.0,0.0,0.0,0.0,0.0,0.0,0.0,0.0,0.0,0.0,0.0,0.0,0.0,0.0,0.0,0.0,0.0,0.0,0.0,0.0,0.0,0.0,0.0,0.0,0.0,0.0,0.0,0.0,0.0,0.0,0.0,0.0,0.0,0.0,0.0,0.0,0.0,0.0,0.0,0.0,0.0,0.0,0.0,0.0,0.0,0.0,0.0,0.0,0.0,0.0,0.0,0.0,0.0,0.0,0.0,0.0,0.0,0.0,0.0,0.0,0.0,0.0,0.0,0.0,0.0,0.0,0.0,0.0,0.0,0.0,0.0,0.0,0.0,0.0,0.0,0.0,0.0,0.0,0.0,0.0,0.0,0.0,0.0,0.0,0.0,0.0,0.0,0.0,0.0,0.0,0.0,0.0,0.0,0.0,0.0,0.0,0.0,0.0,0.0,0.0,0.0,0.0,0.0,0.0,0.0,0.0,0.0,0.0,0.0,0.0,0.0,0.0,0.0,0.0,0.0,0.0,0.0,0.0,0.0,0.0,0.0,0.0,0.0,0.0,0.0,0.0,0.0,0.0,0.0,0.0,0.0,0.0,0.0,0.0,0.0,0.0,0.0,0.0,0.0,0.0,0.0,0.0,0.0,0.0,0.0,0.0,0.0,0.0,0.0,0.0,0.0,0.0,0.0,0.0,0.0,0.0,0.0,0.0,0.0,0.0,0.0,0.0,0.0,0.0,0.0,0.0,0.0,0.0,0.0,0.0,0.0,0.0,0.0,0.0,0.0,0.0,0.0,0.0,0.0,0.0,0.0,0.0,0.0,0.0,0.0,0.0,0.0,0.0,0.0,0.0,0.0,0.0,0.0,0.0,0.0,0.0,0.0,0.0,0.0,0.0,0.0,0.0,0.0,0.0,0.0,0.0,0.0,0.0,0.0,0.0,0.0,0.0,0.0,0.0,0.0,0.0,0.0,0.0,0.0,0.0,0.0,0.0,0.0,0.0,0.0,0.0,0.0,0.0,0.0,0.0,0.0,0.0,0.0,0.0,0.0,0.0,0.0,0.0,0.0,0.0,0.0,0.0,0.0,0.0,0.0,0.0,0.0,0.0,0.0,0.0,0.0,0.0,0.0,0.0,0.0,0.0,0.0,0.0,0.0,0.0,0.0,0.0,0.0,0.0,0.0,0.0,0.0,0.0,0.0,0.0,0.0,0.0,0.0,0.0,0.0,0.0,0.0,0.0,0.0,0.0,0.0,0.0,0.0,0.0,0.0,0.0,0.0,0.0,0.0,0.0,0.0,0.0,0.0,0.0,0.0,0.0,0.0,0.0,0.0,0.0,0.0,0.0,0.0,0.0,0.0,0.0,0.0,0.0,0.0,0.0,0.0,0.0,0.0,0.0,0.0,0.0,0.0,0.0,0.0,0.0,0.0,0.0,0.0,0.0,0.0,0.0,0.0,0.0,0.0,0.0,0.0,0.0,0.0,0.0,0.0,0.0,0.0,0.0,0.0,0.0,0.0,0.0,0.0,0.0,0.0,0.0,0.0,0.0,0.0,0.0,0.0,0.0,0.0,0.0,0.0,0.0,0.0,0.0,0.0,0.0,0.0,0.0,0.0,0.0,0.0,0.0,0.0,0.0,0.0,0.0,0.0,0.0,0.0,0.0,0.0,0.0,0.0,0.0,0.0,0.0,0.0,0.0,0.0,0.0,0.0,0.0,0.0,0.0,0.0,0.0,0.0,0.0,0.0,0.0,0.0,0.0,0.0,0.0,0.0,0.0,0.0,0.0,0.0,0.0,0.0,0.0,0.0,0.0,0.0,0.0,0.0,0.0,0.0,0.0,0.0,0.0,0.0,0.0,0.0,0.0,0.0,0.0,0.0,0.0,0.0,0.0,0.0,0.0,0.0,0.0,0.0,0.0,0.0,0.0,0.0,0.0,0.0,0.0,0.0,0.0,0.0,0.0,0.0,0.0,0.0,0.0,0.0,0.0,0.0,0.0,0.0,0.0,0.0,0.0,0.0,0.0,0.0,0.0,0.0,0.0,0.0,0.0,0.0,0.0,0.0,0.0,0.0,0.0,0.0,0.0,0.0,0.0,0.0,0.0,0.0,0.0,0.0,0.0,0.0,0.0,0.0,0.0,0.0,0.0,0.0,0.0,0.0,0.0,0.0,0.0,0.0,0.0,0.0,0.0,0.0,0.0,0.0,0.0,0.0,0.0,0.0,0.0,0.0,0.0,0.0,0.0,0.0,0.0,0.0,0.0,0.0,0.0,0.0,0.0,0.0,0.0,0.0,0.0,0.0,0.0,0.0,0.0,0.0,0.0,0.0,0.0,0.0,0.0,0.0,0.0,0.0,0.0,0.0,0.0,0.0,0.0,0.0,0.0,0.0,0.0,0.0,0.0,0.0,0.0,0.0,0.0,0.0,0.0,0.0,0.0,0.0,0.0,0.0,0.0,0.0,0.0,0.0,0.0,0.0,0.0,0.0,0.0,0.0,0.0,0.0,0.0,0.0,0.0,0.0,0.0,0.0,0.0,0.0,0.0,0.0,0.0,0.0,0.0,0.0,0.0,0.0,0.0,0.0,0.0,0.0,0.0,0.0,0.0,0.0,0.0,0.0,0.0,0.0,0.0,0.0,0.0,0.0,0.0,0.0,0.0,0.0,0.0,0.0,0.0,0.0,0.0,0.0,0.0,0.0,0.0,0.0,0.0,0.0,0.0,0.0,0.0,0.0,0.0,0.0,0.0,0.0,0.0,0.0,0.0,0.0,0.0,0.0,0.0,0.0,0.0,0.0,0.0,0.0,0.0,0.0,0.0,0.0,0.0,0.0,0.0,0.0,0.0,0.0,0.0,0.0,0.0,0.0,0.0,0.0,0.0,0.0,0.0,0.0,0.0,0.0,0.0,0.0,0.0,0.0,0.0,0.0,0.0,0.0,0.0,0.0,0.0,0.0,0.0,0.0,0.0,0.0,0.0,0.0,0.0,0.0,0.0,0.0,0.0,0.0,0.0,0.0,0.0,0.0,0.0,0.0,0.0,0.0,0.0,0.0,0.0,0.0,0.0,0.0,0.0,0.0,0.0,0.0,0.0,0.0,0.0,0.0,0.0,0.0,0.0,0.0,0.0,0.0,0.0,0.0,0.0,0.0,0.0,0.0,0.0,0.0,0.0,0.0,0.0,0.0,0.0,0.0,0.0,0.0,0.0,0.0,0.0,0.0,0.0,0.0,0.0,0.0,0.0,0.0,0.0,0.0,0.0,0.0,0.0,0.0,0.0,0.0,0.0,0.0,0.0,0.0,0.0,0.0,0.0,0.0,0.0,0.0,0.0,0.0,0.0,0.0,0.0,0.0,0.0,0.0,0.0,0.0,0.0,0.0,0.0,0.0,0.0,0.0,0.0,0.0,0.0,0.0,0.0,0.0,0.0,0.0,0.0,0.0,0.0,0.0,0.0,0.0,0.0,0.0,0.0,0.0,0.0,0.0,0.0,0.0,0.0,0.0,0.0,0.0,0.0,0.0,0.0,0.0,0.0,0.0,0.0,0.0,0.0,0.0,0.0,0.0,0.0,0.0,0.0,0.0,0.0,0.0,0.0,0.0,0.0,0.0,0.0,0.0,0.0,0.0,0.0,0.0,0.0,0.0,0.0,0.0,0.0,0.0,0.0,0.0,0.0,0.0,0.0,0.0,0.0,0.0,0.0,0.0,0.0,0.0,0.0,0.0,0.0,0.0,0.0,0.0,0.0,0.0,0.0,0.0,0.0,0.0,0.0,0.0,0.0,0.0,0.0,0.0,0.0,0.0,0.0,0.0,0.0,0.0,0.0,0.0,0.0,0.0,0.0,0.0,0.0,0.0,0.0,0.0,0.0,0.0,0.0,0.0,0.0,0.0,0.0,0.0,0.0,0.0,0.0,0.0,0.0,0.0,0.0,0.0,0.0,0.0,0.0,0.0,0.0,0.0,0.0,0.0,0.0,0.0,0.0,0.0,0.0,0.0,0.0,0.0,0.0,0.0,0.0,0.0,0.0,0.0,0.0,0.0,0.0,0.0,0.0,0.0,0.0,0.0,0.0,0.0,0.0,0.0,0.0,0.0,0.0,0.0,0.0,0.0,0.0,0.0,0.0,0.0,0.0,0.0,0.0,0.0,0.0,0.0,0.0,0.0,0.0,0.0,0.0,0.0,0.0,0.0,0.0,0.0,0.0,0.0,0.0,0.0,0.0,0.0,0.0,0.0,0.0,0.0,0.0,0.0,0.0,0.0,0.0,0.0,0.0,0.0,0.0,0.0,0.0,0.0,0.0,0.0,0.0,0.0,0.0,0.0,0.0,0.0,0.0,0.0,0.0,0.0,0.0,0.0,0.0,0.0,0.0,0.0,0.0,0.0,0.0,0.0,0.0,0.0,0.0,0.0,0.0,0.0,0.0,0.0,0.0,0.0,0.0,0.0,0.0,0.0,0.0,0.0,0.0,0.0,0.0,0.0,0.0,0.0,0.0,0.0,0.0,0.0,0.0,0.0,0.0,0.0,0.0,0.0,0.0,0.0,0.0,0.0,0.0,0.0,0.0,0.0,0.0,0.0,0.0,0.0,0.0,0.0,0.0,0.0,0.0,0.0,0.0,0.0,0.0,0.0,0.0,0.0,0.0,0.0,0.0,0.0,0.0,0.0,0.0,0.0,0.0,0.0,0.0,0.0,0.0,0.0,0.0,0.0,0.0,0.0,0.0,0.0,0.0,0.0,0.0,0.0,0.5646,0.0,0.0,0.0,0.0,0.0,0.0,0.0,0.0,0.0,0.0,0.0,0.0,0.0,0.0,0.0,0.0,0.0,0.0,0.0,0.0,0.0,0.0,0.0,0.0,0.0,0.0,0.0,0.0,0.0,0.0,0.0,0.0,0.0,0.0,0.0,0.0,0.0,0.0,-0.1569,-0.1656,-0.2131,-0.2972,-0.3236,-0.3253,-0.3099,0.0,0.0,0.0,0.0,0.0,0.0,0.0,0.0,0.0,0.0,0.0,0.0,0.0,0.0,0.0,0.0,0.0,0.0,0.0,0.0,0.0,0.0,0.0,0.0,0.0,0.0,0.0,0.0,0.0,0.0,0.0,0.0,0.0,0.0,0.0,0.0,0.0,0.0,0.0,0.0,0.0,0.0,0.0,0.0,0.0,0.0,0.0,0.0,0.0,0.0,0.0,0.0,0.0,0.0,0.0,0.0,0.0,0.0,0.0,0.0,0.0,0.0,0.0,0.0,0.0,0.0,0.0,0.0,0.0,0.0,0.0,0.4369,0.0,0.0,0.0,0.0,0.0,0.0,0.0,0.0,0.0,0.0,0.0,0.0,0.0,0.0,0.0,0.0,0.0,0.0,0.0,0.0,0.0,0.0,0.0,-0.2505,-0.2509,-0.252,-0.2396,-0.231,0.0,0.0,0.0,0.0,0.0,0.0,-0.0084,-0.0646,-0.0804,-0.0498,-0.1238,-0.2066,-0.3112,-0.3112,-0.2999,-0.2838,-0.268,0.0,0.0,0.0,0.0,0.0,0.0,0.0,0.0,0.0,0.0,0.0,0.0,0.0,0.0,0.0,0.0,0.0,0.0,0.0,0.0,0.0,0.0,0.0,0.0,0.0,0.0,0.0,0.0,0.0,0.0,0.0,0.0,0.0,0.0,0.0,0.0,0.0,0.0,0.0,0.0,0.0,0.0,0.0,0.0,0.0,0.0,0.0,0.0,0.0,0.0,0.0,0.0,0.0,0.0,0.0,0.0,0.0,0.0,0.0,0.0,0.0,0.0,0.0,0.9667,1.0091,1.0362,1.0354,0.9116,0.6989,0.6473,0.5319,0.3703,0.0,0.0,0.0,0.0,0.0,0.0,0.0,0.0,0.0,0.0,0.0,0.0,0.0,0.0,0.0,0.0,0.0,0.0,0.0,0.0,0.0,0.0,-0.2288,-0.223,-0.244,-0.1867,-0.1785,-0.2444,0.0,0.0,0.0,0.0,0.0,0.1094,0.0739,0.0161,-0.0555,-0.1399,-0.2119,-0.2673,-0.3451,-0.3808,-0.3883,-0.3483,-0.3422,-0.3563,0.0,0.0,0.0,0.0,0.0,0.0,0.0,0.0,0.0,0.0,0.0,0.0,0.0,0.0,0.0,0.0,0.0,0.0,0.0,0.0,0.0,0.0,0.0,0.0,0.0,0.0,0.0,0.0,0.0,0.0,0.0,0.0,0.0,0.0,0.0,0.0,0.0,0.0,0.0,0.0,0.0,1.4293,1.3988,0.0,0.0,0.0,0.0,0.0,0.0,0.0,0.0,0.0,0.0,0.0,0.0,0.0,0.0,0.875,0.8248,0.8736,1.01,1.0207,1.0922,1.217,1.2163,1.1757,1.1031,1.0943,0.0,0.4793,0.3537,0.0,0.0,0.0,0.0,0.0,0.0,0.0,0.0,0.0,0.0,0.0,0.0,0.0,0.0,0.0,0.0,0.0,0.0,0.0,0.0,0.0,-0.1714,-0.1649,-0.1801,-0.1623,-0.1247,-0.0731,-0.0487,0.0,0.0,0.0,0.1862,0.1885,0.1637,0.07,-0.1033,-0.159,-0.2186,-0.2942,-0.3557,-0.417,-0.4778,-0.4214,-0.377,-0.3544,-0.2449,0.0,0.0,0.0,0.0,0.0,0.0,0.0,0.0,0.0,0.0,0.0,0.0,0.0,0.0,0.0,0.0,0.0,0.0,0.0,0.0,0.0,0.0,0.0,0.0,0.0,0.0,0.0,0.0,0.0,0.0,0.0,0.0,0.0,0.0,0.0,0.0,0.0,0.0,0.0,1.3956,1.3902,1.3901,1.3531,1.3157,0.0,0.0,0.0,0.0,0.0,0.0,0.0,0.0,0.0,1.3288,1.0912,1.0004,1.0856,1.0514,1.0664,1.1372,1.1376,1.1711,1.2336,1.2324,1.2143,1.1805,1.1795,1.0678,0.8689,0.6356,0.542,0.5224,0.0,0.0,0.0,0.0,0.0,0.3522,0.0,0.0,0.0,0.0,0.0,0.0,0.0,0.0,0.0,0.0,0.0,0.0,-0.1445,-0.1379,-0.1304,-0.1289,-0.1415,-0.1056,0.008,0.0943,0.1499,0.1707,0.1726,0.1824,0.1916,0.1497,0.0371,-0.1471,-0.1844,-0.2515,-0.3426,-0.3692,-0.4425,-0.5491,-0.4656,-0.4034,-0.3589,-0.2662,-0.2286,-0.2412,0.0,0.0,0.0,0.0,0.0,0.0,0.0,0.0,0.0,0.0,0.0,0.0,0.0,0.0,0.0,0.0,0.0,0.0,0.0,0.0,0.0,0.0,0.0,0.0,0.0,0.0,0.0,0.0,0.0,0.0,0.0,0.0,0.0,0.0,0.0,0.0,0.0,1.388,1.4032,1.4245,1.3714,1.3101,0.0,0.0,0.0,0.0,0.0,0.0,1.1896,1.2603,1.3681,1.514,1.1994,1.0976,1.2414,1.2335,1.2276,1.2291,1.2223,1.2231,1.2283,1.2219,1.1689,1.084,1.1305,1.1485,1.1227,0.8741,0.7472,0.684,0.4088,0.2738,0.2327,0.2331,0.3815,0.5891,0.0,0.0,0.0,0.0,0.0,0.0,0.0,0.0,0.0,0.0,0.0,-0.0607,-0.2122,-0.1782,-0.1478,-0.1588,-0.1286,-0.1211,-0.1444,0.0304,0.1805,0.28,0.2697,0.2086,0.1031,-0.0215,-0.1125,-0.1683,-0.2322,-0.3096,-0.3961,-0.3961,-0.4691,-0.5818,-0.4628,-0.4185,-0.4248,-0.4021,-0.3909,-0.3766,-0.3696,0.0,0.0,0.0,0.0,0.0,0.0,0.0,0.0,0.0,0.0,0.0,0.0,0.0,0.0,0.0,0.0,0.0,0.0,0.0,0.0,0.0,0.0,0.0,0.0,0.0,0.0,0.0,0.0,0.0,0.0,0.0,0.0,0.0,0.0,0.0,0.0,0.0,0.0,1.5685,1.4399,0.0,0.0,0.0,0.0,1.35,1.2629,1.1848,1.1367,1.1911,1.2301,1.2399,1.2207,1.2116,1.2224,1.2378,1.249,1.2467,1.2277,1.2303,1.2479,1.2287,1.0705,0.8189,0.9983,1.0601,1.0323,0.9658,0.8716,0.7404,0.4834,0.3814,0.3784,0.3798,0.4138,0.4796,0.0,0.0,0.0,0.0,0.0,0.0,0.0,0.0,-0.0157,0.0156,0.0306,0.015,-0.0506,-0.1358,-0.1845,-0.162,-0.1125,-0.0998,-0.1254,0.0074,0.1203,0.1876,0.1569,0.1075,0.0438,-0.0577,-0.1483,-0.2187,-0.2701,-0.3224,-0.3892,-0.3961,-0.4688,-0.5873,-0.4509,-0.4361,-0.514,-0.3921,-0.3727,-0.4094,-0.3823,-0.351,0.0,0.0,0.0,0.0,0.0,0.0,0.0,0.0,0.0,0.0,0.0,0.0,0.0,0.0,0.0,0.0,0.0,0.0,0.0,0.0,0.0,0.0,0.0,0.0,0.0,0.0,0.0,0.0,0.0,0.0,0.0,0.0,0.0,0.0,0.0,0.0,0.0,1.47,1.4,0.0,0.0,1.1619,1.2342,1.4847,1.4701,1.3713,1.1979,1.2089,1.2203,1.2203,1.3286,1.3857,1.3871,1.3931,1.3968,1.3983,1.3923,1.3912,1.3972,1.3915,1.2349,0.9751,1.0414,1.0663,1.0542,1.0173,0.9461,0.8442,0.693,0.5353,0.411,0.5745,0.774,0.9733,0.0,0.0,0.0,0.0,0.0,0.0,0.0,0.0,0.0546,0.0768,0.0907,0.0809,0.0352,-0.0695,-0.1305,-0.1417,-0.0942,-0.0614,-0.0708,-0.0,0.0596,0.0939,0.0464,0.0226,0.0219,-0.0858,-0.1812,-0.2491,-0.2691,-0.3023,-0.3422,-0.3825,-0.4353,-0.4935,-0.4243,-0.4381,-0.5051,-0.3758,-0.3674,-0.4402,-0.3873,-0.3629,-0.3505,0.0,0.0,0.0,0.0,0.0,0.0,0.0,0.0,0.0,0.0,0.0,0.0,0.0,0.0,0.0,0.0,0.0,0.0,0.0,0.0,0.0,0.0,0.0,0.0,0.0,0.0,0.0,0.0,0.0,0.0,0.0,0.0,0.0,0.0,0.0,1.3089,1.4397,1.4287,1.376,1.2904,1.2806,1.3676,1.5773,1.592,1.5091,1.3182,1.3086,1.3077,1.3088,1.4195,1.4812,1.4807,1.4794,1.4794,1.4807,1.4807,1.4794,1.4794,1.4796,1.3794,1.2087,1.2074,1.2075,1.2083,1.1897,1.1001,0.9652,0.8256,0.6363,0.4789,0.7661,1.0411,1.275,0.0,0.0,0.0,0.0,0.0,0.0,0.0,0.0636,0.094,0.1253,0.1578,0.1297,0.014,0.0273,0.0067,-0.094,-0.0605,-0.0202,0.0135,0.0142,0.0146,0.0073,-0.0364,-0.0364,0.0145,-0.1175,-0.2087,-0.2491,-0.2424,-0.249,-0.2686,-0.3558,-0.3685,-0.3203,-0.3776,-0.4051,-0.4025,-0.3565,-0.3937,-0.4796,-0.3859,-0.3716,-0.3862,0.0,0.0,0.0,0.0,0.0,0.0,0.0,0.0,0.0,0.0,0.0,0.0,0.0,0.0,0.0,0.0,0.0,0.0,0.0,0.0,0.0,0.0,0.0,0.0,0.0,0.0,0.0,0.0,0.0,0.0,0.0,0.0,0.0,1.2641,1.2352,1.3382,1.5106,1.5296,1.5449,1.5811,1.5886,1.5974,1.6214,1.6195,1.5758,1.4844,1.4797,1.4785,1.4775,1.4776,1.4788,1.4808,1.4816,1.4875,1.5,1.4844,1.4784,1.4794,1.4798,1.4803,1.4804,1.4802,1.4798,1.4814,1.4804,1.3439,1.1148,0.8823,0.7082,0.6269,0.959,1.1806,1.3281,0.0,0.0,0.0,0.0,0.0,0.0,0.1233,0.1403,0.1464,0.1532,0.1001,0.0483,0.0129,-0.013,-0.0196,-0.0,0.0133,0.1028,0.2997,0.1954,0.0875,-0.0,0.0073,-0.0215,-0.0894,-0.1423,-0.1748,-0.1817,-0.1951,-0.2017,-0.1878,-0.2146,-0.2476,-0.2802,-0.2457,-0.275,-0.3462,-0.2906,-0.3179,-0.3975,-0.4008,-0.3468,-0.2687,0.0,0.0,0.0,0.0,0.0,0.0,0.0,0.0,0.0,0.0,0.0,0.0,0.0,0.0,0.0,0.0,0.0,0.0,0.0,0.0,0.0,0.0,0.0,0.0,0.0,0.0,0.0,0.0,0.0,0.0,0.0,0.0,1.9594,1.6086,1.5912,1.5938,1.5359,1.5291,1.5848,1.7181,1.7316,1.7335,1.7421,1.6038,1.5081,1.4805,1.48,1.468,1.4449,1.4653,1.4791,1.4784,1.4798,1.625,1.9139,1.6186,1.48,1.4784,1.4782,1.48,1.4802,1.4809,1.4809,1.4811,1.4804,1.598,1.7441,1.4123,1.3392,1.4107,1.3307,1.3652,1.4473,0.0,0.0,0.0,0.0,0.0,0.0,0.1611,0.1713,0.176,0.1984,0.077,-0.0136,-0.0312,-0.0502,-0.0446,0.0194,0.0804,0.1815,0.3354,0.2382,0.1341,0.0219,0.0219,-0.0213,-0.1213,-0.148,-0.1412,-0.094,-0.0941,-0.0671,-0.0268,-0.0938,-0.1205,-0.1136,-0.1339,-0.1715,-0.2184,-0.2123,-0.2236,-0.2574,-0.2877,-0.301,-0.2992,-0.3089,-0.2246,-0.0891,-0.0539,0.0061,0.0697,0.0759,0.0,0.0,0.0,0.0,0.0,0.0,0.0,0.0,0.0,0.0,0.0,0.0,0.0,0.0,0.0,0.0,0.0,0.0,0.0,0.0,0.0,0.0,0.0,0.0,2.0794,2.0246,1.8665,1.8816,1.8665,1.7516,1.752,1.7999,1.9035,1.911,1.8801,1.7956,1.6764,1.6081,1.6092,1.5263,1.5101,1.5783,1.679,1.7321,1.7305,1.5638,1.5952,1.8253,1.5921,1.5257,1.6045,1.4904,1.5371,0.0,1.5188,1.5226,1.6535,1.5606,1.7388,0.0,0.0,0.0,0.0,0.0,1.5842,1.5567,0.0,0.0,0.0,0.0,0.0,0.0,0.1556,0.1726,0.1838,0.2268,0.0769,-0.0406,-0.0748,-0.0803,-0.0563,0.0065,0.1297,0.2141,0.2277,0.2134,0.1678,0.073,0.0362,-0.0212,-0.108,-0.1279,-0.0873,0.0134,0.0403,0.094,0.1676,0.0268,0.0134,0.1076,-0.0335,-0.086,-0.0582,-0.1165,-0.1251,-0.1004,-0.1126,-0.2219,-0.3655,-0.2459,-0.1379,-0.0395,0.0418,0.0796,0.0926,0.08,0.0,0.0,0.0,0.0,0.0,0.0,0.0,0.0,0.0,0.0,0.0,0.0,0.0,0.0,0.0,0.0,0.0,0.0,0.0,0.0,0.0,0.0,0.0,0.0,2.0706,2.0649,2.0353,2.0814,2.0957,2.0367,2.055,2.0729,2.0763,2.0721,2.0032,1.8332,1.8243,1.8233,1.8238,0.0,0.0,0.0,0.0,2.0454,2.0482,1.6926,1.5095,1.4996,1.5234,1.6319,1.8026,1.5572,1.6587,2.0017,1.6183,1.6358,1.92,1.7242,1.8309,2.1166,2.0831,1.8407,1.5457,1.8221,1.8174,0.0,0.0,0.0,0.0,0.0,0.0,0.0,0.1295,0.163,0.176,0.1488,0.0619,0.0133,0.0124,-0.0123,-0.0,0.0731,0.1193,0.177,0.2547,0.2561,0.2286,0.1751,0.0911,-0.0068,-0.1076,-0.0336,0.0403,0.1139,0.1274,0.1744,0.2484,0.2012,0.1678,0.148,0.1008,0.0469,-0.0133,-0.0267,-0.0322,-0.0367,-0.0312,-0.0658,-0.1163,0.0112,0.0564,0.073,0.1591,0.2008,0.2344,0.3083,0.2933,0.256,0.3364,0.3416,0.0,0.0,0.0,0.0,0.0,0.0,0.0,0.0,0.0,0.0,0.0,0.0,0.0,0.0,0.0,0.0,0.0,0.0,0.0,1.9886,2.0206,2.0377,2.0316,2.0408,2.045,2.0297,2.0366,2.0404,2.041,2.0415,2.0345,2.0243,2.0225,2.0227,2.0258,1.9869,0.0,2.0233,1.9093,1.8467,1.8461,1.7693,1.69,1.6179,0.0,0.0,1.9321,1.8786,1.9031,1.9797,1.9272,1.9753,2.0922,2.0484,2.0637,2.1024,2.0303,1.8767,1.7221,1.9262,1.9749,1.9562,0.0,0.0,0.0,0.0,0.0,0.0,0.1232,0.1325,0.1307,0.1226,0.099,0.0756,0.0908,0.0709,0.0787,0.1367,0.1874,0.2327,0.2846,0.2607,0.2165,0.1546,0.1095,0.0808,0.0805,0.215,0.282,0.2609,0.2683,0.3088,0.3756,0.2952,0.2485,0.2353,0.1748,0.1412,0.1343,0.1276,0.1178,0.1131,0.1719,0.1607,0.1051,0.0863,0.1191,0.1906,0.2523,0.2569,0.2456,0.3152,0.3112,0.2936,0.4102,0.5428,0.6254,0.0,0.0,0.0,0.0,0.0,0.0,0.0,0.0,0.0,0.0,0.0,0.0,0.0,0.0,1.866,0.0,0.0,1.9545,1.9943,2.0004,1.994,1.9733,1.9889,2.0071,2.0266,2.0297,2.0312,2.0292,2.0308,2.0365,2.0548,2.0553,2.0563,2.0542,1.9545,1.9362,2.0221,1.9325,1.8801,1.8825,1.8803,1.8474,1.781,1.8894,1.9401,1.9421,1.9399,1.9528,1.9784,1.9957,2.0118,2.0203,2.0497,2.0315,1.9849,1.997,1.967,1.9225,1.9951,2.046,2.0789,0.0,0.0,0.0,0.0,0.0,0.0,0.0,0.11,0.1005,0.1404,0.1535,0.1578,0.1579,0.1767,0.2063,0.2353,0.2876,0.3011,0.2645,0.2124,0.1622,0.1284,0.1551,0.202,0.2551,0.4247,0.4715,0.3951,0.3964,0.4236,0.4628,0.3489,0.3088,0.3291,0.2418,0.235,0.2952,0.2817,0.2768,0.2817,0.3744,0.3738,0.3053,0.1781,0.1964,0.2938,0.3198,0.2892,0.2481,0.3075,0.3111,0.3082,0.4296,0.7264,0.9825,0.7677,0.9724,0.0,0.0,0.0,0.0,0.0,0.0,0.0,0.0,0.0,2.2021,2.2048,2.0422,1.9641,2.1752,2.0456,1.9319,1.9974,1.9863,1.9596,1.9254,1.942,1.9743,2.0161,2.0106,2.0112,2.0177,2.0122,2.0111,2.0304,2.0162,2.0076,2.0083,1.8499,1.8167,1.9521,1.9972,1.9979,1.9598,1.9972,2.0014,1.9707,1.9615,1.9561,1.9557,1.953,1.9723,2.0052,1.9989,1.9708,1.9274,1.9667,1.9548,1.9202,1.991,2.0364,2.0635,2.0252,2.0533,2.0999,0.0,0.0,0.0,0.0,0.0,0.0,0.0,0.0,0.1401,0.1893,0.2365,0.2616,0.2311,0.3393,0.4163,0.4229,0.3891,0.3027,0.1429,0.0637,0.0746,0.1952,0.3238,0.337,0.2214,0.3431,0.4241,0.4573,0.437,0.4164,0.4095,0.3961,0.3756,0.3613,0.3544,0.3613,0.3882,0.3816,0.3946,0.4232,0.4736,0.4954,0.5012,0.4874,0.4364,0.3658,0.3413,0.3356,0.3613,0.5015,0.4577,0.354,0.3674,0.8006,1.3186,1.4006,1.4055,1.4595,1.7658,1.6576,1.5402,1.8612,2.0423,2.0871,0.0,0.0,1.9001,1.8999,1.8755,1.8783,1.9397,1.928,1.9118,1.9218,1.9496,1.9699,1.9622,1.9361,1.9328,1.9701,1.9441,1.9379,1.9741,1.9439,1.9519,2.0243,1.9641,1.9247,1.9214,1.9001,1.8975,1.9173,2.0967,2.1004,1.9208,2.0986,2.191,2.1828,2.1375,2.1126,2.1118,2.1141,2.1094,2.103,2.0677,2.0385,2.0157,1.9901,2.0286,2.0998,2.0399,2.012,2.0153,1.9837,1.9795,1.9946,0.0,0.0,0.0,0.0,0.0,0.0,0.0,0.0,0.0,0.263,0.3062,0.3497,0.3571,0.4288,0.4769,0.4761,0.4579,0.3734,0.1914,0.1813,0.1952,0.2083,0.3706,0.4317,0.3627,0.4239,0.4643,0.477,0.4434,0.4431,0.4625,0.4225,0.4225,0.4686,0.4217,0.4414,0.5077,0.4878,0.5042,0.5585,0.5785,0.5864,0.5911,0.5582,0.5521,0.5527,0.4293,0.4731,0.0,0.6365,0.7637,0.8858,0.7898,1.0728,1.444,1.4617,1.4737,1.5523,1.8374,1.8637,1.8566,0.0,2.1233,2.099,1.9067,1.8735,1.948,2.1835,2.1121,1.9982,1.952,1.9246,1.9365,0.0,2.0503,2.0622,2.0647,1.975,1.9141,1.9318,1.9182,1.9165,1.9339,1.9198,1.9222,1.9587,1.9276,1.9489,2.0384,2.0434,2.0439,2.042,2.1295,2.1842,2.2028,2.2487,2.2722,2.2736,2.2128,2.1667,2.1296,2.0832,2.0508,2.029,1.9842,1.9598,1.9538,1.929,1.9429,1.9732,1.9448,1.9366,1.9358,1.9514,1.973,1.9908,0.0,0.0,0.0,0.0,0.0,0.0,0.0,0.0,0.0,0.0,0.3682,0.4229,0.4929,0.5082,0.5234,0.5467,0.5391,0.4659,0.3119,0.3299,0.3211,0.2681,0.41,0.4919,0.4706,0.4843,0.484,0.4631,0.4498,0.4628,0.515,0.4688,0.4957,0.5885,0.5213,0.5474,0.6203,0.5873,0.6013,0.6482,0.6552,0.6683,0.6719,0.632,0.6633,0.7136,0.5536,0.6272,0.7995,0.7843,0.9799,1.2173,1.1725,1.3082,1.4598,1.3807,1.4788,1.6574,1.8744,2.0621,0.0,2.1588,2.1341,2.0863,1.9796,1.9641,2.0517,2.3375,2.2134,2.0645,2.1092,2.0941,2.1069,2.2156,2.2331,2.2308,2.2301,2.1268,2.0352,1.9816,2.0166,2.0493,2.0484,2.0018,1.9749,1.9727,1.9724,2.0247,2.1321,2.1883,2.2043,2.1851,2.185,2.2445,2.359,2.3107,2.2841,2.2847,2.2223,2.1375,2.0322,2.0017,1.9681,1.936,1.9254,1.9051,1.8814,1.8637,1.8511,1.8438,1.8689,1.8762,1.8824,1.9342,1.9625,1.9687,0.0,0.0,0.0,0.0,0.0,0.0,0.0,0.0,0.0,0.0,0.0,0.0,0.0,0.5938,0.5931,0.6784,0.6402,0.573,0.4787,0.4416,0.4174,0.3946,0.4894,0.5176,0.4831,0.4831,0.4631,0.43,0.4495,0.4821,0.5276,0.5481,0.6137,0.7116,0.6785,0.6859,0.7134,0.6946,0.6811,0.6741,0.6951,0.7279,0.7666,0.7761,0.8007,0.8115,0.7082,0.7604,0.8862,0.9566,1.0147,1.0989,1.3562,1.4247,1.3893,1.2666,1.5019,1.8092,1.9071,2.2339,2.4695,2.1614,2.0803,2.0814,2.0758,2.1011,2.1275,2.1387,1.9893,1.9889,2.4087,2.4841,2.485,2.4885,2.4867,2.4899,2.4893,2.446,2.3447,2.1526,2.288,2.3943,0.0,2.2372,2.1318,2.1324,2.1308,2.1332,2.1393,2.3058,2.3702,2.3091,2.3041,2.2808,2.2284,2.2224,2.2224,2.2202,2.1581,2.0113,1.813,1.9019,1.9078,1.8517,1.9372,1.9291,1.8395,1.8104,1.8037,1.8037,1.8546,1.868,1.8813,1.9365,1.9316,1.895,0.0,0.0,0.0,0.0,0.0,0.0,0.0,0.0,0.0,0.0,0.0,0.0,0.0,0.0,0.0,0.0,0.6859,0.6497,0.5937,0.5318,0.5026,0.5078,0.5119,0.5229,0.5229,0.5289,0.5223,0.503,0.4831,0.5153,0.6001,0.5745,0.6268,0.7512,0.7316,0.7391,0.7722,0.7396,0.7335,0.7335,0.7195,0.7277,0.7602,0.8215,0.8353,0.8313,0.0,0.8778,0.8921,1.0227,1.0632,1.0659,1.1567,1.3035,1.4606,1.5741,1.6998,1.8035,1.8395,2.1728,2.4431,2.1251,2.0639,2.0816,2.0798,2.0709,2.0712,2.091,2.0472,2.0484,2.1934,2.3493,2.4551,2.4548,2.4798,2.4995,2.5018,2.3465,2.3016,2.4761,2.5526,0.0,0.0,0.0,0.0,2.138,2.2127,2.2551,2.2522,2.2747,2.2757,2.2483,2.2515,2.2421,2.2187,2.1269,2.1049,2.1493,2.0353,1.9458,1.8713,1.9041,1.8916,1.8459,1.8694,1.8434,1.791,1.793,1.793,1.7774,1.8124,1.8269,1.8269,1.8472,1.8548,1.8609,0.0,0.0,0.0,0.0,0.0,0.0,0.0,0.0,0.0,0.0,0.0,0.0,0.0,0.0,0.0,0.0,0.0,0.7198,0.6707,0.6378,0.6193,0.6172,0.5962,0.5955,0.6235,0.6301,0.6331,0.6253,0.58,0.6017,0.6817,0.6489,0.6924,0.7907,0.7842,0.7977,0.8182,0.7734,0.7683,0.7822,0.7611,0.7669,0.7981,0.8632,0.884,0.0,0.9274,0.9299,0.9257,1.0337,1.0688,1.0779,1.1422,1.3136,1.5316,1.6998,1.7734,1.8228,1.9432,2.1966,2.3616,2.0962,2.0479,2.0605,2.0625,2.0334,2.0361,2.1334,2.17,2.1483,2.0468,2.1482,2.2824,2.3864,2.4287,2.4476,2.4524,2.3823,2.4161,2.6504,2.6008,2.4832,0.0,0.0,0.0,2.2035,2.2661,2.2992,2.2816,2.2437,2.2213,2.2209,2.1678,2.1451,2.1475,2.0314,1.9887,2.0248,1.9204,1.8701,1.8675,1.87,1.8529,1.824,1.8066,1.7794,1.7491,1.7588,1.752,1.7364,1.7725,1.7813,1.7813,1.7949,1.8076,1.8269,0.0,0.0,0.0,0.0,0.0,0.0,0.0,0.0,0.0,0.0,0.0,0.0,0.0,0.0,0.0,0.0,0.0,0.0,0.7277,0.7398,0.7434,0.7269,0.7255,0.7407,0.7702,0.7778,0.7781,0.7791,0.736,0.7334,0.7634,0.7705,0.7892,0.8218,0.8403,0.8457,0.8473,0.7971,0.79,0.815,0.8245,0.8427,0.8665,0.915,0.9442,0.9515,0.8991,0.935,1.0043,1.0043,1.0615,1.1525,1.3156,1.4675,1.6057,1.6562,1.7392,1.8825,2.1964,2.2837,2.2471,2.0656,2.0306,2.0358,2.0284,2.0097,2.0475,2.2483,2.3246,2.2686,0.0,0.0,2.0242,2.3111,2.3498,2.3351,2.3393,2.5349,2.6733,0.0,0.0,0.0,0.0,0.0,0.0,2.2981,0.0,2.278,2.2209,2.2083,2.2115,2.2067,2.079,2.007,2.0074,1.9415,1.8877,1.8512,1.8168,1.8016,1.8026,1.7969,1.7862,1.7638,1.7608,1.7401,1.7166,1.6968,1.6908,1.6908,1.7332,1.747,1.7539,1.7803,1.794,1.794,0.0,0.0,0.0,0.0,0.0,0.0,0.0,0.0,0.0,0.0,0.0,0.0,0.0,0.0,0.0,0.0,0.0,0.0,0.7622,0.7733,0.7725,0.7622,0.7992,0.8169,0.8102,0.8403,0.8429,0.8098,0.7873,0.797,0.8387,0.7861,0.7999,0.871,0.8334,0.8196,0.8344,0.812,0.8098,0.8207,0.8202,0.8408,0.8758,0.9504,0.9033,0.8212,0.919,1.0914,1.256,1.2546,1.2756,1.3256,1.5265,1.6618,1.732,1.6833,1.8501,2.0735,2.1526,2.2336,2.2336,1.9978,2.0564,2.1371,2.0151,2.1284,2.2668,2.2847,2.3004,2.2295,0.0,0.0,0.0,2.3145,2.1794,0.0,2.0385,2.4094,0.0,2.2965,0.0,2.1704,2.1694,2.2159,0.0,0.0,2.2165,2.2137,2.1483,2.0917,2.0647,2.0638,2.0289,2.0074,2.0128,1.8885,1.841,1.8649,1.7996,1.7862,1.824,1.7794,1.7529,1.7304,1.7314,1.7176,1.6968,1.6908,1.6908,1.6908,1.7047,1.7047,1.7047,1.7116,1.7185,1.7185,0.0,0.0,0.0,0.0,0.0,0.0,0.0,0.0,0.0,0.0,0.0,0.0,0.0,0.0,0.0,0.0,0.0,0.0,0.0,0.8317,0.8475,0.843,0.8972,0.9209,0.9124,0.9446,0.9547,0.9247,0.9029,0.8861,0.8737,0.8162,0.811,0.8394,0.8416,0.8503,0.8654,0.8536,0.8625,0.0,0.0,0.8749,0.9326,0.9733,0.9342,0.8801,1.0778,1.2318,1.3769,1.5636,1.6233,1.6412,1.7382,1.8416,1.905,1.8262,1.9621,2.1394,2.1405,2.105,2.0717,2.0783,2.1509,2.1955,2.1029,2.1736,2.2693,2.2876,2.2041,0.0,1.9575,0.0,0.0,0.0,0.0,0.0,2.2049,2.4613,2.5617,0.0,2.3057,0.0,2.2888,2.3204,2.3173,0.0,2.2017,2.1471,2.0751,2.0303,2.0235,2.0587,1.9661,1.9149,1.9193,1.8536,1.8218,1.8362,1.7997,1.7842,1.794,1.7529,1.7314,1.7166,0.0,1.6968,1.6908,1.6908,1.6908,1.6908,1.6908,1.6908,1.6908,1.7235,1.7304,1.7314,0.0,0.0,0.0,0.0,0.0,0.0,0.0,0.0,0.0,0.0,0.0,0.0,0.0,0.0,0.0,0.0,0.0,0.0,0.0,0.0,0.9404,0.9322,0.9899,1.0196,1.0322,1.0499,1.0639,1.0554,1.0188,0.9675,0.8844,0.8537,0.8284,0.7992,0.8603,0.8943,0.909,0.901,0.9278,0.9604,0.9064,0.9326,1.0009,0.0,1.0284,1.0662,1.3105,1.388,1.4421,1.8383,1.9714,1.9761,1.935,1.9891,2.0579,1.9981,2.0555,2.1424,2.1424,1.968,1.8669,2.1818,2.241,2.2183,2.2207,2.1652,2.1348,2.2087,0.0,1.917,1.9275,1.9303,2.0052,2.2443,0.0,2.3054,2.554,2.5882,2.5881,2.588,2.5428,2.5064,2.4886,2.4865,2.465,2.4141,2.2247,2.0836,2.0142,2.0083,2.0336,2.0886,1.911,1.8118,1.8024,1.82,1.8192,1.794,1.794,1.7735,1.747,1.7382,1.7235,1.7166,0.0,0.0,1.6908,1.6908,1.6908,1.683,1.6908,1.6908,1.7038,1.7696,1.7901,1.791,0.0,0.0,0.0,0.0,0.0,0.0,0.0,0.0,0.0,0.0,0.6857,0.6962,0.0,0.0,0.0,0.0,0.0,0.0,0.0,0.0,0.0,0.9322,1.0413,1.0807,1.0322,1.069,1.0667,1.0079,1.0194,0.9912,0.9173,0.8989,0.8937,0.9005,0.8675,0.8745,0.912,0.9085,0.9034,0.8969,0.9448,0.976,1.0067,1.139,0.0,0.0,1.5341,1.5825,1.576,1.8284,1.9414,1.9842,2.0268,2.0532,2.0602,1.999,2.0549,2.1377,2.1379,1.9674,1.8421,2.0533,2.1653,2.2193,2.2213,2.0907,0.0,0.0,1.8531,1.8436,1.9149,1.9331,1.9981,2.1962,0.0,0.0,0.0,0.0,2.5896,0.0,0.0,0.0,0.0,0.0,0.0,0.0,0.0,0.0,2.012,2.0112,1.9922,1.947,1.9091,1.859,1.8037,1.8066,1.793,1.7774,1.7442,1.7382,1.7539,1.7774,1.7501,1.6968,0.0,0.0,1.6908,1.6908,1.683,1.6682,1.683,1.7038,1.7382,1.7638,1.8037,1.8365,0.0,0.0,0.0,0.0,0.0,0.0,0.0,0.6327,0.656,0.7183,0.7522,0.7735,0.7664,0.806,0.8329,0.0,0.0,0.0,0.0,0.0,0.0,0.0,1.0542,1.0704,1.0303,1.0658,1.0487,0.9935,0.0,1.0326,0.9781,0.954,0.9463,0.9376,0.9037,0.8912,0.8903,0.9367,0.9437,0.9336,0.9723,0.9916,1.0096,1.2183,0.0,0.0,1.6101,1.6033,1.5474,1.7207,1.8516,1.9533,2.0418,2.0489,2.0182,1.9885,2.0752,2.1464,2.0011,1.9667,1.986,2.053,2.1052,2.156,2.2093,0.0,0.0,0.0,1.83,1.8163,1.8531,1.8976,0.0,2.0547,0.0,0.0,0.0,0.0,0.0,0.0,0.0,0.0,0.0,0.0,0.0,0.0,0.0,0.0,2.0479,1.9921,1.9497,1.9184,1.9183,1.8972,1.8498,1.8177,1.7834,1.7624,1.7605,1.7579,1.7451,1.8104,1.8172,1.7774,1.7901,0.0,1.7176,1.689,1.6682,1.6603,1.6621,1.6968,1.7579,1.7978,1.8442,1.8977,0.0,0.0,0.0,0.0,0.0,0.0,0.0,0.6891,0.7173,0.7546,0.8005,0.8327,0.8331,0.8659,0.8936,0.0,0.0,0.0,0.0,0.0,0.0,0.0,0.0,0.0,1.0299,0.0,0.0,0.9992,1.0565,0.0,0.0,0.0,0.0,0.0,0.9497,0.9346,0.9271,0.9728,0.9873,0.0,0.0,1.0507,0.0,0.0,0.0,0.0,0.0,1.6293,1.5315,1.6772,1.8066,1.931,2.0711,2.0564,1.987,2.0348,2.1515,2.2097,1.9659,2.0275,2.1527,2.1171,2.1038,2.1149,2.1715,2.071,0.0,1.9793,1.9158,1.847,1.8057,1.8702,1.9204,0.0,2.0455,2.249,0.0,0.0,0.0,0.0,0.0,0.0,0.0,0.0,0.0,0.0,0.0,0.0,2.0992,2.0041,1.9486,1.9429,1.9365,1.9292,1.9126,1.8668,1.8323,1.8171,1.8398,1.8262,1.7909,1.8785,1.8926,1.8499,1.8375,0.0,0.0,1.7157,1.701,1.695,1.6612,1.7166,1.8046,1.8307,1.8911,1.9562,0.0,0.0,0.0,0.0,0.0,0.0,0.0,0.7049,0.7219,0.7951,0.8093,0.8336,0.887,0.9135,0.934,0.0,0.0,0.0,0.0,0.0,0.0,0.0,0.0,0.0,0.0,0.0,0.0,1.0443,1.0663,0.0,0.0,0.0,0.0,0.0,0.0,1.0265,1.083,1.0168,0.0,0.0,0.0,0.0,0.0,0.0,0.0,0.0,0.0,1.8076,1.6919,1.8533,1.9152,1.9676,2.1973,2.1355,2.0152,2.2047,0.0,0.0,2.2719,2.2415,2.2409,2.2339,2.2136,2.176,2.0935,0.0,2.0696,2.142,2.0948,1.991,1.8284,1.874,1.9075,1.8252,1.8958,2.0658,2.3804,0.0,0.0,0.0,0.0,0.0,0.0,0.0,0.0,0.0,0.0,0.0,0.0,2.0902,2.0318,2.006,1.9803,1.969,1.9785,1.9735,1.991,2.0236,2.0255,1.9897,1.932,2.0065,1.9697,1.8509,0.0,0.0,0.0,1.8375,1.824,1.7969,1.751,1.7978,1.8844,1.8375,1.8988,2.0009,0.0,0.0,0.0,0.0,0.0,0.0,0.7171,0.707,0.73,0.7977,0.8178,0.8403,0.8784,0.9286,0.965,0.9729,0.0,0.0,0.0,0.0,0.0,0.0,0.0,0.0,0.0,0.0,1.0447,1.0887,1.0932,0.0,0.0,0.0,0.0,0.0,0.0,1.0771,1.1043,1.0754,0.0,0.0,0.0,0.0,0.0,0.0,0.0,0.0,0.0,0.0,1.8466,1.9117,1.9287,1.9574,2.1053,2.0594,1.9946,2.221,2.339,2.387,2.3768,2.3644,2.3364,2.2505,2.1732,2.1236,2.1485,0.0,2.0754,2.1344,2.0586,1.9778,1.9627,1.9003,1.8431,1.8088,1.8695,1.9922,2.1717,0.0,0.0,0.0,0.0,0.0,0.0,0.0,0.0,0.0,0.0,0.0,0.0,2.2648,2.145,2.1124,2.1133,2.11,2.1079,2.0655,2.0575,2.0772,2.0799,2.0572,2.0002,2.0749,2.0566,1.966,0.0,0.0,0.0,1.8442,1.824,1.8182,1.791,1.8148,1.8716,1.852,1.8871,1.9368,0.0,0.0,0.0,0.0,0.0,0.6741,0.7163,0.707,0.73,0.8049,0.8327,0.8479,0.8784,0.9227,0.9554,0.971,0.9761,0.0,0.0,0.0,0.0,0.0,0.0,0.0,0.0,0.0,1.0559,1.1093,1.131,1.1446,0.0,0.0,1.2264,1.2277,0.0,0.0,0.0,0.0,0.0,0.0,0.0,0.0,0.0,0.0,0.0,0.0,0.0,0.0,0.0,0.0,0.0,1.9746,1.9947,1.9883,2.0041,2.1815,2.2723,2.3362,2.3717,2.3881,2.3672,2.2659,2.1697,2.1176,0.0,0.0,2.0934,2.1014,2.042,2.012,2.0797,1.9752,1.8843,1.913,1.9832,2.0821,2.1983,2.4729,0.0,0.0,0.0,0.0,0.0,0.0,0.0,0.0,0.0,0.0,0.0,2.4173,2.2603,2.2264,2.2306,2.2273,2.2145,2.1733,2.1639,2.186,2.1973,2.1636,2.0967,2.1396,2.1185,2.041,0.0,0.0,0.0,1.8777,1.8517,1.8507,1.8035,1.8196,1.8648,1.8521,1.8753,1.9039,0.0,0.0,0.0,0.0,0.0,0.0,0.7143,0.707,0.7368,0.8273,0.8403,0.8556,0.8946,0.9027,0.9027,0.9027,0.9223,0.0,0.0,0.0,0.0,0.0,0.0,0.0,0.0,0.0,1.1093,1.1125,1.1929,1.2325,1.2298,1.2305,1.2318,1.2257,0.0,0.0,0.0,0.0,0.0,0.0,0.0,0.0,0.0,0.0,0.0,0.0,0.0,0.0,0.0,0.0,0.0,0.0,0.0,1.9553,2.0668,2.0852,2.1655,2.2459,2.2577,2.2881,2.3127,2.3083,2.2588,2.1988,0.0,2.1624,2.1426,2.0701,2.0904,2.1272,2.1731,2.1108,2.0829,2.1645,2.2457,2.3604,2.5584,2.349,0.0,0.0,0.0,0.0,0.0,0.0,0.0,0.0,0.0,0.0,0.0,2.4992,2.3906,2.3371,2.3102,2.3004,2.3001,2.299,2.3361,2.4189,2.4177,2.3578,2.2389,2.2274,2.1543,0.0,0.0,0.0,0.0,1.9563,1.9356,1.925,1.8082,1.8027,1.8692,1.8385,1.8754,1.9408,0.0,0.0,0.0,0.0,0.0,0.0,0.0,0.7458,0.7686,0.8114,0.8321,0.8479,0.8784,0.8784,0.878,0.877,0.9,0.0,0.0,0.0,0.0,0.0,0.0,0.0,0.0,0.0,1.0582,1.1125,1.1929,1.2331,1.2325,1.2291,1.2285,1.2285,1.2038,1.2771,0.0,0.0,0.0,0.0,0.0,0.0,0.0,0.0,0.0,0.0,0.0,0.0,0.0,0.0,0.0,0.0,0.0,0.0,0.0,1.9598,2.0775,2.1828,2.2147,2.2236,2.2339,2.2804,2.2093,2.1428,2.1881,2.1415,2.0933,2.1018,2.0924,2.1021,2.1706,2.1553,2.1537,2.172,2.2007,2.2382,0.0,0.0,0.0,0.0,0.0,0.0,0.0,0.0,0.0,0.0,0.0,0.0,0.0,2.5217,2.4612,2.399,2.3824,2.3796,2.3824,2.3824,2.397,2.42,2.42,2.3773,2.305,2.234,0.0,0.0,0.0,0.0,0.0,1.9668,1.9668,1.977,1.8942,1.8823,1.9124,1.866,1.8581,1.8725,0.0,0.0,0.0,0.0,0.0,0.0,0.0,0.7623,0.787,0.8392,0.8506,0.8703,0.9074,0.8998,0.8836,0.8737,0.9074,0.0,0.0,0.0,0.0,0.0,0.0,0.0,1.0364,1.0353,1.0742,1.1545,1.1774,1.1819,1.1815,1.2177,1.258,1.317,1.3193,1.3695,0.0,0.0,0.0,0.0,0.0,0.0,1.6338,0.0,0.0,0.0,0.0,0.0,0.0,0.0,0.0,0.0,0.0,0.0,0.0,0.0,2.0224,2.1166,2.1078,2.1235,2.1499,2.1939,2.1431,0.0,2.1884,2.1309,2.076,2.1324,2.1221,2.1205,2.1696,2.1558,2.1415,2.1763,2.2646,2.3353,0.0,0.0,0.0,0.0,0.0,0.0,0.0,0.0,0.0,0.0,0.0,0.0,0.0,0.0,2.5111,2.4661,2.4325,2.4227,2.4227,2.4177,2.42,2.42,2.42,2.3936,2.3349,2.2477,0.0,0.0,0.0,0.0,0.0,1.9668,1.9657,1.979,1.9177,1.8945,1.894,1.8759,1.8585,1.8395,0.0,0.0,0.0,0.0,0.0,0.0,0.0,0.7588,0.7941,0.8782,0.8851,0.9059,0.9739,0.9437,0.9044,0.8708,0.0,0.0,0.0,0.0,0.0,0.0,0.0,0.0,1.1081,1.1081,1.1477,1.2291,1.1459,1.1067,1.1082,1.2081,1.3252,1.4524,1.4506,1.4552,1.4624,0.0,0.0,0.0,0.0,0.0,0.0,0.0,0.0,0.0,0.0,0.0,0.0,0.0,0.0,0.0,0.0,0.0,0.0,0.0,0.0,0.0,0.0,2.0026,2.0718,2.073,2.0591,2.0753,2.1667,2.115,0.0,2.1582,2.178,2.1803,2.1807,2.1166,2.0933,2.1704,2.4133,0.0,0.0,0.0,0.0,0.0,0.0,0.0,0.0,0.0,0.0,0.0,0.0,0.0,0.0,0.0,2.5254,2.5254,2.4587,2.4253,2.4253,2.4238,2.42,2.42,2.42,2.3936,2.3361,2.2707,0.0,0.0,0.0,0.0,0.0,1.9583,1.9408,1.9408,1.8879,1.85,1.8353,1.8718,1.8681,1.8473,0.0,0.0,0.0,0.0,0.0,0.0,0.0,0.0,0.0,0.0,0.8995,0.9421,0.901,0.9432,0.9427,0.0,0.0,0.0,0.0,0.0,0.0,0.0,0.0,0.0,1.1057,1.1119,1.1508,1.2318,1.1489,1.1089,1.1181,1.355,1.4348,1.3777,1.3735,1.4403,1.5509,1.5338,0.0,0.0,0.0,0.0,0.0,0.0,0.0,0.0,1.8567,1.8714,0.0,0.0,0.0,0.0,0.0,0.0,0.0,0.0,2.0004,1.9881,2.0085,0.0,1.9981,1.9975,1.9314,1.8877,0.0,1.9806,1.9905,2.1107,2.1866,2.2182,2.1866,2.1665,2.16,2.1741,2.4148,0.0,0.0,0.0,0.0,0.0,0.0,0.0,0.0,0.0,0.0,0.0,0.0,0.0,0.0,0.0,2.5147,2.4909,2.4743,2.4622,2.4622,2.436,2.4299,2.4525,2.4284,2.3936,2.3349,2.258,0.0,0.0,0.0,0.0,2.002,1.9346,1.9372,1.9812,1.8558,1.8594,1.9183,1.8532,1.8374,1.8498,0.0,0.0,0.0,0.0,0.0,0.0,0.0,0.0,0.0,0.0,0.0,0.9851,0.9846,0.9546,0.0,0.0,0.0,0.0,0.0,0.0,0.0,0.0,0.0,1.162,1.1675,1.1649,1.1877,1.2271,1.2592,1.2532,1.2257,1.3827,1.4543,1.4525,1.4577,1.5035,1.5797,1.6131,1.6325,1.636,1.7088,0.0,0.0,0.0,0.0,0.0,1.8965,1.8977,0.0,1.866,1.8813,1.9121,0.0,0.0,0.0,0.0,2.0582,2.0442,2.0658,2.0407,2.006,2.0091,1.9545,1.9049,1.9021,1.9531,2.0335,2.1355,2.1871,2.2168,2.2456,2.2597,2.2743,2.3167,2.5958,0.0,0.0,0.0,0.0,0.0,0.0,0.0,0.0,0.0,0.0,0.0,0.0,0.0,0.0,0.0,2.5194,2.5052,2.4957,2.4766,2.4527,2.4299,2.4238,2.4429,2.4273,2.3936,2.3361,2.2719,0.0,0.0,0.0,0.0,2.0237,1.9898,1.9935,2.0149,1.9164,1.9115,1.9459,1.8895,1.868,1.8771,0.0,0.0,0.0,0.0,0.0,0.0,0.0,0.0,0.0,0.0,0.0,0.0,0.0,0.0,0.0,0.0,0.0,0.0,0.0,0.0,0.0,0.0,1.2331,1.2318,1.2278,1.2565,1.2618,1.267,1.3923,1.4263,1.3659,1.3885,1.4688,1.5976,1.6005,1.5886,1.5834,1.6474,1.679,1.6954,1.7748,0.0,0.0,0.0,0.0,0.0,0.0,0.0,0.0,1.9354,1.9584,1.9955,2.0194,0.0,0.0,0.0,0.0,0.0,2.1418,2.1156,2.0897,2.0871,2.0758,2.0487,1.9555,2.0338,2.136,2.1859,2.1962,2.232,2.3408,2.3768,0.0,0.0,0.0,0.0,0.0,0.0,0.0,0.0,0.0,0.0,0.0,0.0,0.0,0.0,0.0,0.0,0.0,0.0,0.0,2.5241,2.5111,2.4814,2.4264,2.4238,2.4273,2.4273,2.42,2.389,2.3316,2.288,2.2308,0.0,0.0,0.0,2.0464,2.0526,2.0537,2.042,1.9979,1.9727,1.9508,1.944,1.9262,1.9149,0.0,0.0,0.0,0.0,0.0,0.0,0.0,0.0,0.0,0.0,0.0,0.0,0.0,0.0,0.0,0.0,0.0,0.0,0.0,0.0,0.0,1.2294,1.2283,1.2317,1.231,1.3613,1.4219,1.4244,1.4514,1.4522,1.4426,1.5777,1.651,1.6749,1.6756,1.6368,1.5826,1.5922,1.6306,1.6996,1.7996,0.0,0.0,0.0,0.0,0.0,0.0,0.0,0.0,1.9727,2.0366,2.119,2.1261,0.0,0.0,0.0,0.0,0.0,2.2524,2.2973,2.3067,2.2281,2.2398,2.2621,2.245,2.2291,2.21,2.1948,2.2496,2.3379,2.4523,2.5047,2.5853,0.0,0.0,0.0,0.0,0.0,0.0,0.0,0.0,0.0,0.0,0.0,0.0,0.0,0.0,0.0,0.0,0.0,0.0,2.5111,2.4921,2.4706,2.4478,2.4418,2.4418,2.4418,2.4273,2.3707,2.28,2.2708,2.2102,0.0,0.0,2.0786,2.0635,2.0187,2.0266,2.0579,1.9772,1.9746,2.0018,1.9778,1.969,1.9854,0.0,0.0,0.0,0.0,0.0,0.0,0.0,0.0,0.0,0.0,0.0,0.0,0.0,0.0,0.0,0.0,0.0,0.0,0.0,0.0,1.4784,1.48,1.4776,1.4784,1.4824,1.5463,1.5874,1.5833,1.5842,1.586,1.5826,1.6549,1.6881,1.6899,1.7301,1.7222,1.6664,1.648,1.7001,1.793,0.0,0.0,0.0,0.0,0.0,0.0,0.0,0.0,0.0,0.0,2.1008,2.1493,2.1796,0.0,0.0,0.0,0.0,0.0,2.2786,2.3416,2.3876,2.386,2.4013,2.4183,2.4004,2.3394,2.2898,2.3031,2.328,2.3819,0.0,0.0,0.0,0.0,0.0,0.0,0.0,0.0,0.0,0.0,0.0,0.0,0.0,0.0,0.0,0.0,0.0,0.0,0.0,0.0,0.0,0.0,2.4566,2.4625,2.4838,2.4718,2.4562,2.4345,2.4273,2.381,2.3087,2.2811,2.2271,2.143,0.0,2.0978,2.0828,2.0653,2.0687,2.0771,2.0293,2.0277,2.0461,2.0401,2.0554,2.0895,0.0,0.0,0.0,0.0,0.0,0.0,0.0,0.0,0.0,0.0,0.0,0.0,0.0,0.0,0.0,0.0,0.0,0.0,0.0,1.5598,1.692,1.6902,1.6926,1.6908,1.6928,1.6874,1.6924,1.6866,1.7278,1.7449,1.7385,1.7415,1.7425,1.7423,1.7969,1.8066,1.7793,1.7579,1.7998,1.8822,0.0,0.0,0.0,0.0,0.0,0.0,0.0,0.0,0.0,0.0,0.0,0.0,0.0,0.0,0.0,2.2359,2.2482,2.2567,2.3009,2.3536,2.4209,2.5032,2.5314,2.5357,2.5263,2.4549,2.4055,2.4469,2.4318,0.0,0.0,0.0,0.0,0.0,0.0,0.0,0.0,0.0,0.0,0.0,0.0,0.0,0.0,0.0,0.0,0.0,0.0,0.0,0.0,0.0,0.0,0.0,2.402,2.421,2.4613,2.4531,2.4446,2.4273,2.4273,2.3996,2.349,2.3098,2.258,2.197,2.1578,2.1273,2.1019,2.1158,2.1158,2.106,2.0993,2.0903,2.0976,2.1026,2.1334,2.1635,0.0,0.0,0.0,0.0,0.0,0.0,0.0,0.0,0.0,0.0,0.0,0.0,0.0,0.0,0.0,0.0,0.0,0.0,0.0,1.6794,1.6926,1.6915,1.6921,1.6869,1.6908,1.6917,1.6876,1.6867,1.8281,1.8947,1.8937,1.8937,1.8937,1.8937,1.8961,1.8843,1.864,1.9044,1.9137,1.8988,1.9386,0.0,0.0,0.0,0.0,0.0,0.0,0.0,0.0,0.0,0.0,0.0,0.0,0.0,2.242,2.242,2.2604,2.296,2.353,2.382,2.4286,2.5361,2.5744,2.6002,2.663,2.6259,2.5824,2.5769,2.5924,0.0,0.0,0.0,0.0,0.0,0.0,0.0,0.0,0.0,0.0,0.0,0.0,0.0,0.0,0.0,0.0,0.0,0.0,0.0,0.0,0.0,0.0,0.0,0.0,2.3106,2.3129,2.3595,2.4002,2.449,2.449,2.4211,2.3688,2.3653,2.3107,2.2201,2.2155,2.1853,2.14,2.1388,2.1474,2.1635,2.1651,2.1651,2.1639,2.1639,2.1577,2.1521,0.0,0.0,0.0,0.0,0.0,0.0,0.0,0.0,0.0,0.0,0.0,0.0,0.0,0.0,0.0,0.0,0.0,0.0,0.0,1.6447,1.6237,1.6184,1.7918,1.8873,1.8893,1.8488,1.8272,1.8259,1.9055,1.9385,1.9452,1.9631,1.9544,1.9323,1.9557,1.9459,1.9096,1.9383,1.9692,1.9901,2.0096,2.0549,0.0,0.0,0.0,0.0,0.0,0.0,0.0,0.0,2.1937,2.2123,2.2173,2.2359,2.2616,2.2665,2.2787,2.3033,2.3717,2.3955,2.4272,2.5401,2.5727,2.5918,2.663,2.6808,2.6623,2.5921,2.6504,0.0,0.0,0.0,0.0,0.0,0.0,0.0,0.0,0.0,0.0,0.0,0.0,0.0,0.0,0.0,0.0,0.0,0.0,0.0,0.0,0.0,0.0,0.0,0.0,2.3173,2.3494,2.3685,2.3985,2.4366,2.4565,2.4612,2.4401,2.391,2.3479,2.3107,2.2805,2.255,2.243,2.2507,2.245,2.2145,2.1827,2.1761,2.1812,2.1761,2.1823,2.204,0.0,0.0,0.0,0.0,0.0,0.0,0.0,0.0,0.0,0.0,0.0,0.0,0.0,0.0,0.0,0.0,0.0,0.0,1.6585,1.6052,1.6113,1.6821,1.8724,1.9808,1.9912,1.9479,1.9219,1.9245,1.9557,1.9756,1.969,2.0053,2.0009,1.9649,2.0151,2.014,1.9704,1.9987,2.0313,2.0741,2.0828,2.1083,0.0,0.0,0.0,0.0,0.0,0.0,0.0,0.0,2.2173,2.2371,2.2482,2.2616,2.28,2.2848,2.3034,2.3346,2.3863,2.3983,2.4284,2.5438,2.559,2.5672,2.65,2.7084,2.7296,2.6864,2.73,2.7765,2.774,0.0,0.0,0.0,0.0,0.0,0.0,0.0,0.0,0.0,0.0,0.0,0.0,0.0,0.0,0.0,0.0,0.0,0.0,0.0,0.0,0.0,0.0,2.2779,2.3137,2.337,2.3556,2.378,2.4412,2.4767,2.4909,2.439,2.405,2.3886,2.3546,2.3311,2.3159,2.3293,2.3065,2.2633,2.2266,2.2079,2.1999,2.1812,2.2067,2.2527,0.0,0.0,0.0,0.0,0.0,0.0,0.0,0.0,0.0,0.0,0.0,0.0,0.0,0.0,0.0,0.0,0.0,0.0,1.587,1.58,1.6817,1.9003,1.9089,1.926,1.9613,1.9484,1.9498,1.961,1.9954,1.9998,1.9801,2.0194,2.0302,2.0096,2.07,2.0764,2.0635,2.1031,2.1273,2.1388,2.1388,2.1537,2.1698,0.0,0.0,0.0,0.0,0.0,0.0,0.0,2.2309,2.2247,2.2629,2.28,2.2921,2.2909,2.3423,2.3999,2.4013,2.3999,2.4277,2.5508,2.5384,2.5247,2.6452,2.7235,2.7971,2.8818,2.8576,2.8299,2.8693,0.0,0.0,0.0,0.0,0.0,0.0,0.0,0.0,0.0,0.0,0.0,0.0,0.0,0.0,0.0,0.0,0.0,0.0,0.0,0.0,0.0,0.0,0.0,2.1698,2.2384,2.2698,2.2721,2.3946,2.4725,2.5111,2.5123,2.4837,2.4279,2.4279,2.3982,2.3506,2.3494,2.3329,2.2991,2.2991,2.2666,2.2197,2.1999,2.227,2.2728,0.0,0.0,0.0,0.0,0.0,0.0,0.0,0.0,0.0,0.0,0.0,0.0,0.0,0.0,0.0,0.0,0.0,0.0,1.6251,1.6232,1.7091,1.9019,1.8833,1.8909,1.9477,1.9888,1.9987,1.9779,1.99,2.002,2.0227,2.0582,2.0828,2.0892,2.1146,2.1198,2.1198,2.1273,2.1336,2.1388,2.1549,2.1686,2.1812,0.0,0.0,0.0,0.0,0.0,0.0,0.0,0.0,0.0,2.2787,2.3243,2.3603,2.3142,2.3504,2.4094,2.4433,2.4627,0.0,2.5994,0.0,0.0,2.7284,2.7635,2.8054,2.8851,2.8148,2.7509,2.7875,0.0,0.0,0.0,0.0,0.0,0.0,0.0,0.0,0.0,0.0,0.0,0.0,0.0,0.0,0.0,0.0,0.0,0.0,0.0,0.0,0.0,0.0,0.0,2.2073,2.2217,2.2543,2.2915,2.3664,2.4266,2.4701,2.4944,2.5028,2.4885,2.4885,2.4801,2.4622,2.4309,2.4126,2.3989,2.3125,2.2679,2.2548,2.2356,2.2622,2.3128,0.0,0.0,0.0,0.0,0.0,0.0,0.0,0.0,0.0,0.0,1.4011,1.4791,0.0,0.0,0.0,0.0,0.0,0.0,0.0,1.6398,1.712,1.8637,1.8537,1.8781,1.9581,2.0205,2.0442,2.0453,2.0442,2.0571,2.0711,2.1094,2.136,2.1423,2.1537,2.16,2.1537,2.1463,2.1526,2.1726,2.1874,2.2011,2.2247,0.0,0.0,0.0,0.0,0.0,0.0,0.0,0.0,0.0,2.2969,2.3255,2.3649,2.3463,2.3703,2.4171,2.4969,2.5055,0.0,2.6317,2.6352,2.6298,2.7079,0.0,0.0,0.0,0.0,2.7697,0.0,0.0,0.0,0.0,0.0,0.0,0.0,0.0,0.0,0.0,0.0,0.0,0.0,0.0,0.0,0.0,0.0,0.0,0.0,0.0,0.0,0.0,0.0,0.0,2.2197,2.2197,2.2354,2.2678,2.3207,2.3616,2.3941,2.4821,2.5182,2.5182,2.5182,2.5182,2.5158,2.4905,2.4711,2.4458,2.3699,2.3329,2.3161,2.3031,2.3285,2.3759,0.0,0.0,0.0,0.0,0.0,0.0,0.0,0.0,0.0,0.0,1.6315,1.5877,0.0,0.0,0.0,0.0,0.0,0.0,0.0,1.6379,1.6888,1.7965,1.8253,1.8858,1.9922,2.042,2.0869,2.1285,2.1336,2.1325,2.1198,2.1663,2.1874,2.1761,2.1874,2.1839,2.1628,2.1467,2.1682,2.2115,2.2151,2.2359,2.2725,2.2836,0.0,0.0,0.0,0.0,0.0,0.0,0.0,0.0,2.3078,2.3115,2.3301,2.3752,2.4027,2.4319,2.5418,2.5358,2.5271,2.6512,2.6178,0.0,2.6503,2.7826,2.8951,2.9157,0.0,0.0,0.0,0.0,0.0,0.0,0.0,0.0,0.0,0.0,0.0,0.0,0.0,0.0,0.0,0.0,0.0,0.0,0.0,0.0,0.0,0.0,0.0,0.0,0.0,0.0,2.2197,2.2197,2.2197,0.0,2.2727,2.2979,2.3039,2.4554,2.5264,2.5312,2.5312,2.5312,2.5312,2.5312,2.5023,2.459,2.4542,2.4242,2.3845,2.3899,2.4201,2.453,0.0,0.0,0.0,0.0,0.0,0.0,0.0,0.0,0.0,0.0,0.0,0.0,0.0,0.0,0.0,0.0,0.0,0.0,0.0,1.6406,1.6536,1.6807,1.8511,1.9738,2.0409,2.0933,2.1376,2.1765,2.1514,2.1526,2.1737,2.1862,2.2049,2.2235,2.2297,2.1945,2.1451,2.1548,2.1414,2.1226,2.1829,2.2297,2.2698,2.2855,2.2909,0.0,0.0,0.0,0.0,0.0,0.0,0.0,2.3078,2.3452,2.3752,2.3374,2.3962,2.4765,2.4998,2.5322,0.0,2.7246,2.7872,2.8191,2.8208,2.8498,2.8646,2.8342,0.0,0.0,0.0,0.0,0.0,0.0,0.0,0.0,0.0,0.0,0.0,0.0,0.0,0.0,0.0,0.0,0.0,0.0,0.0,0.0,0.0,0.0,0.0,0.0,0.0,2.2197,2.2197,2.2197,2.2197,0.0,2.2727,2.2979,2.3015,2.4169,2.4915,2.5312,2.5312,2.5312,2.5312,2.5312,2.524,2.5095,2.4687,2.4458,2.4362,2.451,2.4718,2.508,0.0,0.0,0.0,0.0,0.0,0.0,0.0,0.0,0.0,0.0,0.0,0.0,0.0,0.0,0.0,0.0,0.0,0.0,0.0,0.0,1.7584,1.7709,1.9381,2.0462,2.0858,2.1639,2.2025,2.2149,2.2149,2.2161,2.2309,2.2359,2.2482,2.2665,2.2555,2.2298,2.1913,2.1712,2.1568,2.1493,2.1882,2.2222,2.2498,2.2636,2.2731,2.2913,2.2702,0.0,0.0,0.0,0.0,0.0,0.0,0.0,2.3624,2.3884,2.4255,2.4761,2.5531,2.5843,0.0,2.7249,0.0,2.8883,2.8521,2.8512,2.8522,0.0,0.0,0.0,0.0,0.0,0.0,0.0,0.0,0.0,0.0,0.0,0.0,0.0,0.0,0.0,0.0,0.0,0.0,0.0,0.0,0.0,0.0,0.0,0.0,0.0,2.2197,2.2197,2.2197,2.2197,2.2197,2.2197,2.2474,2.2739,2.3003,2.3797,2.4446,2.4927,2.4927,2.5281,2.5791,2.5791,2.6057,2.6296,2.6088,2.5963,2.5895,2.5852,2.5865,2.5902,0.0,0.0,0.0,0.0,0.0,0.0,0.0,0.0,0.0,0.0,0.0,0.0,0.0,0.0,0.0,0.0,0.0,0.0,0.0,0.0,0.0,1.9544,2.0527,2.1146,2.1376,2.2285,2.2678,2.2604,2.2848,2.2921,2.286,2.2909,2.2969,2.303,2.2822,2.258,2.2375,2.1861,2.1738,2.1859,2.1936,2.2083,2.2284,2.2376,2.2483,2.2546,2.2471,2.271,2.2987,2.282,0.0,0.0,0.0,0.0,2.3245,2.4381,2.4458,2.4509,2.6138,2.6565,2.6673,2.7254,2.834,0.0,2.843,2.8427,0.0,0.0,0.0,0.0,0.0,0.0,0.0,0.0,0.0,0.0,0.0,0.0,0.0,0.0,0.0,0.0,0.0,0.0,0.0,0.0,0.0,0.0,0.0,0.0,2.2197,2.2197,2.2197,2.2197,2.2197,2.2197,2.2197,2.2197,2.2197,2.2426,2.2859,2.3292,2.3869,2.4518,2.4655,2.5369,2.6414,2.6552,2.6947,2.7484,2.7484,2.7537,2.7537,2.7284,2.7015,2.6812,0.0,0.0,0.0,0.0,0.0,0.0,0.0,0.0,0.0,0.0,1.7466,1.7262,0.0,0.0,0.0,0.0,0.0,0.0,0.0,0.0,0.0,2.1169,2.1311,2.18,2.2653,2.2678,2.2921,2.3437,2.339,2.339,2.345,2.3198,2.3258,2.3484,2.3,2.2521,2.1933,2.1514,2.1238,2.1036,2.1652,2.2018,2.2137,2.2326,2.225,2.2052,2.1873,2.216,2.2642,2.2422,2.2808,0.0,0.0,0.0,2.2886,2.3629,2.3917,2.4313,2.5744,0.0,2.8662,0.0,2.9297,3.0203,0.0,0.0,0.0,0.0,0.0,0.0,0.0,0.0,0.0,0.0,0.0,0.0,0.0,0.0,0.0,0.0,0.0,0.0,0.0,0.0,0.0,0.0,0.0,0.0,0.0,2.2197,2.2197,2.2197,2.2197,2.2197,2.2197,2.2197,2.2197,2.2197,2.2197,2.2234,2.2306,2.2378,2.3183,2.4518,2.5197,2.5832,2.6483,2.7082,2.7417,2.7484,2.7484,2.7591,2.7696,2.7855,2.767,2.7417,0.0,0.0,0.0,0.0,0.0,0.0,0.0,0.0,0.0,0.0,0.0,1.7615,0.0,0.0,0.0,0.0,0.0,0.0,0.0,0.0,0.0,2.0956,2.1575,2.2185,2.28,2.267,2.2836,2.3318,2.2872,2.3058,2.3897,2.3457,2.3366,2.3616,2.3418,2.2972,2.2335,2.214,2.1807,2.1375,2.156,2.2131,2.2772,2.1857,2.2076,2.2779,2.1812,2.1916,2.2412,2.218,2.2508,2.2921,2.2604,0.0,0.0,0.0,2.4221,2.4845,2.6008,2.7463,2.8576,0.0,2.9157,3.0107,2.9104,0.0,0.0,0.0,0.0,0.0,0.0,0.0,0.0,0.0,0.0,0.0,0.0,0.0,0.0,0.0,0.0,0.0,0.0,0.0,0.0,0.0,0.0,0.0,2.2259,2.2197,2.2197,2.2197,2.2197,2.2197,2.2197,2.2197,2.2197,2.2197,2.2531,2.2702,2.2702,2.304,2.3542,2.4165,2.4859,2.5864,2.7082,2.7789,2.8325,2.8675,2.8675,2.8725,2.8776,2.8712,2.8597,2.8417,0.0,0.0,0.0,0.0,0.0,0.0,0.0,0.0,0.0,0.0,0.0,0.0,0.0,0.0,0.0,0.0,0.0,0.0,0.0,0.0,0.0,0.0,2.1643,2.2299,2.286,2.2736,2.2766,2.3043,2.2508,2.2747,2.3793,2.3476,2.3467,2.3734,2.3696,2.3371,2.2724,2.2618,2.2315,2.1918,2.1908,2.2553,2.3318,2.2243,2.2624,2.3614,2.2191,2.2115,0.0,0.0,0.0,0.0,2.2482,2.2543,0.0,0.0,0.0,2.5582,0.0,0.0,2.814,2.7537,2.8531,2.946,0.0,0.0,0.0,0.0,0.0,0.0,0.0,0.0,0.0,0.0,0.0,0.0,0.0,0.0,0.0,0.0,0.0,0.0,0.0,0.0,0.0,0.0,0.0,0.0,2.2247,2.2197,2.2197,2.2197,2.2197,2.2197,2.2197,2.2197,2.2309,2.242,2.2859,2.3207,2.3314,2.3787,2.4042,2.4131,2.4925,2.618,2.7604,2.8451,2.9121,2.9588,2.9496,2.9425,2.9397,2.9167,2.901,2.8962,0.0,0.0,0.0,0.0,0.0,0.0,0.0,0.0,0.0,0.0,0.0,0.0,1.736,1.7277,1.7289,1.7255,1.7456,1.7924,0.0,0.0,0.0,0.0,0.0,0.0,2.333,2.3173,2.2968,2.2834,2.2655,2.2668,2.2878,2.2967,2.341,2.4047,2.3695,2.3239,2.2791,2.2295,2.218,2.2324,2.3069,2.336,2.3398,2.4239,2.4479,2.4216,2.3185,0.0,0.0,0.0,0.0,0.0,0.0,0.0,2.3021,0.0,0.0,0.0,0.0,2.6876,0.0,2.6842,2.7534,0.0,0.0,0.0,0.0,0.0,0.0,0.0,0.0,0.0,0.0,0.0,0.0,0.0,0.0,0.0,0.0,0.0,0.0,0.0,0.0,0.0,0.0,0.0,0.0,0.0,2.2247,2.2197,2.2197,2.2197,2.2197,2.2197,2.2197,2.2197,2.2469,2.3027,2.3088,2.3374,2.3962,2.3962,2.4288,2.4827,2.6109,2.7033,2.7696,2.8976,2.954,2.9546,2.9245,2.9064,2.8933,2.8584,2.8537,2.8587,0.0,0.0,0.0,0.0,0.0,0.0,0.0,0.0,0.0,0.0,0.0,0.0,0.0,1.732,1.7334,1.7445,1.7711,1.8109,1.8423,0.0,0.0,0.0,0.0,0.0,2.3198,2.2905,2.2847,2.3111,2.2328,2.2403,2.3393,2.2804,2.3057,2.3973,2.3823,2.3742,2.3689,2.2957,2.2619,2.2734,2.3332,2.4029,2.4654,2.4209,2.478,0.0,0.0,0.0,0.0,0.0,0.0,0.0,0.0,0.0,0.0,0.0,0.0,0.0,0.0,0.0,0.0,2.6709,2.7345,2.7874,0.0,0.0,0.0,0.0,0.0,0.0,0.0,0.0,0.0,0.0,0.0,0.0,0.0,0.0,0.0,0.0,0.0,0.0,0.0,0.0,0.0,0.0,0.0,0.0,2.2247,2.2197,2.2197,2.2197,2.2197,2.242,2.275,2.275,2.31,2.3669,2.4105,2.4452,2.4637,2.5021,2.5312,2.5545,2.6594,2.7148,2.7324,2.813,2.8542,2.8677,2.8567,2.8365,2.8234,2.8355,2.8455,2.8583,0.0,0.0,0.0,0.0,0.0,0.0,0.0,0.0,0.0,1.7309,0.0,0.0,0.0,0.0,1.759,1.7744,1.817,1.8483,1.8655,1.9312,2.0159,2.1163,0.0,0.0,2.3339,2.3039,2.2994,2.3228,2.2207,2.2291,2.3322,2.267,2.3032,2.4142,2.3738,2.3797,2.4177,2.3647,2.334,2.3353,2.4195,2.4879,2.5397,2.5171,0.0,0.0,0.0,0.0,0.0,0.0,0.0,0.0,0.0,0.0,0.0,0.0,0.0,0.0,2.559,0.0,0.0,0.0,0.0,2.7272,0.0,0.0,0.0,0.0,0.0,0.0,0.0,0.0,0.0,0.0,0.0,0.0,0.0,0.0,0.0,0.0,0.0,0.0,0.0,0.0,0.0,0.0,0.0,0.0,2.2531,2.2309,2.2309,2.2469,2.2702,2.2992,2.3386,2.3374,2.3741,2.4337,2.4765,2.5118,2.5342,2.5729,2.5948,2.6071,2.6631,2.6975,2.7209,2.7824,2.8168,2.8297,2.8195,2.801,2.7783,2.7934,2.8158,2.8405,0.0,0.0,0.0,0.0,0.0,0.0,0.0,0.0,1.8326,1.7422,0.0,0.0,0.0,0.0,0.0,1.8278,1.8721,1.9105,1.9368,1.9512,2.0154,2.1418,2.1924,0.0,2.3748,2.3668,2.3459,2.3133,2.2512,2.2365,2.2622,2.2622,2.3271,2.451,2.3409,2.3358,2.4096,2.4218,2.4164,2.4202,0.0,2.5909,2.5528,0.0,0.0,0.0,2.6519,2.63,0.0,2.5869,0.0,0.0,0.0,0.0,0.0,0.0,0.0,0.0,0.0,0.0,0.0,0.0,0.0,0.0,2.6655,0.0,0.0,0.0,0.0,0.0,0.0,0.0,0.0,0.0,0.0,0.0,0.0,0.0,0.0,0.0,0.0,0.0,0.0,0.0,0.0,0.0,0.0,2.3148,2.3148,2.2592,2.2531,2.3088,2.3669,2.4021,2.4021,2.4021,2.4394,2.5005,2.5005,2.5342,2.5893,2.5893,2.6042,2.6283,2.6283,2.6626,2.7295,2.8179,2.8566,2.855,2.8199,2.791,2.7621,2.7313,2.7632,2.8178,0.0,0.0,0.0,0.0,0.0,1.9889,1.9272,1.9126,1.8832,0.0,0.0,0.0,1.8043,1.7958,1.8007,1.8278,1.8815,1.9198,1.9368,1.9772,2.0294,2.092,2.1693,2.2424,2.3045,2.3751,2.3985,2.3752,2.3432,2.3252,2.3241,2.2769,2.3022,2.3949,2.3606,2.366,2.3941,2.3139,2.3178,2.3933,2.5424,2.6059,0.0,0.0,0.0,0.0,0.0,2.6857,2.6459,0.0,2.562,2.4518,0.0,0.0,0.0,0.0,0.0,0.0,2.5603,0.0,0.0,0.0,0.0,0.0,2.6546,2.6917,0.0,0.0,0.0,0.0,0.0,0.0,0.0,0.0,0.0,0.0,0.0,0.0,0.0,0.0,0.0,0.0,0.0,0.0,0.0,0.0,2.458,2.4279,2.3787,2.3564,2.3564,2.3728,2.3904,2.4208,2.4708,2.4694,2.5048,2.5674,2.5674,2.5729,2.5893,2.5893,2.6042,2.6283,2.651,2.6837,2.717,2.72,2.738,2.7592,2.7468,2.7275,2.6982,2.7137,2.7336,2.7558,0.0,0.0,0.0,2.0914,2.0676,2.0313,1.9863,1.9723,1.9434,0.0,0.0,0.0,1.8714,1.8777,1.8838,1.8786,1.9239,1.9552,1.9565,1.9926,2.0283,2.0693,2.1779,2.2567,2.3098,2.4144,2.4515,2.4262,2.4077,2.3815,2.3538,2.3157,2.3329,2.3909,2.3647,2.3836,2.4255,2.313,0.0,0.0,2.5911,0.0,0.0,2.76,2.804,0.0,0.0,0.0,2.7031,2.7575,2.6802,0.0,0.0,0.0,0.0,0.0,0.0,0.0,0.0,2.5541,0.0,0.0,0.0,0.0,2.5906,2.6321,0.0,0.0,0.0,0.0,0.0,0.0,0.0,0.0,0.0,0.0,0.0,0.0,0.0,0.0,0.0,0.0,0.0,0.0,0.0,0.0,2.5118,2.4694,2.4021,2.4266,2.4394,2.4394,2.4667,2.4964,2.5397,2.5397,2.5564,2.5893,2.5893,2.5893,2.5893,2.5893,2.6096,2.6457,2.6616,2.6945,2.7372,2.7152,2.7203,2.7372,2.7372,2.7218,2.7011,2.7269,2.7321,2.7343,0.0,0.0,2.1233,2.1221,2.1175,2.0991,2.0481,2.0339,2.0057,0.0,1.9556,1.9609,1.9559,1.9908,2.0035,1.9608,1.9822,1.9978,1.985,2.0029,2.0257,2.0658,2.1929,2.2897,2.3334,2.4565,2.5046,2.4667,2.4552,2.4238,2.3714,2.3625,2.3792,2.4101,2.357,2.3803,2.4611,0.0,0.0,2.4742,2.663,2.7097,0.0,0.0,2.8001,0.0,2.8101,2.8049,2.7816,2.8612,2.8146,0.0,0.0,0.0,0.0,0.0,2.4951,0.0,0.0,0.0,0.0,0.0,0.0,0.0,2.5221,2.5544,2.588,0.0,0.0,0.0,0.0,0.0,0.0,0.0,0.0,0.0,0.0,0.0,0.0,0.0,0.0,0.0,0.0,0.0,2.5893,2.5893,2.5397,2.4808,2.4253,2.4751,2.5118,2.5118,2.5619,2.5893,2.5934,2.5934,2.5934,2.5934,2.5934,2.5948,2.5893,2.5948,2.6204,2.6683,2.6736,2.71,2.7625,2.7625,2.7625,2.7625,2.7625,2.7539,2.7452,2.7575,2.7524,2.7437,0.0,2.1635,2.1561,2.14,2.1074,2.0772,2.0679,2.0473,2.0499,2.0758,2.0806,2.0926,2.1102,2.0499,2.017,2.0407,2.0295,2.0131,2.0131,2.0536,2.0638,2.0284,2.1625,2.2409,2.2542,2.4305,2.5134,2.5014,2.523,2.5076,2.4566,2.3908,2.3598,2.3644,2.3583,2.357,2.3658,0.0,0.0,2.5259,2.5958,0.0,2.7857,2.8583,2.8917,2.8973,2.9002,2.8747,2.8329,0.0,2.7131,2.6453,0.0,0.0,0.0,0.0,0.0,0.0,0.0,0.0,0.0,0.0,0.0,0.0,2.6369,2.6749,2.7006,0.0,0.0,0.0,0.0,0.0,0.0,0.0,0.0,0.0,0.0,0.0,0.0,0.0,0.0,0.0,0.0,0.0,2.5893,2.5893,2.5784,2.566,2.555,2.566,2.5729,2.5729,2.5839,2.5988,2.6244,2.6244,2.6244,2.6244,2.6244,2.6096,2.5893,2.6136,2.6404,2.6736,2.7011,2.7269,2.7625,2.7625,2.7625,2.7625,2.7625,2.7575,2.7575,2.7575,2.7575,2.7575,2.2309,2.2185,2.2049,2.2161,2.1749,2.1459,2.1777,2.1582,2.1459,2.1777,2.2007,2.2184,2.2297,2.1643,2.1158,2.1078,2.0656,2.0422,2.0422,2.0723,2.0772,2.051,2.1643,2.2505,2.2995,2.4629,2.5532,2.5546,2.5717,2.5409,2.4672,2.4011,2.3906,2.4246,2.3864,2.4116,2.4797,0.0,2.5525,2.6336,2.6932,0.0,2.8485,2.9083,2.9363,2.9433,2.931,2.9062,2.8667,2.7831,2.7361,0.0,0.0,2.6016,2.5812,0.0,2.537,2.5515,0.0,0.0,0.0,2.5262,0.0,0.0,0.0,2.6294,2.6527,2.5605,0.0,0.0,0.0,0.0,0.0,0.0,0.0,0.0,0.0,0.0,0.0,0.0,0.0,0.0,0.0,0.0,2.5893,2.5893,2.5893,2.5893,2.5893,2.6042,2.6042,2.5893,2.6096,2.615,2.6096,2.6297,2.6336,2.6283,2.6457,2.6404,2.6312,2.6457,2.6669,2.6959,2.7115,2.7372,2.7625,2.7625,2.7625,2.7625,2.7625,2.7575,2.7488,2.7575,2.7575,2.7488,2.3078,2.2836,2.2714,2.3017,2.2702,2.2519,2.3017,2.2823,2.2641,2.2702,2.3119,2.3438,2.3352,2.3045,2.2636,2.2173,2.164,2.1259,2.1162,2.1323,2.1407,2.1345,2.2056,2.2857,2.3688,2.4904,2.5637,2.5903,2.5828,2.544,2.4837,2.4071,2.4188,2.4895,2.4323,2.4875,2.6174,0.0,0.0,2.7363,0.0,2.8473,2.8722,2.9235,2.945,2.9442,2.933,2.9163,2.8918,2.8405,0.0,2.794,2.7122,2.6731,0.0,0.0,0.0,0.0,0.0,0.0,0.0,0.0,0.0,2.5531,0.0,0.0,0.0,2.4722,0.0,0.0,0.0,0.0,0.0,0.0,0.0,0.0,0.0,0.0,0.0,0.0,0.0,0.0,0.0,0.0,2.5772,2.5893,2.5813,2.5827,2.5893,2.619,2.6244,2.5988,2.6351,2.6404,2.6165,2.6457,2.6563,2.6457,2.6683,2.6788,2.6683,2.6788,2.6959,2.7181,2.7269,2.7423,2.7625,2.7625,2.7625,2.7625,2.7625,2.7524,2.7437,2.7575,2.7524,2.7437,2.3636,2.3518,2.3518,2.3695,2.3577,2.3518,2.3695,2.3492,2.3479,2.3787,2.4312,2.4707,2.4703,2.448,2.4387,2.4401,2.4028,0.0,2.3299,0.0,2.3557,2.3406,2.315,2.3216,2.3696,2.4207,2.4872,2.5625,2.5167,2.5183,2.562,2.4282,2.3996,2.467,2.4941,2.5413,2.6044,0.0,2.6813,0.0,2.7828,2.8138,0.0,2.8802,2.906,2.9307,2.9311,2.9163,2.904,0.0,2.9124,2.872,0.0,2.7921,2.7415,0.0,0.0,0.0,0.0,0.0,0.0,0.0,2.5665,0.0,0.0,0.0,2.5788,2.5333,0.0,0.0,0.0,0.0,0.0,0.0,0.0,0.0,0.0,0.0,0.0,0.0,0.0,0.0,0.0,0.0,0.0,2.5881,2.5556,2.554,2.5853,2.6365,2.651,2.6244,2.651,2.6788,2.7063,2.713,2.7115,2.7115,2.7115,2.7011,2.6736,2.7011,2.7181,2.7218,2.7423,2.7575,2.7625,2.7625,2.7625,2.7625,2.7625,2.7575,2.7575,2.7575,2.7575,2.7575,2.4465,2.4292,2.4221,2.4567,2.4337,2.4266,2.4654,2.4878,2.4972,2.4921,2.5328,2.5716,2.599,0.0,0.0,0.0,0.0,2.4359,0.0,0.0,2.419,2.38,2.3717,0.0,2.4899,2.4776,2.5227,2.6294,2.5273,2.4942,2.5213,2.4507,2.4635,2.543,2.5576,0.0,2.6828,0.0,2.6587,0.0,0.0,0.0,0.0,2.8787,2.9198,2.9287,2.9277,2.9156,2.902,0.0,2.9266,0.0,0.0,0.0,0.0,0.0,0.0,0.0,0.0,0.0,0.0,0.0,0.0,0.0,0.0,0.0,2.577,0.0,0.0,0.0,0.0,0.0,0.0,0.0,0.0,0.0,0.0,0.0,0.0,0.0,0.0,0.0,0.0,0.0,0.0,0.0,0.0,2.6624,2.6923,2.7341,2.7219,2.6578,2.6893,2.7063,2.6893,2.7181,2.7284,2.7181,2.7372,2.7372,2.7255,2.7372,2.7423,2.7423,2.7575,2.7625,2.7625,2.7625,2.7625,2.7625,2.7625,2.7625,2.7625,2.7625,2.7625,2.7625,2.5286,2.5104,2.5034,2.5495,2.5203,2.5077,2.5522,2.5897,2.6022,2.5743,0.0,0.0,2.6926,2.6155,0.0,0.0,2.6213,2.5644,0.0,0.0,2.5346,0.0,0.0,0.0,0.0,0.0,2.5675,2.6748,2.5589,2.5108,2.5273,2.4986,2.5257,2.613,2.6284,2.6851,2.7614,0.0,2.6824,2.6952,2.7453,2.7675,2.7859,2.8905,2.9274,2.927,2.9222,2.9112,2.9025,2.9137,2.9341,0.0,2.8791,0.0,0.0,0.0,0.0,0.0,2.7167,0.0,0.0,0.0,0.0,0.0,0.0,0.0,0.0,0.0,0.0,0.0,0.0,0.0,0.0,0.0,0.0,0.0,0.0,0.0,0.0,0.0,0.0,0.0,0.0,0.0,0.0,0.0,2.6807,2.71,2.7679,2.8086,2.7933,2.7117,2.7499,2.7462,2.6945,2.7269,2.7386,2.7321,2.7524,2.7625,2.7625,2.7625,2.7625,2.7625,2.7625,2.7625,2.7625,2.7625,2.7625,2.7625,2.7625,2.7625,2.7625,2.7625,2.7625,2.7655,2.6002,2.5948,2.5988,2.6404,2.6258,2.6056,2.6056,0.0,0.0,0.0,0.0,0.0,0.0,0.0,0.0,0.0,0.0,2.8235,2.793,0.0,2.7734,0.0,0.0,2.6352,0.0,0.0,2.5929,2.6587,2.5914,2.5899,2.6512,2.5726,2.5723,2.6415,2.6942,2.7512,2.8068,2.7771,2.8073,2.8659,2.805,2.8322,2.9136,0.0,2.9098,2.92,2.92,0.0,0.0,2.9455,2.9583,0.0,0.0,0.0,0.0,0.0,0.0,0.0,0.0,0.0,0.0,2.6693,0.0,0.0,0.0,0.0,2.5724,0.0,0.0,0.0,0.0,0.0,0.0,2.1745,0.0,0.0,0.0,0.0,0.0,0.0,0.0,0.0,0.0,0.0,0.0,2.5269,2.5581,2.6313,2.761,2.8261,2.8472,2.8163,2.8405,2.8248,2.7575,2.7575,2.7575,2.7575,2.7575,2.7625,2.7625,2.7625,2.7625,2.7625,2.7625,2.7625,2.7625,2.7625,2.7625,2.7625,2.7625,2.7625,2.7625,2.7625,2.7625,2.7715,2.6365,2.6433,2.65,2.651,0.0,0.0,0.0,2.7009,0.0,0.0,0.0,0.0,0.0,0.0,2.8271,0.0,0.0,2.8582,2.8272,2.8083,0.0,0.0,0.0,2.6774,0.0,0.0,0.0,0.0,2.5976,2.5719,2.5944,2.6024,2.6149,2.6293,2.7145,2.7724,0.0,0.0,0.0,0.0,0.0,2.7989,2.8694,0.0,0.0,2.9178,2.9089,2.904,0.0,2.9152,2.9369,2.9544,2.9175,2.9162,2.9168,2.8661,2.838,0.0,0.0,0.0,2.7286,2.6944,0.0,0.0,0.0,0.0,0.0,0.0,0.0,0.0,0.0,0.0,2.3219,2.2882,2.2209,0.0,0.0,0.0,0.0,0.0,0.0,0.0,0.0,0.0,0.0,2.6353,2.7032,2.7636,0.0,2.8487,2.8345,2.7816,2.7919,2.7814,2.7625,2.7625,2.7625,2.7625,2.7625,2.7625,2.7625,2.7625,2.7625,2.7625,2.7625,2.7625,2.7625,2.7625,2.7625,2.7625,2.7625,2.7795,2.8027,2.771,2.7625,2.779,2.6553,2.6645,0.0,0.0,0.0,0.0,0.0,0.0,0.0,0.0,2.8218,0.0,2.8768,0.0,2.8652,0.0,2.9242,2.8935,2.871,2.8491,0.0,2.7975,2.7609,0.0,0.0,0.0,0.0,0.0,0.0,2.6221,2.6173,2.6505,2.6612,2.6512,2.7313,2.7833,2.8139,0.0,2.8325,0.0,0.0,2.8592,0.0,0.0,2.9393,2.8869,0.0,2.8947,2.8947,2.897,2.9137,2.9301,2.9016,2.9024,2.9107,2.8655,2.8492,2.8366,2.8148,2.7756,0.0,2.7091,2.6485,0.0,2.5439,0.0,0.0,0.0,0.0,0.0,0.0,0.0,0.0,2.3457,2.2494,2.1975,0.0,2.2677,0.0,0.0,0.0,0.0,0.0,0.0,2.5551,2.6471,2.7285,2.7964,0.0,0.0,2.8397,2.7949,2.7934,2.7814,2.7625,2.7625,2.7625,2.7625,2.7625,2.7625,2.7625,2.7625,2.7625,2.7625,2.7625,2.7625,2.761,2.7795,2.7845,2.7894,2.8042,2.8319,2.8543,2.8027,2.8147,2.8692,0.0,0.0,0.0,0.0,2.7248,0.0,0.0,0.0,2.8464,0.0,2.8372,2.8661,2.8804,2.8821,2.9076,2.9726,2.9544,0.0,2.9206,2.906,0.0,0.0,2.868,2.863,2.87,0.0,0.0,0.0,0.0,2.7365,2.7225,2.7196,2.7144,2.7003,2.7416,0.0,2.8098,2.8327,2.8627,2.9033,2.971,3.0006,3.0108,3.0899,0.0,2.843,2.8781,2.8913,2.8937,2.8991,2.9015,2.9015,2.9015,2.8985,2.8846,2.846,2.8246,2.8163,2.8167,2.7827,2.7421,2.7089,0.0,0.0,0.0,0.0,2.5912,0.0,0.0,0.0,0.0,0.0,0.0,2.3586,2.2795,2.2127,0.0,0.0,0.0,0.0,0.0,0.0,0.0,2.3943,2.5151,2.5702,2.6425,2.7377,0.0,0.0,2.8525,2.8547,2.8547,2.8233,2.7625,2.7625,2.7625,2.7625,2.7625,2.7625,2.7625,2.7625,2.761,2.761,2.761,2.766,2.771,2.811,2.8304,2.84,2.8889,2.912,2.9074,2.8543,2.9166,3.0351,2.7001,2.721,2.749,0.0,2.6946,2.693,0.0,0.0,0.0,0.0,2.8846,2.8743,2.9008,2.9168,2.9296,2.9435,2.9354,0.0,0.0,0.0,0.0,2.8948,2.86,2.8476,2.8699,2.818,0.0,2.8656,0.0,0.0,2.7942,2.7313,2.6989,2.6861,2.751,2.7842,2.7904,2.8528,2.9142,2.9728,2.9872,3.0132,0.0,0.0,3.0582,2.9979,3.0441,3.0597,3.0597,3.0655,3.068,3.0698,3.0648,3.0571,3.0467,3.0269,2.9755,2.9158,2.8956,2.8187,2.7419,2.7331,2.6818,2.6252,0.0,0.0,0.0,0.0,0.0,0.0,0.0,0.0,0.0,0.0,0.0,0.0,0.0,0.0,0.0,0.0,0.0,0.0,2.3575,2.4664,2.5595,2.6056,2.6662,0.0,0.0,0.0,0.0,2.7844,2.7844,2.7754,2.7625,2.7625,2.7625,2.7625,2.7625,2.7625,2.761,2.7978,2.811,2.811,2.811,2.8367,2.8701,2.835,2.8431,2.8748,2.8904,2.9166,2.9438,2.9028,2.9736,3.0864,2.7501,0.0,0.0,2.8548,0.0,0.0,2.8872,0.0,0.0,2.9734,2.9641,0.0,2.9458,2.9375,2.931,2.9289,2.9246,0.0,0.0,0.0,0.0,2.8897,2.8734,2.8718,2.8874,2.8459,0.0,2.8665,0.0,0.0,2.7764,2.7217,2.6951,2.6808,2.7579,2.7925,2.8114,2.9132,2.9765,3.0172,3.0703,0.0,0.0,3.1874,3.1924,3.1799,3.2087,3.171,3.1137,3.1224,3.1217,3.119,3.1172,3.1111,3.0993,3.0928,3.052,3.0014,2.9497,2.8659,2.7843,2.7571,2.6919,2.629,2.6068,2.6107,2.6075,0.0,0.0,0.0,0.0,0.0,0.0,0.0,0.0,0.0,0.0,0.0,0.0,0.0,2.4603,0.0,2.4658,2.5268,2.5868,2.6357,0.0,0.0,0.0,0.0,0.0,2.7749,2.8203,2.8308,2.8023,2.8023,2.7874,2.7625,2.7625,2.771,2.7929,2.814,2.8415,2.8638,2.8543,2.8685,2.8997,2.8826,2.892,2.9182,2.9364,2.9633,2.987,2.9633,3.0334,3.1373,0.0,0.0,0.0,0.0,0.0,0.0,0.0,3.0397,0.0,3.0186,0.0,3.023,2.9814,2.9428,2.9218,2.9259,0.0,2.9059,2.899,2.8991,2.8955,2.882,2.8991,2.9085,2.9085,2.882,0.0,0.0,0.0,0.0,2.7299,2.7085,2.6943,2.6939,2.7569,0.0,0.0,2.9833,3.0387,3.0504,3.1697,3.2252,3.2433,3.314,3.3393,3.3393,3.3393,3.2506,3.131,3.1447,3.1393,3.1301,3.142,3.1329,3.1178,3.1178,3.1049,3.0769,3.0086,2.9243,2.845,2.7879,2.7171,2.648,2.5988,2.5863,2.5823,2.5627,2.5444,2.5433,0.0,0.0,0.0,0.0,0.0,0.0,0.0,0.0,0.0,0.0,0.0,0.0,0.0,2.581,2.6085,0.0,0.0,0.0,0.0,0.0,0.0,2.8111,2.9039,0.0,2.8742,0.0,2.8308,2.7709,2.767,2.7845,2.8288,2.8301,2.859,2.9166,2.8919,2.8889,2.909,2.938,2.9515,2.9605,3.0017,3.0146,3.0205,3.0303,3.0904,3.1805,0.0,0.0,0.0,0.0,0.0,3.0649,3.0192,2.9353,2.8971,2.9386,2.9407,2.9286,2.91,2.9099,2.9089,2.9062,2.904,0.0,0.0,0.0,0.0,2.8956,2.9002,2.9017,2.9017,2.881,2.8843,0.0,0.0,0.0,2.8015,2.7185,2.707,2.7578,2.7679,0.0,2.864,2.9941,0.0,3.0941,3.1833,3.2596,3.3212,3.3357,3.3393,3.3393,3.3393,3.3201,3.2907,3.2977,3.2947,3.2877,3.2793,3.2733,3.2691,3.2568,3.2072,3.1535,3.1422,3.0013,2.8508,2.8432,2.7516,2.652,2.627,2.6214,2.6195,2.6081,2.5961,2.5857,2.5751,0.0,0.0,0.0,0.0,0.0,0.0,0.0,0.0,0.0,0.0,0.0,0.0,0.0,0.0,0.0,0.0,0.0,0.0,0.0,0.0,0.0,0.0,0.0,0.0,0.0,2.8547,2.8412,2.7844,2.7845,2.8304,2.8622,2.9044,2.9499,2.9409,2.9605,2.9913,2.9515,2.956,2.993,2.9946,2.9989,3.0098,3.0745,3.145,3.2136,0.0,0.0,0.0,0.0,0.0,0.0,0.0,3.0494,0.0,3.0194,3.0196,3.0116,3.005,2.9824,2.948,2.9053,2.8994,2.8994,2.8994,2.8994,2.8994,2.8994,2.8994,0.0,2.8994,2.8866,2.8798,2.8779,0.0,0.0,2.7691,2.7135,2.7181,2.7723,0.0,2.8851,0.0,0.0,0.0,3.1945,3.2583,3.3049,3.3393,3.3393,3.3382,3.3352,3.3352,3.3262,3.3152,3.3334,3.3292,3.3122,3.3104,3.3055,3.2961,3.2916,3.2616,3.2175,3.159,3.0565,2.9555,2.8972,2.8218,2.7506,2.6925,2.6842,2.669,2.6162,2.6079,2.604,2.574,2.5453,0.0,0.0,0.0,0.0,0.0,0.0,0.0,0.0,0.0,0.0,0.0,0.0,0.0,0.0,0.0,0.0,0.0,0.0,0.0,0.0,0.0,0.0,0.0,0.0,0.0,2.8976,2.8263,2.8352,2.9088,2.9182,2.9499,3.0,2.9798,2.9858,3.006,2.9754,2.9754,2.9946,2.9902,3.0173,3.0635,3.0888,3.1746,3.272,0.0,3.1243,0.0,0.0,3.1911,0.0,3.2209,3.1779,3.1344,3.1166,3.1146,3.1146,3.1146,3.073,3.0136,2.9347,2.925,2.9177,2.8994,2.8994,2.8994,2.8994,2.8994,2.8994,2.897,2.8929,2.8711,0.0,0.0,0.0,0.0,2.7122,0.0,0.0,0.0,0.0,0.0,0.0,3.1968,3.2599,3.3194,3.3364,3.3304,3.3382,3.3322,3.3232,3.3262,3.3152,3.3011,3.3244,3.3183,3.2979,3.3024,3.2979,3.2916,3.2916,3.2916,3.266,3.1646,3.1062,3.0507,2.9462,2.8895,2.8398,2.7703,2.7607,2.7408,2.6422,2.6195,2.6094,2.5862,2.5703,0.0,0.0,0.0,0.0,0.0,0.0,0.0,0.0,0.0,0.0,0.0,0.0,0.0,0.0,0.0,0.0,0.0,0.0,0.0,0.0,0.0,3.145,3.0911,0.0,2.9846,0.0,2.885,2.8966,2.9793,2.9605,2.9826,3.0333,3.0033,2.9946,2.9973,2.9902,2.9999,3.0145,3.0145,3.0628,3.1352,3.1362,3.2171,3.3193,0.0,0.0,0.0,0.0,0.0,0.0,0.0,3.1779,3.1378,3.1382,3.1356,3.1356,3.1356,3.1323,3.0962,3.0173,3.0099,2.9787,2.9049,2.8994,2.8994,2.8994,2.8994,2.8929,2.881,2.8881,2.872,0.0,0.0,0.0,0.0,0.0,0.0,0.0,0.0,0.0,0.0,3.1098,3.1906,3.2229,3.3151,3.3316,3.306,3.3232,3.3201,3.306,3.3104,3.3073,3.3011,3.3011,3.2979,3.2916,3.2916,3.2916,3.2916,3.2916,3.2916,3.2802,3.2332,3.1429,3.0487,3.0017,2.919,2.8493,2.8389,2.8503,2.8323,2.735,2.6561,2.6061,2.6142,2.6162,2.6021,0.0,0.0,0.0,0.0,0.0,0.0,0.0,0.0,0.0,0.0,2.6836,0.0,0.0,0.0,0.0,0.0,0.0,0.0,2.9653,0.0,3.2375,3.2315,3.1387,0.0,3.0903,2.9659,2.9303,2.9793,2.9605,2.9738,3.0189,2.9989,2.9902,2.9902,2.9902,3.0336,3.101,3.101,3.145,3.2166,3.2785,3.3031,3.3226,0.0,0.0,0.0,0.0,0.0,0.0,0.0,3.293,3.2747,3.2834,3.2412,3.2118,3.2118,3.2067,3.173,3.0924,3.0362,2.9892,2.9557,2.9059,2.8761,2.8761,2.8761,2.8761,2.8737,2.8737,2.8622,0.0,0.0,0.0,0.0,0.0,0.0,0.0,0.0,3.0366,3.0326,3.1596,3.2427,3.3027,3.3325,3.3364,3.3244,3.3214,3.3122,3.3011,3.3042,3.3011,3.2948,3.2948,3.2916,3.2916,3.2916,3.2916,3.2916,3.2916,3.2916,3.2802,3.247,3.202,3.1533,3.0933,3.048,2.9989,2.9337,2.916,2.8904,2.8156,2.7367,2.6656,2.6332,2.6173,2.6053,0.0,0.0,0.0,0.0,0.0,0.0,0.0,0.0,0.0,0.0,0.0,2.6413,0.0,0.0,0.0,0.0,0.0,0.0,3.0347,0.0,3.2967,3.3022,3.1766,3.126,3.155,3.0202,2.9766,3.0199,3.0,3.0201,3.0729,3.0684,3.0929,3.1381,3.1381,3.1589,3.1851,3.1805,3.2275,3.3039,3.3096,3.347,3.3974,3.3076,0.0,3.3303,0.0,3.3491,3.3508,3.3698,3.3643,3.3605,3.3726,3.3231,3.291,3.291,3.2857,3.2492,3.1696,3.1026,3.0537,3.0301,2.9461,2.8982,2.9007,2.8764,0.0,2.8687,2.8637,2.8604,2.8482,2.8541,0.0,0.0,0.0,0.0,0.0,3.0245,3.1078,3.1675,3.2141,3.2746,3.3433,3.3422,3.3334,3.3214,3.3104,3.3011,3.2934,3.2948,3.2948,3.2916,3.2916,3.2916,3.2916,3.2916,3.2916,3.2916,3.2916,3.2916,3.2834,3.247,3.2369,3.2179,3.1432,3.1257,3.1043,3.0145,2.9909,2.9692,2.9075,2.8281,2.7511,2.6868,2.6615,2.6472,2.6289,0.0,0.0,0.0,0.0,0.0,0.0,0.0,2.6294,2.6442,0.0,0.0,0.0,0.0,0.0,0.0,0.0,0.0,0.0,0.0,0.0,0.0,3.19,3.1516,3.2118,3.0668,3.0172,3.0485,3.0231,3.0511,3.1108,3.1108,3.1606,3.2384,3.2384,3.2498,3.2679,3.2586,3.3074,3.3775,3.3519,3.3844,3.4349,3.3459,3.3406,3.3349,3.3571,3.3538,3.3538,3.3605,3.3549,3.352,3.3605,3.3587,3.3615,3.368,3.3643,3.3259,3.2447,3.2375,3.2028,3.1253,3.0355,2.9919,0.0,0.0,2.8687,2.8612,2.8687,2.8619,2.851,0.0,0.0,2.8424,0.0,3.0823,3.1864,3.1725,3.2307,3.3332,3.2675,3.2632,3.3042,3.3375,3.3226,3.2805,3.2965,3.2934,3.2805,3.2884,3.2916,3.2916,3.2916,3.2916,3.2916,3.2916,3.2916,3.2916,3.2916,3.2916,3.2802,3.242,3.2283,3.2091,3.13,3.1201,3.1179,3.0797,3.0838,3.0796,3.0205,2.9349,2.8501,2.7872,2.7772,2.7466,2.6535,0.0,0.0,0.0,0.0,0.0,0.0,2.6428,2.6484,2.676,0.0,0.0,0.0,0.0,0.0,0.0,0.0,0.0,3.0335,3.2246,0.0,3.2992,3.1994,3.1913,3.2663,3.1137,3.0417,3.0417,3.0103,3.0407,3.1108,3.1108,3.1606,3.2384,3.2384,3.2777,3.3399,3.3399,3.3745,3.4284,3.4284,3.4184,3.4101,3.3706,3.3628,3.3604,3.3651,3.3577,3.352,3.3605,3.3491,3.3481,3.3577,3.352,3.3509,3.3549,3.3549,3.3429,0.0,3.2563,3.2107,0.0,3.102,3.0288,2.9755,2.9457,2.9078,2.8536,2.8543,2.8587,2.8562,0.0,0.0,0.0,3.1573,3.2406,3.2991,3.2929,3.3136,3.3444,3.3247,3.3216,3.3274,3.3256,3.3135,3.3011,3.2948,3.2916,3.2852,3.2884,3.2916,3.2916,3.2916,3.2916,3.2916,3.2916,3.2916,3.2916,3.2916,3.2916,3.2884,3.2802,3.2588,3.2248,3.1716,3.1473,3.1261,3.0935,3.0992,3.0892,3.0017,2.9753,2.9441,2.8755,2.818,2.7705,2.7398,2.6927,0.0,0.0,0.0,0.0,0.0,0.0,2.6666,0.0,2.684,0.0,0.0,0.0,0.0,0.0,0.0,0.0,0.0,3.3128,0.0,3.3567,3.2196,3.1852,3.2529,3.1137,3.0401,3.0274,3.0205,3.0817,3.1994,3.1994,3.2804,3.4126,3.4016,3.41,3.4249,3.4088,3.4203,3.4399,3.425,3.4201,3.4201,3.4641,3.4556,3.4488,3.4488,3.44,3.434,3.4418,3.4329,3.4298,3.44,3.4087,3.3876,3.3905,3.3633,0.0,3.3452,3.2911,3.2582,3.2582,3.1766,3.1099,3.0603,3.0269,2.9873,2.9465,0.0,0.0,2.95,3.0006,3.0909,3.2225,3.3104,3.402,3.4818,3.4177,3.4039,3.4292,3.3676,3.3334,3.3183,3.3135,3.3055,3.2979,3.2916,3.2916,3.2916,3.2916,3.2916,3.2916,3.2916,3.2916,3.2916,3.2916,3.2916,3.2916,3.2916,3.2916,3.2916,3.2948,3.2654,3.2248,3.1808,3.1548,3.1355,3.1095,3.1112,3.1016,3.037,3.042,3.0277,2.9479,2.8735,2.8127,2.7805,2.7147,2.6742,2.6792,0.0,0.0,0.0,0.0,0.0,0.0,2.6768,0.0,0.0,0.0,0.0,0.0,0.0,0.0,3.2462,3.3205,0.0,3.3375,3.1819,3.1501,3.2484,3.0991,3.0231,3.0076,3.0076,3.0947,3.2384,3.2384,3.3327,3.4899,3.4756,3.4691,3.4594,3.4399,3.43,3.4349,3.4201,3.4201,3.4201,3.6,3.5895,0.0,0.0,3.5738,0.0,3.5788,3.5738,3.5738,3.5788,3.5168,3.4661,3.4624,3.3936,3.3465,3.3393,0.0,0.0,0.0,3.2647,3.2184,3.2198,3.1436,3.0974,3.0985,3.0985,3.0985,3.0985,3.1799,3.2632,3.3502,3.4244,3.5489,3.7035,3.5268,3.4898,3.5507,3.3942,3.3109,3.2823,3.3011,3.2979,3.2823,3.2852,3.2916,3.2916,3.2916,3.2916,3.2916,3.2916,3.2916,3.2916,3.2916,3.2916,3.2916,3.2916,3.2916,3.2916,3.2916,3.2588,3.2162,3.1662,3.149,3.1406,3.123,3.119,3.119,3.119,3.119,3.0931,3.0145,2.9458,2.8805,2.7938,2.7197,2.6759,2.6708,0.0,0.0,0.0,0.0,0.0,0.0,2.6509,2.6562,0.0,0.0,0.0,0.0,0.0,3.2144,3.229,3.2664,3.2757,3.2613,3.1007,3.0948,3.2335,3.074,2.9989,2.9918,2.9918,3.0831,3.2384,3.2384,3.3327,3.4899,3.4739,3.4594,3.4448,3.4349,3.4201,3.4101,3.425,3.4201,3.4101,0.0,0.0,3.582,3.582,3.5788,3.577,3.582,3.5788,3.577,3.582,3.5639,3.5294,3.4679,3.4443,3.4081,3.3447,3.3393,3.3393,3.3393,3.3201,3.2821,3.2234,3.1988,3.1618,3.1003,3.0985,3.0985,3.0985,3.1799,3.2922,3.4335,3.4473,3.5426,3.6939,3.5182,3.4506,3.4564,3.3517,3.2979,3.2805,3.2838,3.2838,3.2823,3.2852,3.2916,3.2916,3.2916,3.2916,3.2916,3.2916,3.2916,3.2916,3.2916,3.2916,3.2916,3.2916,3.2916,3.2916,3.2916,3.2454,3.1966,3.1841,3.1449,3.1095,3.0992,3.1072,3.1151,3.0992,3.1072,3.11,3.0796,3.0251,2.9546,2.8676,2.799,2.7351,2.6776,2.6691,0.0,0.0,2.6671,2.6671,2.6671,2.6671,2.6861,0.0,0.0,0.0,0.0,3.1614,3.2011,3.215,3.2219,3.2093,3.1704,3.0872,3.0582,3.0912,3.031,2.9973,2.9989,2.9989,3.0859,3.2384,3.2384,3.328,3.4739,3.4594,3.4448,3.4349,3.4201,3.4151,3.4101,3.4151,3.4151,3.4101,3.6906,3.6906,3.6906,3.6906,3.6906,3.6906,3.6906,3.6906,3.6906,3.6906,3.658,3.6182,3.5729,3.5041,3.4425,3.3991,3.361,3.3393,3.3393,3.3393,3.3212,3.2777,3.2741,3.2542,3.2107,3.2089,3.2089,3.2089,3.2904,3.3725,3.4563,3.4893,3.5507,3.6266,3.4907,3.4303,3.4217,3.3301,3.282,3.2758,3.3146,3.3288,3.3308,3.3779,3.374,3.3437,3.3437,3.3205,3.2916,3.2916,3.2916,3.2884,3.2852,3.2884,3.2884,3.2852,3.2884,3.2884,3.2755,3.2335,3.1821,3.1524,3.1117,3.0773,3.0871,3.0992,3.1032,3.0912,3.0992,3.1032,3.0895,3.0331,2.9748,2.929,2.85,2.776,2.7282,2.7047,0.0,2.6725,2.6691,2.6691,2.6691,2.6996,2.7345,2.7677,0.0,0.0,3.0634,3.1264,3.1816,3.2273,3.2109,3.2001,3.1816,3.1349,3.0815,3.0333,3.0103,2.9973,2.9946,2.9946,3.0831,3.2292,3.2292,3.3186,3.4594,3.4448,3.4349,3.43,3.4151,3.4101,3.4101,3.4151,3.4151,3.4101,3.8192,3.8192,3.8192,3.8192,3.8192,3.8192,3.8192,3.8192,3.8192,3.8158,3.7561,3.7073,3.6931,3.5702,3.4767,3.4514,3.3864,3.346,3.3411,3.3364,3.3334,3.3393,3.3364,3.3364,3.3393,3.3364,3.3334,3.3334,3.4021,3.4406,3.447,3.5011,3.5285,3.5274,3.4386,3.4067,3.4139,3.3315,3.2971,3.3046,3.3788,3.4054,3.4091,3.4886,3.4811,3.4258,3.4151,3.3651,3.3045,3.2952,3.2916,3.2884,3.2805,3.2805,3.2852,3.2773,3.2805,3.2787,3.2557,3.2161,3.1674,3.1055,3.0692,3.0568,3.079,3.0871,3.0871,3.0871,3.0871,3.0871,3.0733,3.0296,2.9844,2.9629,2.8943,2.8298,2.7938,0.0,2.7163,2.6893,2.686,2.686,2.686,2.7554,2.8044,2.8127,2.9381,3.0159,0.0,3.0852,3.1517,3.2281,3.2015,3.195,3.2073,3.1767,3.1113,3.0189,3.006,2.9973,2.9918,2.9918,3.0742,3.2199,3.2199,3.3045,3.4448,3.4349,3.43,3.425,3.4151,3.4101,3.4101,3.425,3.4201,3.4101,3.8192,3.8192,3.8192,3.8192,3.8192,3.8192,3.8192,3.8192,3.8158,3.7969,3.7826,3.7449,3.6576,3.629,3.5558,3.4217,3.3984,3.3773,3.3418,3.3135,3.3104,3.3411,3.3226,3.3226,3.3411,3.3226,3.3135,3.3042,3.3185,3.3611,3.4321,3.3701,3.3759,3.4351,3.3498,3.3487,3.4079,3.3837,3.4089,3.4711,3.487,3.4923,3.4923,3.5134,3.5132,3.4954,3.4329,3.4026,3.3812,3.3116,3.2916,3.2884,3.2672,3.2639,3.2639,3.2574,3.2557,3.2557,3.2489,3.202,3.1466,3.1015,3.0773,3.0651,3.0501,3.0626,3.0733,3.0733,3.0831,3.0912,3.0871,3.0851,3.0475,2.9387,2.9527,2.9403,2.8354,0.0,2.7698,2.7637,2.7638,2.7638,2.7638,2.8349,2.9059,2.9702,2.9973,3.0378,3.1004,3.114,3.1241,3.1399,3.136,3.1257,3.112,3.0792,3.0474,3.0189,3.006,2.9973,2.9918,2.9918,3.0742,3.2199,3.2199,3.2997,3.4349,3.43,3.425,3.4151,3.4101,3.4101,3.4101,3.4151,3.4101,3.4101,3.8192,3.8192,3.8158,3.8056,3.8056,3.8003,3.7881,3.7881,3.7846,3.7739,3.7739,3.756,3.7077,3.6649,3.6096,3.5364,3.4798,3.4262,3.3755,3.3212,3.2979,3.3104,3.3042,3.3042,3.3135,3.3042,3.2979,3.2948,3.2948,3.3359,3.4077,3.3737,3.3987,3.4668,3.4294,3.4347,3.4704,3.4584,3.4763,3.5137,3.5563,3.5741,3.5776,3.6292,3.6221,3.581,3.5453,3.5061,3.4579,3.3812,3.3544,3.344,3.2897,3.2639,3.2606,3.2523,3.2266,3.2002,3.2002,3.1524,3.0918,3.0733,3.0651,3.0568,3.0485,3.0526,3.0609,3.0609,3.0692,3.0773,3.0692,3.0773,3.0675,3.0048,3.0054,0.0,0.0,2.8852,2.8582,2.8463,2.845,2.845,2.845,2.9144,2.9681,2.9981,3.0425,3.0796,3.1015,3.1072,3.1072,3.1032,3.1151,3.1112,3.0912,3.0749,3.0501,3.0189,3.0146,3.0228,3.0441,3.0441,3.1264,3.2674,3.2674,3.3259,3.4201,3.4201,3.4151,3.4101,3.4101,3.4101,3.4101,3.4101,3.4101,3.4101,3.8072,3.8072,3.8003,3.7864,3.7828,3.7793,3.7613,3.7577,3.7577,3.7558,3.7521,3.7503,3.7503,3.6915,3.6488,3.6328,3.5616,3.4889,3.4264,3.3692,3.3244,3.2902,3.2916,3.2884,3.2884,3.2852,3.2852,3.2852,3.303,3.339,3.3894,3.4191,3.4634,3.5136,3.5187,3.5311,3.5489,3.5438,3.5509,3.5741,3.6346,3.6595,3.6702,3.7362,3.7202,3.6649,3.647,3.6006,3.5364,3.4615,3.4207,3.3924,3.3202,3.2732,3.2472,3.237,3.2002,3.1582,3.162,3.1083,3.0551,3.0426,3.0401,3.0401,3.0401,3.0426,3.0485,3.0568,3.0692,3.0733,3.0651,3.0692,3.0742,3.0608,0.0,0.0,0.0,2.9665,2.9386,2.9289,2.9245,2.9245,2.9245,2.9922,3.0306,3.0196,3.0813,3.1112,3.0952,3.0975,3.1019,3.1122,3.1076,3.1076,3.0999,3.0999,3.0916,3.0653,3.0653,3.0815,3.1186,3.1186,3.1882,3.308,3.308,3.3469,3.4101,3.4101,3.4101,3.4101,3.4101,3.4101,3.4101,3.4101,3.4101,3.4101,3.7703,3.7649,3.7631,3.7613,3.7631,3.7631,3.7577,3.7577,3.7521,3.7334,3.7334,3.7279,3.7147,3.7094,3.6796,3.6183,3.6059,3.5686,3.4978,3.4889,3.4267,3.2955,3.2916,3.2852,3.2805,3.269,3.2639,3.2639,3.3365,3.3789,3.3928,3.4725,3.5168,3.5169,3.5221,3.5614,3.631,3.631,3.6738,3.7416,3.747,3.7505,3.7505,3.7577,3.7541,3.7398,3.6667,3.6363,3.6185,3.54,3.4549,3.3774,3.353,3.2844,3.2108,3.1984,3.1728,3.1504,3.1582,3.1184,3.0642,3.0172,3.0017,3.0017,3.0017,3.0231,3.0501,3.0831,3.0871,3.0912,3.0935,3.0975,3.0817,3.0296,0.0,0.0,3.0416,3.0062,2.99,3.0002,3.0023,3.0023,3.0023,3.0683,3.1106,3.1106,3.1157,3.1151,3.1015,3.0975,3.1213,3.1707,3.1099,3.0941,3.1364,3.1364,3.1577,3.2036,3.2036,3.2022,3.1931,3.1931,3.2352,3.308,3.308,3.3469,3.4101,3.4101,3.4101,3.4101,3.4101,3.4101,3.4101,3.4101,3.4101,3.4101,3.7631,3.7577,3.754,3.7447,3.741,3.7372,3.7259,3.7203,3.7203,3.7143,3.7105,3.7087,3.7048,3.7069,3.6985,3.6723,3.6799,3.65,3.5721,3.5668,3.5226,3.4249,3.4144,3.4075,3.404,3.3988,3.3953,3.3953,3.4341,3.4801,3.5279,3.567,3.6114,3.6559,3.6649,3.6845,3.7131,3.7131,3.7309,3.7577,3.7577,3.7577,3.7577,3.7577,3.7577,3.7541,3.7238,3.7131,3.7006,3.6221,3.5616,3.5119,3.4571,3.3634,3.2645,3.2014,3.1783,3.1671,3.1562,3.1044,3.0477,3.0342,3.0146,3.0017,3.0017,3.006,3.0189,3.0401,3.0568,3.0692,3.0773,3.0935,3.0922,3.0681,0.0,3.0898,3.0782,3.0657,3.0634,3.0784,3.0784,3.0784,3.0784,3.1038,3.1151,3.1072,3.1151,3.1072,3.0814,3.1083,3.1321,3.149,3.1583,3.1769,3.2077,3.2015,3.2027,3.2199,3.2199,3.238,3.2676,3.2676,3.3048,3.3712,3.3712,3.3858,3.4101,3.4101,3.4101,3.4101,3.4101,3.4101,3.4101,3.4101,3.4101,3.4165,3.7466,3.7429,3.7354,3.722,3.722,3.7143,3.7027,3.6987,3.6987,3.6987,3.6987,3.7027,3.7048,3.7069,3.7108,3.7147,3.7259,3.7066,3.65,3.6465,3.6022,3.4977,3.4853,3.4799,3.4853,3.4853,3.4871,3.4871,3.5261,3.5687,3.6184,3.6523,3.6968,3.7466,3.754,3.7577,3.7577,3.7577,3.7577,3.7577,3.7577,3.7577,3.7577,3.7577,3.7577,3.7577,3.7521,3.7521,3.7432,3.688,3.636,3.5837,3.542,3.4533,3.3487,3.2481,3.2219,3.2167,3.1703,3.1083,3.0518,3.0452,3.0172,2.993,3.0017,3.006,3.0146,3.0359,3.0526,3.0651,3.0733,3.0871,3.0935,3.0912,3.0912,3.0912,3.0975,3.1015,3.1072,3.119,3.119,3.119,3.119,3.119,3.1151,3.1072,3.1112,3.1133,3.1124,3.151,3.1846,3.2048,3.2341,3.2669,3.2976,3.27,3.2606,3.2803,3.2803,3.3015,3.3404,3.3404,3.3663,3.4101,3.4101,3.4101,3.4101,3.4101,3.4101,3.4101,3.4101,3.4101,3.4101,3.4101,3.4246,3.4505,3.7147,3.7048,3.6987,3.6987,3.6987,3.6987,3.6987,3.6987,3.6987,3.6987,3.6987,3.7009,3.7108,3.7108,3.7147,3.7297,3.7297,3.7297,3.7297,3.7297,3.6569,3.4887,3.4816,3.487,3.5013,3.5013,3.5031,3.5119,3.5901,3.6292,3.6346,3.7201,3.7577,3.7577,3.7577,3.7577,3.7577,3.7577,3.7577,3.7577,3.7577,3.7594,3.7594,3.7594,3.7594,3.7594,3.7372,3.7297,3.7297,3.7297,3.6499,3.558,3.5982,3.5453,3.4512,3.3428,3.3147,3.301,3.2081,3.1483,3.0965,3.0477,3.0,2.977,3.0103,3.0189,3.0316,3.079,3.0912,3.0912,3.0912,3.0912,3.0912,3.0912,3.0912,3.0912,3.0975,3.1015,3.1072,3.119,3.119,3.119,3.119,3.119,3.119,3.119,3.1072,3.1311,3.196,3.2315,3.2846,3.3571,3.3368,3.347,3.4084,3.3437,3.3437,3.4101,3.4101,3.4101,3.4101,3.4101,3.4101,3.4101,3.4101,3.4101,3.4101,3.4101,3.4101,3.4101,3.4101,3.4101,3.4101,3.4101,3.4554,3.5185,3.7048,3.7009,3.6987,3.6987,3.6987,3.6987,3.6987,3.6987,3.6987,3.6987,3.6987,3.7027,3.7009,3.7069,3.7108,3.7164,3.7259,3.7297,3.7297,3.7297,3.7046,3.6438,3.6403,3.6476,3.6606,3.6606,3.6643,3.6718,3.704,3.7201,3.7201,3.747,3.7577,3.7577,3.7577,3.7577,3.7577,3.7577,3.7577,3.7594,3.7447,3.7372,3.7372,3.7241,3.7164,3.7164,3.7105,3.7105,3.7105,3.7105,3.6768,3.6249,3.5635,3.5362,3.5031,3.4133,3.3946,3.3987,3.3781,3.339,3.2764,3.1472,3.0576,3.006,3.0113,3.0,2.9886,3.007,3.0326,3.0593,3.0871,3.1032,3.1072,3.0992,3.0975,3.0935,3.0935,3.0952,3.0935,3.1072,3.1055,3.1112,3.119,3.119,3.119,3.119,3.1584,3.2026,3.2584,3.3032,3.328,3.3304,3.3649,3.394,3.4101,3.389,3.389,3.4101,3.4101,3.4101,3.4101,3.4101,3.4101,3.4101,3.4101,3.4101,3.4101,3.4101,3.4101,3.4101,3.4101,3.4101,3.4101,3.4101,3.4554,3.5185,3.7563,3.7277,3.6987,3.6987,3.6987,3.6987,3.6987,3.6987,3.6987,3.6987,3.6987,3.6987,3.6987,3.7048,3.7069,3.7069,3.7126,3.7182,3.7182,3.722,3.7164,3.7087,3.7108,3.7147,3.7297,3.7334,3.741,3.7466,3.754,3.7577,3.7577,3.7577,3.7577,3.7577,3.7577,3.7577,3.7577,3.7577,3.7577,3.7577,3.7484,3.7372,3.7314,3.7182,3.7066,3.6987,3.6908,3.6869,3.6869,3.6869,3.6829,3.6678,3.6006,3.5931,3.5893,3.5048,3.4861,3.4868,3.4554,3.4276,3.3857,3.2924,3.1881,3.1073,3.083,3.0407,3.0048,2.9918,3.007,3.0326,3.0568,3.0773,3.0895,3.0895,3.0895,3.0912,3.0912,3.0912,3.0912,3.0952,3.0975,3.1015,3.1112,3.1444,3.1708,3.1948,3.2454,3.2884,3.3172,3.359,3.3745,3.3649,3.3924,3.4101,3.4101,3.4101,3.4101,3.4101,3.4101,3.4101,3.4101,3.4101,3.4101,3.4101,3.4101,3.4101,3.4101,3.4101,3.4101,3.4101,3.4101,3.4101,3.4101,3.4101,3.4554,3.5185,3.8483,3.7725,3.7097,3.7027,3.7009,3.7048,3.7009,3.7066,3.7087,3.7027,3.7009,3.7048,3.7009,3.6987,3.6987,3.6987,3.6987,3.7009,3.7009,3.7069,3.7069,3.7027,3.7087,3.7203,3.7297,3.7354,3.7466,3.7577,3.7577,3.7577,3.7577,3.7577,3.7577,3.7577,3.7577,3.7577,3.7577,3.7577,3.7577,3.7577,3.7594,3.7484,3.7297,3.7259,3.7143,3.6948,3.6783,3.6684,3.6661,3.6702,3.6788,3.6948,3.6766,3.6869,3.689,3.6029,3.584,3.5741,3.4847,3.4634,3.4673,3.4714,3.3758,3.2658,3.2076,3.1391,3.072,3.0217,3.0201,3.0314,3.0248,3.0401,3.0568,3.0692,3.0692,3.0733,3.0871,3.0871,3.0888,3.0955,3.1036,3.111,3.12,3.1904,3.2572,3.3131,3.3561,3.3776,3.3686,3.3991,3.4201,3.43,3.4151,3.4101,3.4101,3.4101,3.4101,3.4101,3.4101,3.4101,3.4101,3.4101,3.4101,3.4101,3.4101,3.4101,3.4101,3.4101,3.4101,3.4101,3.4101,3.4101,3.4101,3.4101,3.4554,3.5185,3.8589,3.8245,3.7831,3.7175,3.7226,3.7301,3.7048,3.7468,3.765,3.7087,3.7243,3.7301,3.7009,3.6987,3.6987,3.6987,3.6987,3.7009,3.7069,3.7203,3.7259,3.722,3.7259,3.7279,3.7392,3.7334,3.741,3.7577,3.7577,3.7577,3.7577,3.7577,3.7577,3.7577,3.7577,3.7577,3.7577,3.7577,3.7577,3.7594,3.7447,3.7334,3.7297,3.7143,3.6948,3.6766,3.6702,3.6561,3.6402,3.6502,3.6585,3.6626,3.6684,3.6766,3.6834,3.6619,3.6646,3.6689,3.6492,3.6439,3.6439,3.6439,3.5948,3.5045,3.3279,3.2677,3.2128,3.1099,3.1084,3.1163,3.0684,3.0692,3.079,3.0692,3.0692,3.0692,3.0609,3.0609,3.0825,3.1533,3.17,3.2043,3.2639,3.2798,3.3141,3.3835,3.3844,3.3978,3.4283,3.435,3.4349,3.4151,3.4101,3.4101,3.4101,3.4101,3.4101,3.4101,3.4101,3.4101,3.4101,3.4101,3.4101,3.4101,3.4101,3.4101,3.4101,3.4101,3.4101,3.4101,3.4101,3.4101,3.4101,3.4101,3.4554,3.5266,3.9789,3.9239,3.873,3.8307,3.8135,3.802,3.7828,3.7972,3.7966,3.7577,3.7523,3.7432,3.7243,3.7087,3.6987,3.6987,3.6987,3.7009,3.7048,3.722,3.7259,3.7203,3.7279,3.7354,3.7392,3.7354,3.7429,3.7577,3.7577,3.7577,3.7577,3.7577,3.7577,3.7577,3.7577,3.7577,3.7577,3.7577,3.7577,3.7594,3.741,3.7259,3.7143,3.6987,3.6748,3.6502,3.6502,3.6402,3.6301,3.6444,3.6502,3.6544,3.6684,3.6788,3.6811,3.6869,3.6948,3.6987,3.6987,3.6987,3.6987,3.6987,3.6811,3.6197,3.4455,3.3631,3.2961,3.1876,3.1733,3.1679,3.1391,3.1483,3.1553,3.145,3.1467,3.1467,3.145,3.151,3.1686,3.2083,3.2324,3.271,3.3445,3.3406,3.3661,3.433,3.4131,3.4055,3.4284,3.4201,3.4101,3.4,3.405,3.4101,3.4101,3.4101,3.4101,3.4101,3.4101,3.4101,3.4101,3.4101,3.4101,3.4101,3.4101,3.4101,3.4101,3.4101,3.4101,3.4101,3.4101,3.4101,3.4133,3.4489,3.5088,3.572,4.1105,4.0433,3.9815,3.9673,3.9361,3.9084,3.9065,3.8847,3.8634,3.8432,3.8169,3.7934,3.7804,3.7429,3.718,3.718,3.7058,3.7009,3.7066,3.7182,3.7241,3.7185,3.7299,3.7445,3.7625,3.7625,3.7662,3.7791,3.7791,3.7862,3.7987,3.7987,3.7987,3.7987,3.7987,3.7987,3.7968,3.7968,3.7879,3.7754,3.7587,3.7365,3.7009,3.6891,3.665,3.636,3.636,3.6343,3.6343,3.6485,3.6544,3.6568,3.6771,3.6811,3.6869,3.6987,3.6987,3.6987,3.6987,3.6987,3.6987,3.6987,3.6987,3.6716,3.5619,3.4651,3.3707,3.2747,3.2406,3.2189,3.2059,3.215,3.2272,3.2272,3.2272,3.2256,3.2364,3.25,3.2595,3.2619,3.2966,3.3387,3.3909,3.3928,3.4065,3.4545,3.425,3.405,3.405,3.3899,3.3797,3.3949,3.405,3.4101,3.4101,3.4101,3.4101,3.4101,3.4101,3.4101,3.4101,3.4101,3.4101,3.4101,3.4101,3.4101,3.4101,3.4101,3.4165,3.4279,3.4279,3.4279,3.4293,3.4762,3.5344,3.5796,4.1566,4.1373,4.1031,4.0328,4.0557,4.0738,4.0397,4.0777,4.0772,3.9784,3.9841,3.9768,3.9135,3.8415,3.7953,3.7953,3.7356,3.7066,3.7259,3.7164,3.7261,3.7503,3.741,3.7729,3.8592,3.8498,3.8498,3.8647,3.8647,3.8968,3.9593,3.9593,3.9593,3.9593,3.9593,3.9551,3.9491,3.9491,3.9043,3.8288,3.8227,3.7725,3.7069,3.7009,3.6829,3.6643,3.6643,3.6544,3.6485,3.669,3.6748,3.6771,3.6948,3.697,3.6987,3.697,3.6987,3.6987,3.6987,3.6987,3.6987,3.6987,3.6987,3.6952,3.6751,3.6086,3.5172,3.3951,3.3423,3.3025,3.2387,3.218,3.2134,3.2134,3.2041,3.1931,3.1978,3.2087,3.2409,3.3028,3.3921,3.4492,3.4591,3.4349,3.4202,3.4184,3.4,3.3949,3.3949,3.4,3.405,3.405,3.4101,3.4101,3.4101,3.4101,3.4101,3.4101,3.4101,3.4101,3.4101,3.4101,3.4101,3.4101,3.4101,3.4101,3.4101,3.4101,3.4473,3.504,3.504,3.4988,3.482,3.4134,3.4057,3.432,4.216,4.2093,4.1931,4.1571,4.1716,4.1807,4.164,4.1674,4.1534,4.1029,4.0698,4.0402,4.007,3.9279,3.8602,3.8244,3.791,3.7602,3.7332,3.7279,3.7532,3.8144,3.816,3.8516,3.9414,3.9376,3.959,4.0092,3.9646,3.9593,3.9914,3.9914,3.9914,3.9914,3.9914,3.9854,3.9789,3.9789,3.9518,3.9009,3.8425,3.7958,3.7527,3.6946,3.6667,3.6602,3.6643,3.6643,3.6643,3.6748,3.6788,3.6811,3.6948,3.6987,3.6987,3.6987,3.6987,3.6987,3.6987,3.6948,3.6908,3.6908,3.6908,3.6869,3.6846,3.6139,3.5346,3.4784,3.4195,3.3681,3.3161,3.3096,3.3096,3.2998,3.2949,3.2949,3.3096,3.3242,3.3549,3.4069,3.4397,3.4643,3.4804,3.4546,3.4349,3.4201,3.3949,3.3797,3.3899,3.3899,3.4101,3.4464,3.4234,3.4234,3.4513,3.4234,3.4101,3.4101,3.4101,3.4101,3.4101,3.4101,3.4101,3.4101,3.4101,3.4101,3.4101,3.4101,3.4279,3.4586,3.4586,3.4829,3.5101,3.4675,3.482,3.5211]}]]